<?xml version='1.0' encoding='UTF-8'?><gpx version="1.1" creator="JPX - https://github.com/jenetics/jpx" xmlns="http://www.topografix.com/GPX/1/1"><trk><trkseg><trkpt lat="45.04157727215508" lon="7.352542598956216"><ele>507.0</ele><time>2026-04-11T10:12:04Z</time></trkpt><trkpt lat="45.04150561670235" lon="7.352562270127336"><ele>507.0</ele><time>2026-04-11T10:12:06Z</time></trkpt><trkpt lat="45.0414177356071" lon="7.352573507674788"><ele>507.0</ele><time>2026-04-11T10:12:08Z</time></trkpt><trkpt lat="45.04134719839095" lon="7.352604253966917"><ele>507.0</ele><time>2026-04-11T10:12:09Z</time></trkpt><trkpt lat="45.04130168758371" lon="7.3527395373889375"><ele>507.0</ele><time>2026-04-11T10:12:11Z</time></trkpt><trkpt lat="45.04127552333245" lon="7.352863073539421"><ele>507.0</ele><time>2026-04-11T10:12:12Z</time></trkpt><trkpt lat="45.04124516368843" lon="7.352960891953089"><ele>507.0</ele><time>2026-04-11T10:12:13Z</time></trkpt><trkpt lat="45.04120552785808" lon="7.353063894461607"><ele>507.00000000000006</ele><time>2026-04-11T10:12:15Z</time></trkpt><trkpt lat="45.041180122812385" lon="7.353157101661413"><ele>507.00000000000006</ele><time>2026-04-11T10:12:41Z</time></trkpt><trkpt lat="45.041088171470705" lon="7.353297846312643"><ele>507.0</ele><time>2026-04-11T10:12:43Z</time></trkpt><trkpt lat="45.041049169853466" lon="7.353398398720561"><ele>507.0</ele><time>2026-04-11T10:12:44Z</time></trkpt><trkpt lat="45.04100913130657" lon="7.353501624599943"><ele>507.0</ele><time>2026-04-11T10:12:45Z</time></trkpt><trkpt lat="45.04096758158368" lon="7.353608749815306"><ele>507.0</ele><time>2026-04-11T10:12:46Z</time></trkpt><trkpt lat="45.04092899008564" lon="7.35370568259524"><ele>507.0</ele><time>2026-04-11T10:12:47Z</time></trkpt><trkpt lat="45.04089070939489" lon="7.353802811940688"><ele>507.0</ele><time>2026-04-11T10:12:48Z</time></trkpt><trkpt lat="45.04085752783833" lon="7.353887004218825"><ele>507.0</ele><time>2026-04-11T10:12:49Z</time></trkpt><trkpt lat="45.04082657221252" lon="7.353965120502722"><ele>507.0</ele><time>2026-04-11T10:12:50Z</time></trkpt><trkpt lat="45.04079555037069" lon="7.354043715694083"><ele>507.0</ele><time>2026-04-11T10:12:51Z</time></trkpt><trkpt lat="45.04073417114412" lon="7.3541992216179874"><ele>506.5</ele><time>2026-04-11T10:12:53Z</time></trkpt><trkpt lat="45.04070267787621" lon="7.354279010482318"><ele>506.0</ele><time>2026-04-11T10:12:54Z</time></trkpt><trkpt lat="45.040663160986874" lon="7.35441929835194"><ele>505.5</ele><time>2026-04-11T10:12:56Z</time></trkpt><trkpt lat="45.040609537143204" lon="7.354518114137046"><ele>505.0</ele><time>2026-04-11T10:12:58Z</time></trkpt><trkpt lat="45.04058017689398" lon="7.354602018299826"><ele>504.5</ele><time>2026-04-11T10:13:00Z</time></trkpt><trkpt lat="45.04052566276022" lon="7.354692710873798"><ele>504.0</ele><time>2026-04-11T10:13:17Z</time></trkpt><trkpt lat="45.04048102898079" lon="7.354793175258767"><ele>504.0</ele><time>2026-04-11T10:13:19Z</time></trkpt><trkpt lat="45.04039388320186" lon="7.3547927610279356"><ele>504.0</ele><time>2026-04-11T10:13:21Z</time></trkpt><trkpt lat="45.040320729990654" lon="7.35475474904356"><ele>504.0</ele><time>2026-04-11T10:13:22Z</time></trkpt><trkpt lat="45.04025105838787" lon="7.354705345722415"><ele>504.0</ele><time>2026-04-11T10:13:23Z</time></trkpt><trkpt lat="45.040190287665794" lon="7.354675515456628"><ele>504.0</ele><time>2026-04-11T10:13:24Z</time></trkpt><trkpt lat="45.040109258899854" lon="7.354635945622244"><ele>504.0</ele><time>2026-04-11T10:13:26Z</time></trkpt><trkpt lat="45.04004578548556" lon="7.354624709842974"><ele>504.1666666666667</ele><time>2026-04-11T10:13:27Z</time></trkpt><trkpt lat="45.03994853887239" lon="7.354580200008298"><ele>504.33333333333337</ele><time>2026-04-11T10:13:28Z</time></trkpt><trkpt lat="45.03988332938341" lon="7.354546239965034"><ele>504.5</ele><time>2026-04-11T10:13:29Z</time></trkpt><trkpt lat="45.03981615994936" lon="7.354526217745078"><ele>504.6666666666667</ele><time>2026-04-11T10:13:30Z</time></trkpt><trkpt lat="45.03971603047711" lon="7.354458713102024"><ele>504.83333333333337</ele><time>2026-04-11T10:13:32Z</time></trkpt><trkpt lat="45.03964080215261" lon="7.354423178724164"><ele>505.0</ele><time>2026-04-11T10:13:34Z</time></trkpt><trkpt lat="45.039538623230875" lon="7.354620076464446"><ele>504.6</ele><time>2026-04-11T10:13:36Z</time></trkpt><trkpt lat="45.039509115341005" lon="7.354763037648332"><ele>504.2</ele><time>2026-04-11T10:13:37Z</time></trkpt><trkpt lat="45.039480217215015" lon="7.354903044622881"><ele>503.79999999999995</ele><time>2026-04-11T10:13:38Z</time></trkpt><trkpt lat="45.039454788206875" lon="7.3550343672042775"><ele>503.4</ele><time>2026-04-11T10:13:39Z</time></trkpt><trkpt lat="45.039429643747035" lon="7.355165151608783"><ele>503.0</ele><time>2026-04-11T10:13:40Z</time></trkpt><trkpt lat="45.039405017972285" lon="7.3552932361991425"><ele>503.0</ele><time>2026-04-11T10:13:41Z</time></trkpt><trkpt lat="45.03937729608728" lon="7.355416820744887"><ele>502.99999999999994</ele><time>2026-04-11T10:13:42Z</time></trkpt><trkpt lat="45.03934197908234" lon="7.355544032554176"><ele>502.99999999999994</ele><time>2026-04-11T10:13:43Z</time></trkpt><trkpt lat="45.03930281612022" lon="7.355660314268088"><ele>503.0</ele><time>2026-04-11T10:13:44Z</time></trkpt><trkpt lat="45.03925777787753" lon="7.35578288202203"><ele>503.0</ele><time>2026-04-11T10:13:45Z</time></trkpt><trkpt lat="45.03920943259566" lon="7.355905576626792"><ele>502.4</ele><time>2026-04-11T10:13:46Z</time></trkpt><trkpt lat="45.039158092731086" lon="7.356025800081632"><ele>501.79999999999995</ele><time>2026-04-11T10:13:47Z</time></trkpt><trkpt lat="45.0391057265383" lon="7.356136184970576"><ele>501.2</ele><time>2026-04-11T10:13:48Z</time></trkpt><trkpt lat="45.03904936736718" lon="7.356242505024818"><ele>500.6</ele><time>2026-04-11T10:13:49Z</time></trkpt><trkpt lat="45.03897332191476" lon="7.356358584176242"><ele>500.0</ele><time>2026-04-11T10:13:50Z</time></trkpt><trkpt lat="45.03890186887795" lon="7.3564355737621545"><ele>499.4</ele><time>2026-04-11T10:13:51Z</time></trkpt><trkpt lat="45.03882977929497" lon="7.3565120480662465"><ele>498.8</ele><time>2026-04-11T10:13:52Z</time></trkpt><trkpt lat="45.038750229739684" lon="7.356558960022234"><ele>498.20000000000005</ele><time>2026-04-11T10:13:53Z</time></trkpt><trkpt lat="45.03868905937415" lon="7.35659429670166"><ele>497.6</ele><time>2026-04-11T10:13:54Z</time></trkpt><trkpt lat="45.03859356040661" lon="7.356633242132709"><ele>497.0</ele><time>2026-04-11T10:13:56Z</time></trkpt><trkpt lat="45.038451195195044" lon="7.3566752981500585"><ele>497.0</ele><time>2026-04-11T10:13:58Z</time></trkpt><trkpt lat="45.03835803985917" lon="7.356736019090477"><ele>497.00000000000006</ele><time>2026-04-11T10:13:59Z</time></trkpt><trkpt lat="45.03826571353642" lon="7.356774978585042"><ele>497.00000000000006</ele><time>2026-04-11T10:14:00Z</time></trkpt><trkpt lat="45.03817727428909" lon="7.356836565356047"><ele>497.0</ele><time>2026-04-11T10:14:01Z</time></trkpt><trkpt lat="45.038094264155546" lon="7.356912874080254"><ele>497.0</ele><time>2026-04-11T10:14:02Z</time></trkpt><trkpt lat="45.03802248711234" lon="7.356999457978742"><ele>496.8</ele><time>2026-04-11T10:14:03Z</time></trkpt><trkpt lat="45.037953629870536" lon="7.357085064275617"><ele>496.6</ele><time>2026-04-11T10:14:04Z</time></trkpt><trkpt lat="45.03789029286752" lon="7.357181326499496"><ele>496.40000000000003</ele><time>2026-04-11T10:14:05Z</time></trkpt><trkpt lat="45.03782651888218" lon="7.357286020684308"><ele>496.20000000000005</ele><time>2026-04-11T10:14:06Z</time></trkpt><trkpt lat="45.03775405135485" lon="7.357382828836709"><ele>496.0</ele><time>2026-04-11T10:14:07Z</time></trkpt><trkpt lat="45.03769521261871" lon="7.357469565111674"><ele>495.5</ele><time>2026-04-11T10:14:08Z</time></trkpt><trkpt lat="45.03763699461796" lon="7.357539065240989"><ele>495.0</ele><time>2026-04-11T10:14:09Z</time></trkpt><trkpt lat="45.037593723829296" lon="7.357605292091667"><ele>494.5</ele><time>2026-04-11T10:14:10Z</time></trkpt><trkpt lat="45.03749984503878" lon="7.357724633859155"><ele>494.0</ele><time>2026-04-11T10:14:12Z</time></trkpt><trkpt lat="45.037291670485864" lon="7.3578057541089485"><ele>493.99999999999994</ele><time>2026-04-11T10:14:15Z</time></trkpt><trkpt lat="45.0372149158077" lon="7.357828499936066"><ele>494.0</ele><time>2026-04-11T10:14:16Z</time></trkpt><trkpt lat="45.037140555791325" lon="7.357858666966989"><ele>494.0</ele><time>2026-04-11T10:14:17Z</time></trkpt><trkpt lat="45.03705112303001" lon="7.357881665160123"><ele>494.0</ele><time>2026-04-11T10:14:19Z</time></trkpt><trkpt lat="45.03696157678732" lon="7.357907600749755"><ele>493.99999999999994</ele><time>2026-04-11T10:14:23Z</time></trkpt><trkpt lat="45.036966517906386" lon="7.358062566347606"><ele>494.0</ele><time>2026-04-11T10:14:24Z</time></trkpt><trkpt lat="45.03695100744123" lon="7.358230576516112"><ele>493.6</ele><time>2026-04-11T10:14:26Z</time></trkpt><trkpt lat="45.03693876222863" lon="7.358384428516716"><ele>493.2</ele><time>2026-04-11T10:14:28Z</time></trkpt><trkpt lat="45.036908363180295" lon="7.358538172183287"><ele>492.80000000000007</ele><time>2026-04-11T10:14:30Z</time></trkpt><trkpt lat="45.036896923642516" lon="7.358691959788751"><ele>492.40000000000003</ele><time>2026-04-11T10:14:32Z</time></trkpt><trkpt lat="45.036923570391636" lon="7.358796088980322"><ele>492.0</ele><time>2026-04-11T10:14:33Z</time></trkpt><trkpt lat="45.03692546915207" lon="7.358911523589015"><ele>491.5</ele><time>2026-04-11T10:14:34Z</time></trkpt><trkpt lat="45.036917758051466" lon="7.359030184428861"><ele>491.0</ele><time>2026-04-11T10:14:35Z</time></trkpt><trkpt lat="45.03688237566546" lon="7.359128493334219"><ele>490.5</ele><time>2026-04-11T10:14:36Z</time></trkpt><trkpt lat="45.036863749575026" lon="7.35924752691983"><ele>490.0</ele><time>2026-04-11T10:14:37Z</time></trkpt><trkpt lat="45.03684253698835" lon="7.359358193566215"><ele>489.5</ele><time>2026-04-11T10:14:38Z</time></trkpt><trkpt lat="45.036817840925124" lon="7.3594711684848635"><ele>489.0</ele><time>2026-04-11T10:14:39Z</time></trkpt><trkpt lat="45.03678706646523" lon="7.359583568330898"><ele>489.0</ele><time>2026-04-11T10:14:40Z</time></trkpt><trkpt lat="45.03674943577554" lon="7.359690216443151"><ele>489.0</ele><time>2026-04-11T10:14:41Z</time></trkpt><trkpt lat="45.03669903667128" lon="7.359803727092195"><ele>489.0</ele><time>2026-04-11T10:14:42Z</time></trkpt><trkpt lat="45.03669281147653" lon="7.359924033030983"><ele>489.0</ele><time>2026-04-11T10:14:43Z</time></trkpt><trkpt lat="45.0366769383591" lon="7.36002823127054"><ele>489.0</ele><time>2026-04-11T10:14:44Z</time></trkpt><trkpt lat="45.0366586645492" lon="7.360158407089734"><ele>489.0</ele><time>2026-04-11T10:14:45Z</time></trkpt><trkpt lat="45.036637531111694" lon="7.360285838359621"><ele>488.6666666666667</ele><time>2026-04-11T10:14:46Z</time></trkpt><trkpt lat="45.03661586040668" lon="7.360393682954469"><ele>488.33333333333337</ele><time>2026-04-11T10:14:47Z</time></trkpt><trkpt lat="45.03659187911454" lon="7.360509458884576"><ele>488.0</ele><time>2026-04-11T10:14:48Z</time></trkpt><trkpt lat="45.036563370351" lon="7.3606385627421975"><ele>487.6666666666667</ele><time>2026-04-11T10:14:49Z</time></trkpt><trkpt lat="45.03653646820518" lon="7.3607597319577796"><ele>487.33333333333337</ele><time>2026-04-11T10:14:50Z</time></trkpt><trkpt lat="45.03651664155632" lon="7.3608670787457715"><ele>487.0</ele><time>2026-04-11T10:14:51Z</time></trkpt><trkpt lat="45.036505355758784" lon="7.360966931395331"><ele>486.6666666666667</ele><time>2026-04-11T10:14:52Z</time></trkpt><trkpt lat="45.03649527424909" lon="7.36107752019043"><ele>486.33333333333337</ele><time>2026-04-11T10:14:53Z</time></trkpt><trkpt lat="45.03649606018201" lon="7.36118928264331"><ele>486.0</ele><time>2026-04-11T10:14:54Z</time></trkpt><trkpt lat="45.036497121487685" lon="7.361302436384875"><ele>485.66666666666663</ele><time>2026-04-11T10:14:55Z</time></trkpt><trkpt lat="45.03649805312031" lon="7.3614145755289355"><ele>485.3333333333333</ele><time>2026-04-11T10:14:56Z</time></trkpt><trkpt lat="45.03649899945168" lon="7.3615284840853"><ele>485.0</ele><time>2026-04-11T10:14:57Z</time></trkpt><trkpt lat="45.036499831021445" lon="7.361647569538393"><ele>484.99999999999994</ele><time>2026-04-11T10:14:58Z</time></trkpt><trkpt lat="45.03649666127529" lon="7.361746949259872"><ele>485.0</ele><time>2026-04-11T10:14:59Z</time></trkpt><trkpt lat="45.03649119988215" lon="7.361846396178298"><ele>485.0</ele><time>2026-04-11T10:15:00Z</time></trkpt><trkpt lat="45.036484513269905" lon="7.361944085958934"><ele>485.0</ele><time>2026-04-11T10:15:01Z</time></trkpt><trkpt lat="45.03647474860333" lon="7.362059914656858"><ele>484.99999999999994</ele><time>2026-04-11T10:15:02Z</time></trkpt><trkpt lat="45.03646146201503" lon="7.362179853828102"><ele>485.0</ele><time>2026-04-11T10:15:03Z</time></trkpt><trkpt lat="45.036445613402456" lon="7.3622987713454355"><ele>484.99999999999994</ele><time>2026-04-11T10:15:04Z</time></trkpt><trkpt lat="45.03642874599463" lon="7.362411344247107"><ele>485.0</ele><time>2026-04-11T10:15:05Z</time></trkpt><trkpt lat="45.03640867914414" lon="7.362523515117312"><ele>485.0</ele><time>2026-04-11T10:15:06Z</time></trkpt><trkpt lat="45.036385693394706" lon="7.36262840903748"><ele>485.0</ele><time>2026-04-11T10:15:07Z</time></trkpt><trkpt lat="45.036353250167735" lon="7.362730647209356"><ele>484.99999999999994</ele><time>2026-04-11T10:15:08Z</time></trkpt><trkpt lat="45.03631698254936" lon="7.362832318892727"><ele>485.0</ele><time>2026-04-11T10:15:09Z</time></trkpt><trkpt lat="45.03628377601522" lon="7.362915570701092"><ele>484.3333333333333</ele><time>2026-04-11T10:15:10Z</time></trkpt><trkpt lat="45.036212914224144" lon="7.363068809872319"><ele>483.66666666666663</ele><time>2026-04-11T10:15:12Z</time></trkpt><trkpt lat="45.03617286925125" lon="7.363151734443993"><ele>483.0</ele><time>2026-04-11T10:15:13Z</time></trkpt><trkpt lat="45.03611759457668" lon="7.363278674483846"><ele>482.33333333333337</ele><time>2026-04-11T10:15:15Z</time></trkpt><trkpt lat="45.03607896159083" lon="7.3633723648138005"><ele>481.6666666666667</ele><time>2026-04-11T10:15:17Z</time></trkpt><trkpt lat="45.0360463304297" lon="7.363451499768405"><ele>481.0</ele><time>2026-04-11T10:15:19Z</time></trkpt><trkpt lat="45.03600166031726" lon="7.363561725679266"><ele>481.00000000000006</ele><time>2026-04-11T10:15:22Z</time></trkpt><trkpt lat="45.03596363779721" lon="7.363657226989948"><ele>481.0</ele><time>2026-04-11T10:15:24Z</time></trkpt><trkpt lat="45.03591768332701" lon="7.363763457878247"><ele>481.0</ele><time>2026-04-11T10:16:52Z</time></trkpt><trkpt lat="45.03585973225191" lon="7.363839279762438"><ele>481.0</ele><time>2026-04-11T10:16:53Z</time></trkpt><trkpt lat="45.03580546497071" lon="7.363935230860197"><ele>481.00000000000006</ele><time>2026-04-11T10:16:54Z</time></trkpt><trkpt lat="45.035742935165345" lon="7.364032626381359"><ele>481.0</ele><time>2026-04-11T10:16:55Z</time></trkpt><trkpt lat="45.035697679343684" lon="7.364102704174389"><ele>480.00000000000006</ele><time>2026-04-11T10:16:56Z</time></trkpt><trkpt lat="45.03565136014152" lon="7.3642429961826394"><ele>479.0</ele><time>2026-04-11T10:16:58Z</time></trkpt><trkpt lat="45.03564069040448" lon="7.364416733880222"><ele>478.0</ele><time>2026-04-11T10:17:00Z</time></trkpt><trkpt lat="45.0356368502055" lon="7.364523263433342"><ele>477.0</ele><time>2026-04-11T10:17:01Z</time></trkpt><trkpt lat="45.03563583651258" lon="7.3646199501136085"><ele>476.00000000000006</ele><time>2026-04-11T10:17:02Z</time></trkpt><trkpt lat="45.03562826353291" lon="7.364719208637768"><ele>475.0</ele><time>2026-04-11T10:17:03Z</time></trkpt><trkpt lat="45.03563067461847" lon="7.364818224920354"><ele>474.7142857142857</ele><time>2026-04-11T10:17:04Z</time></trkpt><trkpt lat="45.03563178224943" lon="7.364932427433767"><ele>474.42857142857144</ele><time>2026-04-11T10:17:05Z</time></trkpt><trkpt lat="45.03563407525362" lon="7.365029827633103"><ele>474.14285714285717</ele><time>2026-04-11T10:17:06Z</time></trkpt><trkpt lat="45.03561753920785" lon="7.365119410386986"><ele>473.8571428571429</ele><time>2026-04-11T10:17:07Z</time></trkpt><trkpt lat="45.03560284374864" lon="7.3652124039803795"><ele>473.57142857142856</ele><time>2026-04-11T10:17:08Z</time></trkpt><trkpt lat="45.03557273255414" lon="7.365309886006165"><ele>473.28571428571433</ele><time>2026-04-11T10:17:09Z</time></trkpt><trkpt lat="45.035526488123885" lon="7.3653775579773875"><ele>473.0</ele><time>2026-04-11T10:17:10Z</time></trkpt><trkpt lat="45.03542452314816" lon="7.36549236358299"><ele>473.16666666666663</ele><time>2026-04-11T10:17:12Z</time></trkpt><trkpt lat="45.035362211760585" lon="7.365570256889683"><ele>473.3333333333333</ele><time>2026-04-11T10:17:13Z</time></trkpt><trkpt lat="45.03529572879105" lon="7.365655801284686"><ele>473.5</ele><time>2026-04-11T10:17:14Z</time></trkpt><trkpt lat="45.03523568280551" lon="7.365721449719664"><ele>473.66666666666663</ele><time>2026-04-11T10:17:15Z</time></trkpt><trkpt lat="45.03518140934397" lon="7.365782027012556"><ele>473.8333333333333</ele><time>2026-04-11T10:17:16Z</time></trkpt><trkpt lat="45.03508329473765" lon="7.365889348503256"><ele>474.0</ele><time>2026-04-11T10:17:18Z</time></trkpt><trkpt lat="45.03503014902151" lon="7.365958812236285"><ele>473.99999999999994</ele><time>2026-04-11T10:17:19Z</time></trkpt><trkpt lat="45.03499090809525" lon="7.366035703815278"><ele>474.0</ele><time>2026-04-11T10:17:20Z</time></trkpt><trkpt lat="45.03494956053281" lon="7.366117278586575"><ele>473.99999999999994</ele><time>2026-04-11T10:17:21Z</time></trkpt><trkpt lat="45.034906496714456" lon="7.366216767388009"><ele>473.99999999999994</ele><time>2026-04-11T10:17:22Z</time></trkpt><trkpt lat="45.03486389980289" lon="7.36629660314433"><ele>474.0</ele><time>2026-04-11T10:17:23Z</time></trkpt><trkpt lat="45.03482798755864" lon="7.366378185390706"><ele>473.99999999999994</ele><time>2026-04-11T10:17:24Z</time></trkpt><trkpt lat="45.03479136783897" lon="7.366458116492204"><ele>473.99999999999994</ele><time>2026-04-11T10:17:25Z</time></trkpt><trkpt lat="45.034750444721666" lon="7.366551420994614"><ele>473.4</ele><time>2026-04-11T10:17:26Z</time></trkpt><trkpt lat="45.03471246155191" lon="7.366636093253614"><ele>472.79999999999995</ele><time>2026-04-11T10:17:27Z</time></trkpt><trkpt lat="45.034631545408246" lon="7.366793297437659"><ele>472.20000000000005</ele><time>2026-04-11T10:17:29Z</time></trkpt><trkpt lat="45.03458249749528" lon="7.366908013040254"><ele>471.6</ele><time>2026-04-11T10:17:30Z</time></trkpt><trkpt lat="45.0345348641174" lon="7.367018556416774"><ele>471.0</ele><time>2026-04-11T10:17:31Z</time></trkpt><trkpt lat="45.03448168305041" lon="7.367121278600003"><ele>470.5</ele><time>2026-04-11T10:17:32Z</time></trkpt><trkpt lat="45.03442163857275" lon="7.367213504620187"><ele>470.0</ele><time>2026-04-11T10:17:33Z</time></trkpt><trkpt lat="45.03436252970309" lon="7.3672996663405295"><ele>469.5</ele><time>2026-04-11T10:17:34Z</time></trkpt><trkpt lat="45.034303182907514" lon="7.3673562335258564"><ele>469.0</ele><time>2026-04-11T10:17:35Z</time></trkpt><trkpt lat="45.03420553175913" lon="7.367471179742202"><ele>468.5</ele><time>2026-04-11T10:17:37Z</time></trkpt><trkpt lat="45.034142877448645" lon="7.36752309729011"><ele>468.0</ele><time>2026-04-11T10:17:38Z</time></trkpt><trkpt lat="45.03409167759431" lon="7.367583966877638"><ele>467.5</ele><time>2026-04-11T10:17:39Z</time></trkpt><trkpt lat="45.034050912561376" lon="7.3676601047327335"><ele>467.0</ele><time>2026-04-11T10:17:40Z</time></trkpt><trkpt lat="45.03403117070495" lon="7.367772666433391"><ele>466.5</ele><time>2026-04-11T10:17:41Z</time></trkpt><trkpt lat="45.0339917253736" lon="7.367871731143401"><ele>466.0</ele><time>2026-04-11T10:17:42Z</time></trkpt><trkpt lat="45.033928735955115" lon="7.3679601918502176"><ele>465.5</ele><time>2026-04-11T10:17:43Z</time></trkpt><trkpt lat="45.033878912677196" lon="7.368066686148017"><ele>465.0</ele><time>2026-04-11T10:17:44Z</time></trkpt><trkpt lat="45.0338503334001" lon="7.3681762940124615"><ele>465.0</ele><time>2026-04-11T10:17:45Z</time></trkpt><trkpt lat="45.03381356588973" lon="7.36825634704019"><ele>465.0</ele><time>2026-04-11T10:17:46Z</time></trkpt><trkpt lat="45.03377194513433" lon="7.368345380756476"><ele>465.0</ele><time>2026-04-11T10:17:47Z</time></trkpt><trkpt lat="45.033728685964974" lon="7.368440099140062"><ele>465.0</ele><time>2026-04-11T10:17:48Z</time></trkpt><trkpt lat="45.03370721664812" lon="7.368552154679262"><ele>465.0</ele><time>2026-04-11T10:17:49Z</time></trkpt><trkpt lat="45.03368189011842" lon="7.368662316073744"><ele>465.0</ele><time>2026-04-11T10:17:50Z</time></trkpt><trkpt lat="45.03367599662954" lon="7.3687513904798365"><ele>465.0</ele><time>2026-04-11T10:17:51Z</time></trkpt><trkpt lat="45.03365494264517" lon="7.368849428618838"><ele>465.0</ele><time>2026-04-11T10:17:52Z</time></trkpt><trkpt lat="45.0336343663612" lon="7.368954706615424"><ele>465.0</ele><time>2026-04-11T10:17:53Z</time></trkpt><trkpt lat="45.033612282920664" lon="7.369068902091608"><ele>465.0</ele><time>2026-04-11T10:17:54Z</time></trkpt><trkpt lat="45.03359194142301" lon="7.369185441698247"><ele>465.0</ele><time>2026-04-11T10:17:55Z</time></trkpt><trkpt lat="45.033563059723875" lon="7.369288281579015"><ele>465.0</ele><time>2026-04-11T10:17:56Z</time></trkpt><trkpt lat="45.0335437012909" lon="7.369407569997141"><ele>465.0</ele><time>2026-04-11T10:17:57Z</time></trkpt><trkpt lat="45.03351469265305" lon="7.369517839257906"><ele>465.0</ele><time>2026-04-11T10:17:58Z</time></trkpt><trkpt lat="45.033479162436294" lon="7.369629620622731"><ele>465.0</ele><time>2026-04-11T10:17:59Z</time></trkpt><trkpt lat="45.03345810569656" lon="7.369726163900421"><ele>465.0</ele><time>2026-04-11T10:18:00Z</time></trkpt><trkpt lat="45.033433848000655" lon="7.369825658865096"><ele>465.0</ele><time>2026-04-11T10:18:01Z</time></trkpt><trkpt lat="45.033406979336355" lon="7.369929734844554"><ele>465.0</ele><time>2026-04-11T10:18:02Z</time></trkpt><trkpt lat="45.0333772717281" lon="7.370023272392768"><ele>464.6666666666667</ele><time>2026-04-11T10:18:03Z</time></trkpt><trkpt lat="45.03333779683227" lon="7.370111771642578"><ele>464.33333333333337</ele><time>2026-04-11T10:18:04Z</time></trkpt><trkpt lat="45.033277094044564" lon="7.370192236205684"><ele>464.0</ele><time>2026-04-11T10:18:05Z</time></trkpt><trkpt lat="45.0332444574369" lon="7.3702829338252975"><ele>463.6666666666667</ele><time>2026-04-11T10:18:06Z</time></trkpt><trkpt lat="45.03318853323132" lon="7.370335673190293"><ele>463.33333333333337</ele><time>2026-04-11T10:18:07Z</time></trkpt><trkpt lat="45.03313877487021" lon="7.370403246131237"><ele>463.0</ele><time>2026-04-11T10:18:08Z</time></trkpt><trkpt lat="45.033027631128626" lon="7.370509604180111"><ele>462.2857142857143</ele><time>2026-04-11T10:18:10Z</time></trkpt><trkpt lat="45.032959981093505" lon="7.370536011883286"><ele>461.57142857142856</ele><time>2026-04-11T10:18:11Z</time></trkpt><trkpt lat="45.03289920640809" lon="7.370562579456674"><ele>460.85714285714283</ele><time>2026-04-11T10:18:12Z</time></trkpt><trkpt lat="45.03284290872155" lon="7.370604122434085"><ele>460.1428571428571</ele><time>2026-04-11T10:18:13Z</time></trkpt><trkpt lat="45.032785297643834" lon="7.370640088627514"><ele>459.42857142857144</ele><time>2026-04-11T10:18:14Z</time></trkpt><trkpt lat="45.032675911225695" lon="7.37070521001431"><ele>458.71428571428567</ele><time>2026-04-11T10:18:16Z</time></trkpt><trkpt lat="45.03261392664349" lon="7.3707414810707865"><ele>458.0</ele><time>2026-04-11T10:18:17Z</time></trkpt><trkpt lat="45.03250149186103" lon="7.37080915963738"><ele>457.66666666666663</ele><time>2026-04-11T10:18:19Z</time></trkpt><trkpt lat="45.03241457105931" lon="7.370877720669453"><ele>457.3333333333333</ele><time>2026-04-11T10:18:21Z</time></trkpt><trkpt lat="45.03234613259053" lon="7.370936951407368"><ele>457.0</ele><time>2026-04-11T10:18:23Z</time></trkpt><trkpt lat="45.032288942275166" lon="7.371029193372188"><ele>456.66666666666663</ele><time>2026-04-11T10:18:25Z</time></trkpt><trkpt lat="45.03223284429041" lon="7.371108184247831"><ele>456.3333333333333</ele><time>2026-04-11T10:18:26Z</time></trkpt><trkpt lat="45.0321618336733" lon="7.371189970888764"><ele>456.0</ele><time>2026-04-11T10:18:27Z</time></trkpt><trkpt lat="45.03212313040642" lon="7.371305810894542"><ele>455.5</ele><time>2026-04-11T10:18:28Z</time></trkpt><trkpt lat="45.032075307750155" lon="7.37141851353151"><ele>455.0</ele><time>2026-04-11T10:18:29Z</time></trkpt><trkpt lat="45.03203695959473" lon="7.371529144031327"><ele>454.5</ele><time>2026-04-11T10:18:30Z</time></trkpt><trkpt lat="45.03200883739919" lon="7.371629593324226"><ele>454.0</ele><time>2026-04-11T10:18:31Z</time></trkpt><trkpt lat="45.03199134807958" lon="7.371728801130296"><ele>453.5</ele><time>2026-04-11T10:18:32Z</time></trkpt><trkpt lat="45.03197079110151" lon="7.371820318543692"><ele>453.0</ele><time>2026-04-11T10:18:33Z</time></trkpt><trkpt lat="45.031943040982846" lon="7.37191149095825"><ele>453.0</ele><time>2026-04-11T10:18:34Z</time></trkpt><trkpt lat="45.031886864244186" lon="7.372037139004043"><ele>453.0</ele><time>2026-04-11T10:18:36Z</time></trkpt><trkpt lat="45.03190759541206" lon="7.372153447677724"><ele>453.0</ele><time>2026-04-11T10:18:38Z</time></trkpt><trkpt lat="45.03198447154049" lon="7.372206969866344"><ele>453.0</ele><time>2026-04-11T10:18:41Z</time></trkpt><trkpt lat="45.03205516290122" lon="7.372215619033808"><ele>453.0</ele><time>2026-04-11T10:18:44Z</time></trkpt><trkpt lat="45.03214875429333" lon="7.37223953984934"><ele>453.0</ele><time>2026-04-11T10:19:01Z</time></trkpt><trkpt lat="45.03229273521465" lon="7.372284842216625"><ele>452.25</ele><time>2026-04-11T10:19:03Z</time></trkpt><trkpt lat="45.032395295473734" lon="7.372329852915294"><ele>451.5</ele><time>2026-04-11T10:19:04Z</time></trkpt><trkpt lat="45.03250059528984" lon="7.372373105012946"><ele>450.75</ele><time>2026-04-11T10:19:05Z</time></trkpt><trkpt lat="45.03262969216452" lon="7.3724151739049075"><ele>450.0</ele><time>2026-04-11T10:19:06Z</time></trkpt><trkpt lat="45.032739821450605" lon="7.37244068644465"><ele>449.6666666666667</ele><time>2026-04-11T10:19:07Z</time></trkpt><trkpt lat="45.03283151578599" lon="7.372463026188338"><ele>449.33333333333337</ele><time>2026-04-11T10:19:08Z</time></trkpt><trkpt lat="45.03291366225963" lon="7.372488332085982"><ele>449.0</ele><time>2026-04-11T10:19:09Z</time></trkpt><trkpt lat="45.03298038752109" lon="7.372527074513499"><ele>448.6666666666667</ele><time>2026-04-11T10:19:10Z</time></trkpt><trkpt lat="45.03306012545389" lon="7.372610799095526"><ele>448.33333333333337</ele><time>2026-04-11T10:19:11Z</time></trkpt><trkpt lat="45.033135317524575" lon="7.372683154743458"><ele>448.0</ele><time>2026-04-11T10:19:12Z</time></trkpt><trkpt lat="45.033195791342266" lon="7.372725973714745"><ele>448.00000000000006</ele><time>2026-04-11T10:19:13Z</time></trkpt><trkpt lat="45.0332630633846" lon="7.372757069492797"><ele>448.0</ele><time>2026-04-11T10:19:14Z</time></trkpt><trkpt lat="45.03332553374556" lon="7.372774874057367"><ele>448.0</ele><time>2026-04-11T10:19:15Z</time></trkpt><trkpt lat="45.03339890063897" lon="7.372779985358479"><ele>448.0</ele><time>2026-04-11T10:19:16Z</time></trkpt><trkpt lat="45.03349118272044" lon="7.372768303307688"><ele>448.00000000000006</ele><time>2026-04-11T10:19:17Z</time></trkpt><trkpt lat="45.03359260618909" lon="7.372784265680404"><ele>448.0</ele><time>2026-04-11T10:19:18Z</time></trkpt><trkpt lat="45.03366602154119" lon="7.372782691105172"><ele>448.2</ele><time>2026-04-11T10:19:19Z</time></trkpt><trkpt lat="45.033745362439376" lon="7.3727976660647565"><ele>448.4</ele><time>2026-04-11T10:19:21Z</time></trkpt><trkpt lat="45.03372789342616" lon="7.373015773144914"><ele>448.59999999999997</ele><time>2026-04-11T10:19:24Z</time></trkpt><trkpt lat="45.033708935349175" lon="7.3731187712081665"><ele>448.79999999999995</ele><time>2026-04-11T10:19:25Z</time></trkpt><trkpt lat="45.033679858627096" lon="7.373223600154841"><ele>449.0</ele><time>2026-04-11T10:19:26Z</time></trkpt><trkpt lat="45.033664174492095" lon="7.373317839776113"><ele>448.99999999999994</ele><time>2026-04-11T10:19:27Z</time></trkpt><trkpt lat="45.03364685195263" lon="7.3734435347210425"><ele>449.0</ele><time>2026-04-11T10:19:29Z</time></trkpt><trkpt lat="45.0336265070621" lon="7.37354162598711"><ele>449.0</ele><time>2026-04-11T10:19:32Z</time></trkpt><trkpt lat="45.03362062351635" lon="7.373660580581628"><ele>449.0</ele><time>2026-04-11T10:20:22Z</time></trkpt><trkpt lat="45.033573436342515" lon="7.373778398688473"><ele>448.99999999999994</ele><time>2026-04-11T10:20:23Z</time></trkpt><trkpt lat="45.03352617704006" lon="7.373897870507574"><ele>449.0</ele><time>2026-04-11T10:20:24Z</time></trkpt><trkpt lat="45.03348804954333" lon="7.3740046803141714"><ele>450.25</ele><time>2026-04-11T10:20:25Z</time></trkpt><trkpt lat="45.03344458255317" lon="7.374143324874992"><ele>451.5</ele><time>2026-04-11T10:20:27Z</time></trkpt><trkpt lat="45.033397933783995" lon="7.374300390359162"><ele>452.75</ele><time>2026-04-11T10:20:29Z</time></trkpt><trkpt lat="45.03335072605538" lon="7.374489898397343"><ele>454.0</ele><time>2026-04-11T10:20:30Z</time></trkpt><trkpt lat="45.03332282925131" lon="7.374652833504298"><ele>453.33333333333337</ele><time>2026-04-11T10:20:31Z</time></trkpt><trkpt lat="45.033314709000315" lon="7.374798994420608"><ele>452.6666666666667</ele><time>2026-04-11T10:20:32Z</time></trkpt><trkpt lat="45.03328195325168" lon="7.37494117271282"><ele>452.0</ele><time>2026-04-11T10:20:33Z</time></trkpt><trkpt lat="45.033257236466476" lon="7.375047838877974"><ele>451.33333333333337</ele><time>2026-04-11T10:20:34Z</time></trkpt><trkpt lat="45.033229754897455" lon="7.375141691359954"><ele>450.6666666666667</ele><time>2026-04-11T10:20:35Z</time></trkpt><trkpt lat="45.03319040898629" lon="7.37521773622871"><ele>450.0</ele><time>2026-04-11T10:20:36Z</time></trkpt><trkpt lat="45.03313666670259" lon="7.375335740573271"><ele>450.0</ele><time>2026-04-11T10:20:37Z</time></trkpt><trkpt lat="45.03307294053381" lon="7.375457735154297"><ele>450.0</ele><time>2026-04-11T10:20:38Z</time></trkpt><trkpt lat="45.03303244244873" lon="7.375551185659289"><ele>450.0</ele><time>2026-04-11T10:20:39Z</time></trkpt><trkpt lat="45.03301167053565" lon="7.375645251242018"><ele>450.0</ele><time>2026-04-11T10:20:40Z</time></trkpt><trkpt lat="45.0329615429813" lon="7.375730430225401"><ele>450.0</ele><time>2026-04-11T10:20:42Z</time></trkpt><trkpt lat="45.03292434180705" lon="7.375815839032219"><ele>450.0</ele><time>2026-04-11T10:20:44Z</time></trkpt><trkpt lat="45.03290509992748" lon="7.375903975683789"><ele>450.25</ele><time>2026-04-11T10:20:45Z</time></trkpt><trkpt lat="45.03281141551241" lon="7.37597755332364"><ele>450.5</ele><time>2026-04-11T10:20:46Z</time></trkpt><trkpt lat="45.03271881655577" lon="7.376113710956169"><ele>450.75</ele><time>2026-04-11T10:20:47Z</time></trkpt><trkpt lat="45.03262337344438" lon="7.376268628961778"><ele>451.0</ele><time>2026-04-11T10:20:48Z</time></trkpt><trkpt lat="45.032540202191434" lon="7.37640645490391"><ele>451.0</ele><time>2026-04-11T10:20:49Z</time></trkpt><trkpt lat="45.03247761777472" lon="7.376558314978882"><ele>451.0</ele><time>2026-04-11T10:20:50Z</time></trkpt><trkpt lat="45.03239217609248" lon="7.376685376750986"><ele>451.0</ele><time>2026-04-11T10:20:51Z</time></trkpt><trkpt lat="45.03231491595517" lon="7.376824405899414"><ele>451.0</ele><time>2026-04-11T10:20:52Z</time></trkpt><trkpt lat="45.03223523808593" lon="7.376983974452854"><ele>449.75</ele><time>2026-04-11T10:20:53Z</time></trkpt><trkpt lat="45.03214513894624" lon="7.377147094392369"><ele>448.5</ele><time>2026-04-11T10:20:54Z</time></trkpt><trkpt lat="45.032055437664155" lon="7.377305982835461"><ele>447.25</ele><time>2026-04-11T10:20:55Z</time></trkpt><trkpt lat="45.03196924839652" lon="7.377458495076958"><ele>446.0</ele><time>2026-04-11T10:20:56Z</time></trkpt><trkpt lat="45.03188475336628" lon="7.3776038495053475"><ele>446.0</ele><time>2026-04-11T10:20:57Z</time></trkpt><trkpt lat="45.03180279394776" lon="7.377745433724892"><ele>446.0</ele><time>2026-04-11T10:20:58Z</time></trkpt><trkpt lat="45.03172295758449" lon="7.377891063074465"><ele>446.0</ele><time>2026-04-11T10:20:59Z</time></trkpt><trkpt lat="45.031633546909795" lon="7.378049548800947"><ele>446.0</ele><time>2026-04-11T10:21:00Z</time></trkpt><trkpt lat="45.03155578921424" lon="7.378185165691919"><ele>444.5</ele><time>2026-04-11T10:21:01Z</time></trkpt><trkpt lat="45.03148973140756" lon="7.378314042422514"><ele>443.0</ele><time>2026-04-11T10:21:02Z</time></trkpt><trkpt lat="45.031442247516395" lon="7.37845054669003"><ele>441.5</ele><time>2026-04-11T10:21:03Z</time></trkpt><trkpt lat="45.0313967231153" lon="7.378596183341253"><ele>440.0</ele><time>2026-04-11T10:21:04Z</time></trkpt><trkpt lat="45.03135124281896" lon="7.378749783560314"><ele>440.4</ele><time>2026-04-11T10:21:05Z</time></trkpt><trkpt lat="45.03131490160026" lon="7.378870888955518"><ele>440.8</ele><time>2026-04-11T10:21:06Z</time></trkpt><trkpt lat="45.03128148763813" lon="7.379009909782644"><ele>441.20000000000005</ele><time>2026-04-11T10:21:07Z</time></trkpt><trkpt lat="45.03125911095415" lon="7.3791356782240305"><ele>441.6</ele><time>2026-04-11T10:21:08Z</time></trkpt><trkpt lat="45.031241675603596" lon="7.379271871380451"><ele>442.0</ele><time>2026-04-11T10:21:09Z</time></trkpt><trkpt lat="45.031220659948204" lon="7.3794015004569955"><ele>442.00000000000006</ele><time>2026-04-11T10:21:10Z</time></trkpt><trkpt lat="45.03119729202986" lon="7.379511861343523"><ele>442.0</ele><time>2026-04-11T10:21:11Z</time></trkpt><trkpt lat="45.03118316849749" lon="7.379625516657932"><ele>442.0</ele><time>2026-04-11T10:21:12Z</time></trkpt><trkpt lat="45.031121847770756" lon="7.379694713293295"><ele>442.0</ele><time>2026-04-11T10:21:13Z</time></trkpt><trkpt lat="45.03105697596455" lon="7.379781295861255"><ele>442.00000000000006</ele><time>2026-04-11T10:21:14Z</time></trkpt><trkpt lat="45.03098924236085" lon="7.379843681712745"><ele>442.0</ele><time>2026-04-11T10:21:15Z</time></trkpt><trkpt lat="45.03089993905372" lon="7.379885140657934"><ele>440.8</ele><time>2026-04-11T10:21:16Z</time></trkpt><trkpt lat="45.0307916849331" lon="7.37993031055883"><ele>439.6</ele><time>2026-04-11T10:21:17Z</time></trkpt><trkpt lat="45.030700528237254" lon="7.379979009246425"><ele>438.40000000000003</ele><time>2026-04-11T10:21:18Z</time></trkpt><trkpt lat="45.03060239464336" lon="7.379984683283585"><ele>437.20000000000005</ele><time>2026-04-11T10:21:19Z</time></trkpt><trkpt lat="45.03051214209005" lon="7.380003937029188"><ele>436.0</ele><time>2026-04-11T10:21:20Z</time></trkpt><trkpt lat="45.03042100510759" lon="7.380035879261291"><ele>436.00000000000006</ele><time>2026-04-11T10:21:21Z</time></trkpt><trkpt lat="45.03034757333274" lon="7.380037273766205"><ele>436.0</ele><time>2026-04-11T10:21:22Z</time></trkpt><trkpt lat="45.030269155457816" lon="7.380060144969093"><ele>436.0</ele><time>2026-04-11T10:21:23Z</time></trkpt><trkpt lat="45.030182001817074" lon="7.380196520650223"><ele>436.0</ele><time>2026-04-11T10:21:25Z</time></trkpt><trkpt lat="45.03017237728756" lon="7.380303687537668"><ele>436.00000000000006</ele><time>2026-04-11T10:21:26Z</time></trkpt><trkpt lat="45.030136489016556" lon="7.380415166924153"><ele>436.0</ele><time>2026-04-11T10:21:27Z</time></trkpt><trkpt lat="45.0301285105012" lon="7.3805245616429795"><ele>434.6</ele><time>2026-04-11T10:21:28Z</time></trkpt><trkpt lat="45.03009350833846" lon="7.380649096101265"><ele>433.20000000000005</ele><time>2026-04-11T10:21:29Z</time></trkpt><trkpt lat="45.03004142999839" lon="7.380768501932176"><ele>431.79999999999995</ele><time>2026-04-11T10:21:30Z</time></trkpt><trkpt lat="45.0299792255709" lon="7.3808804941299355"><ele>430.4</ele><time>2026-04-11T10:21:31Z</time></trkpt><trkpt lat="45.02991464674682" lon="7.380983304900334"><ele>429.0</ele><time>2026-04-11T10:21:32Z</time></trkpt><trkpt lat="45.029860863046075" lon="7.381074282331143"><ele>429.0</ele><time>2026-04-11T10:21:33Z</time></trkpt><trkpt lat="45.029823526084485" lon="7.381172753292337"><ele>429.0</ele><time>2026-04-11T10:21:34Z</time></trkpt><trkpt lat="45.029783356780044" lon="7.381289405845867"><ele>429.0</ele><time>2026-04-11T10:21:35Z</time></trkpt><trkpt lat="45.02973661520695" lon="7.381404479339341"><ele>429.0</ele><time>2026-04-11T10:21:36Z</time></trkpt><trkpt lat="45.02967420113286" lon="7.3815047212602405"><ele>429.0</ele><time>2026-04-11T10:21:37Z</time></trkpt><trkpt lat="45.02960933715007" lon="7.381595641216302"><ele>430.6</ele><time>2026-04-11T10:21:38Z</time></trkpt><trkpt lat="45.02955489227729" lon="7.38166412800827"><ele>432.2</ele><time>2026-04-11T10:21:39Z</time></trkpt><trkpt lat="45.02948807404935" lon="7.381759729696433"><ele>433.80000000000007</ele><time>2026-04-11T10:21:40Z</time></trkpt><trkpt lat="45.029417215181184" lon="7.381844578284162"><ele>435.40000000000003</ele><time>2026-04-11T10:21:41Z</time></trkpt><trkpt lat="45.02933270993751" lon="7.381947911692387"><ele>437.0</ele><time>2026-04-11T10:21:42Z</time></trkpt><trkpt lat="45.02925607211761" lon="7.382042631037559"><ele>437.0</ele><time>2026-04-11T10:21:43Z</time></trkpt><trkpt lat="45.029197496969864" lon="7.382134771645228"><ele>437.00000000000006</ele><time>2026-04-11T10:21:44Z</time></trkpt><trkpt lat="45.02913639254918" lon="7.382230189211158"><ele>437.00000000000006</ele><time>2026-04-11T10:21:45Z</time></trkpt><trkpt lat="45.029068918291884" lon="7.382375743312148"><ele>437.0</ele><time>2026-04-11T10:21:46Z</time></trkpt><trkpt lat="45.02902521977403" lon="7.3824859901790685"><ele>437.0</ele><time>2026-04-11T10:21:47Z</time></trkpt><trkpt lat="45.02896941442987" lon="7.382592668784063"><ele>434.99999999999994</ele><time>2026-04-11T10:21:48Z</time></trkpt><trkpt lat="45.02893566316955" lon="7.382705167102275"><ele>433.0</ele><time>2026-04-11T10:21:49Z</time></trkpt><trkpt lat="45.028916617045994" lon="7.3827960950697635"><ele>431.0</ele><time>2026-04-11T10:21:50Z</time></trkpt><trkpt lat="45.02891090550229" lon="7.382950749377572"><ele>429.0</ele><time>2026-04-11T10:21:52Z</time></trkpt><trkpt lat="45.0289131586511" lon="7.383059495154513"><ele>426.99999999999994</ele><time>2026-04-11T10:21:53Z</time></trkpt><trkpt lat="45.02892335862982" lon="7.383195430623042"><ele>425.0</ele><time>2026-04-11T10:21:54Z</time></trkpt><trkpt lat="45.02893050632502" lon="7.38330261011485"><ele>424.8</ele><time>2026-04-11T10:21:55Z</time></trkpt><trkpt lat="45.02897934137018" lon="7.383424550957522"><ele>424.6</ele><time>2026-04-11T10:21:57Z</time></trkpt><trkpt lat="45.029027457957504" lon="7.383483263639764"><ele>424.4</ele><time>2026-04-11T10:21:58Z</time></trkpt><trkpt lat="45.02908553466084" lon="7.383547169125939"><ele>424.2</ele><time>2026-04-11T10:21:59Z</time></trkpt><trkpt lat="45.02917891237351" lon="7.383626836758172"><ele>424.0</ele><time>2026-04-11T10:22:01Z</time></trkpt><trkpt lat="45.02922473126609" lon="7.383769819628161"><ele>425.50000000000006</ele><time>2026-04-11T10:22:03Z</time></trkpt><trkpt lat="45.029206814819695" lon="7.38387180209465"><ele>427.0</ele><time>2026-04-11T10:22:04Z</time></trkpt><trkpt lat="45.029190473953115" lon="7.383977468286601"><ele>428.5</ele><time>2026-04-11T10:22:05Z</time></trkpt><trkpt lat="45.02919722594355" lon="7.3841087131088035"><ele>430.0</ele><time>2026-04-11T10:22:07Z</time></trkpt><trkpt lat="45.029226480633945" lon="7.384234078876357"><ele>431.50000000000006</ele><time>2026-04-11T10:22:09Z</time></trkpt><trkpt lat="45.02925208252706" lon="7.384339438382853"><ele>433.0</ele><time>2026-04-11T10:22:11Z</time></trkpt><trkpt lat="45.029330810454134" lon="7.384494382260734"><ele>433.00000000000006</ele><time>2026-04-11T10:22:13Z</time></trkpt><trkpt lat="45.02938342529226" lon="7.384575608893356"><ele>433.0</ele><time>2026-04-11T10:22:14Z</time></trkpt><trkpt lat="45.02943016423673" lon="7.384667080165315"><ele>433.0</ele><time>2026-04-11T10:22:15Z</time></trkpt><trkpt lat="45.029469104906546" lon="7.384757776226553"><ele>433.0</ele><time>2026-04-11T10:22:16Z</time></trkpt><trkpt lat="45.02951066783812" lon="7.384866151834466"><ele>433.00000000000006</ele><time>2026-04-11T10:22:17Z</time></trkpt><trkpt lat="45.02954720672048" lon="7.384989732784474"><ele>433.0</ele><time>2026-04-11T10:22:18Z</time></trkpt><trkpt lat="45.029578592103256" lon="7.385127152446654"><ele>432.0</ele><time>2026-04-11T10:22:19Z</time></trkpt><trkpt lat="45.02960217312522" lon="7.385268509068761"><ele>430.99999999999994</ele><time>2026-04-11T10:22:20Z</time></trkpt><trkpt lat="45.02962080738479" lon="7.385400008998916"><ele>429.99999999999994</ele><time>2026-04-11T10:22:21Z</time></trkpt><trkpt lat="45.029644118614385" lon="7.385533667079616"><ele>429.0</ele><time>2026-04-11T10:22:22Z</time></trkpt><trkpt lat="45.02966792139665" lon="7.385672117289625"><ele>428.0</ele><time>2026-04-11T10:22:23Z</time></trkpt><trkpt lat="45.02968549697419" lon="7.385787528104801"><ele>427.59999999999997</ele><time>2026-04-11T10:22:24Z</time></trkpt><trkpt lat="45.029699422862386" lon="7.385875440267773"><ele>427.19999999999993</ele><time>2026-04-11T10:22:25Z</time></trkpt><trkpt lat="45.029728216388264" lon="7.385983302234855"><ele>426.8</ele><time>2026-04-11T10:22:27Z</time></trkpt><trkpt lat="45.029867684950005" lon="7.385985925455328"><ele>426.4</ele><time>2026-04-11T10:22:30Z</time></trkpt><trkpt lat="45.02999112597696" lon="7.385957203629425"><ele>426.0</ele><time>2026-04-11T10:22:32Z</time></trkpt><trkpt lat="45.030060727455556" lon="7.385941814357311"><ele>428.0</ele><time>2026-04-11T10:22:33Z</time></trkpt><trkpt lat="45.03014173850267" lon="7.385925647342345"><ele>430.0</ele><time>2026-04-11T10:22:34Z</time></trkpt><trkpt lat="45.030226237873926" lon="7.385909791387779"><ele>432.0</ele><time>2026-04-11T10:22:35Z</time></trkpt><trkpt lat="45.03030879565086" lon="7.385896512973817"><ele>434.0</ele><time>2026-04-11T10:22:36Z</time></trkpt><trkpt lat="45.03039225604529" lon="7.385884694965962"><ele>436.0</ele><time>2026-04-11T10:22:37Z</time></trkpt><trkpt lat="45.030464613814075" lon="7.385885208993324"><ele>438.0</ele><time>2026-04-11T10:22:38Z</time></trkpt><trkpt lat="45.03053280863803" lon="7.385896765159235"><ele>438.0</ele><time>2026-04-11T10:22:39Z</time></trkpt><trkpt lat="45.030609929110305" lon="7.385915287881913"><ele>437.99999999999994</ele><time>2026-04-11T10:22:40Z</time></trkpt><trkpt lat="45.03069829740045" lon="7.385921677413153"><ele>437.99999999999994</ele><time>2026-04-11T10:22:41Z</time></trkpt><trkpt lat="45.030816978063115" lon="7.385870989967869"><ele>438.0</ele><time>2026-04-11T10:22:42Z</time></trkpt><trkpt lat="45.03093805685822" lon="7.385803952748911"><ele>438.0</ele><time>2026-04-11T10:22:43Z</time></trkpt><trkpt lat="45.03104912641821" lon="7.385762530011958"><ele>439.79999999999995</ele><time>2026-04-11T10:22:44Z</time></trkpt><trkpt lat="45.03116243976481" lon="7.385738157749779"><ele>441.59999999999997</ele><time>2026-04-11T10:22:45Z</time></trkpt><trkpt lat="45.031278289732654" lon="7.385720160939678"><ele>443.40000000000003</ele><time>2026-04-11T10:22:46Z</time></trkpt><trkpt lat="45.03139003686385" lon="7.385703456994875"><ele>445.20000000000005</ele><time>2026-04-11T10:22:47Z</time></trkpt><trkpt lat="45.03147999974132" lon="7.3856901138077165"><ele>447.0</ele><time>2026-04-11T10:22:48Z</time></trkpt><trkpt lat="45.03159913420571" lon="7.385675874464678"><ele>448.3333333333333</ele><time>2026-04-11T10:22:50Z</time></trkpt><trkpt lat="45.03171472037765" lon="7.385717973291554"><ele>449.66666666666663</ele><time>2026-04-11T10:22:52Z</time></trkpt><trkpt lat="45.03175452566435" lon="7.385814810098066"><ele>451.0</ele><time>2026-04-11T10:22:53Z</time></trkpt><trkpt lat="45.03178284896254" lon="7.385923972197502"><ele>452.3333333333333</ele><time>2026-04-11T10:22:54Z</time></trkpt><trkpt lat="45.03179621661088" lon="7.3860171663983"><ele>453.66666666666663</ele><time>2026-04-11T10:22:55Z</time></trkpt><trkpt lat="45.03177835590434" lon="7.386118564403672"><ele>455.0</ele><time>2026-04-11T10:22:56Z</time></trkpt><trkpt lat="45.03177126029119" lon="7.386259491790392"><ele>454.6</ele><time>2026-04-11T10:22:57Z</time></trkpt><trkpt lat="45.031761963033595" lon="7.386419535903898"><ele>454.2</ele><time>2026-04-11T10:22:58Z</time></trkpt><trkpt lat="45.03176390176377" lon="7.386582713247302"><ele>453.79999999999995</ele><time>2026-04-11T10:22:59Z</time></trkpt><trkpt lat="45.03178735742085" lon="7.386730665908381"><ele>453.4</ele><time>2026-04-11T10:23:00Z</time></trkpt><trkpt lat="45.0318211523668" lon="7.386864843942991"><ele>453.0</ele><time>2026-04-11T10:23:01Z</time></trkpt><trkpt lat="45.0318358339078" lon="7.3870131362136044"><ele>453.0</ele><time>2026-04-11T10:23:02Z</time></trkpt><trkpt lat="45.03184947160281" lon="7.387166143809802"><ele>453.0</ele><time>2026-04-11T10:23:03Z</time></trkpt><trkpt lat="45.03184161226525" lon="7.3873284285472485"><ele>453.0</ele><time>2026-04-11T10:23:04Z</time></trkpt><trkpt lat="45.03181851999685" lon="7.387495168353642"><ele>453.0</ele><time>2026-04-11T10:23:05Z</time></trkpt><trkpt lat="45.03179911098984" lon="7.387664595273339"><ele>452.6666666666667</ele><time>2026-04-11T10:23:06Z</time></trkpt><trkpt lat="45.03177362416924" lon="7.387806535329656"><ele>452.33333333333337</ele><time>2026-04-11T10:23:07Z</time></trkpt><trkpt lat="45.031754420327985" lon="7.3879347508572675"><ele>452.0</ele><time>2026-04-11T10:23:08Z</time></trkpt><trkpt lat="45.03173791201565" lon="7.388047122316573"><ele>451.6666666666667</ele><time>2026-04-11T10:23:09Z</time></trkpt><trkpt lat="45.03173431759257" lon="7.3881505766204745"><ele>451.33333333333337</ele><time>2026-04-11T10:23:10Z</time></trkpt><trkpt lat="45.031762638966775" lon="7.388240017736814"><ele>451.0</ele><time>2026-04-11T10:23:11Z</time></trkpt><trkpt lat="45.03180137041834" lon="7.38832809851362"><ele>451.0</ele><time>2026-04-11T10:23:12Z</time></trkpt><trkpt lat="45.03190344573742" lon="7.388379194161888"><ele>451.0</ele><time>2026-04-11T10:23:13Z</time></trkpt><trkpt lat="45.03201011104797" lon="7.388436719166883"><ele>451.0</ele><time>2026-04-11T10:23:14Z</time></trkpt><trkpt lat="45.032102460886705" lon="7.38850274256012"><ele>451.0</ele><time>2026-04-11T10:23:15Z</time></trkpt><trkpt lat="45.032189969061236" lon="7.388567659748323"><ele>451.0</ele><time>2026-04-11T10:23:16Z</time></trkpt><trkpt lat="45.032258177027146" lon="7.388620808150704"><ele>451.0</ele><time>2026-04-11T10:23:17Z</time></trkpt><trkpt lat="45.03231853067404" lon="7.388674718391985"><ele>451.0</ele><time>2026-04-11T10:23:18Z</time></trkpt><trkpt lat="45.03239964972762" lon="7.388721873951315"><ele>451.0</ele><time>2026-04-11T10:23:19Z</time></trkpt><trkpt lat="45.03249509754845" lon="7.388780871472836"><ele>451.0</ele><time>2026-04-11T10:23:20Z</time></trkpt><trkpt lat="45.03260074501075" lon="7.388852192641035"><ele>451.0</ele><time>2026-04-11T10:23:21Z</time></trkpt><trkpt lat="45.032702252076426" lon="7.388929553348352"><ele>453.4</ele><time>2026-04-11T10:23:22Z</time></trkpt><trkpt lat="45.03279958736484" lon="7.389007644716802"><ele>455.8</ele><time>2026-04-11T10:23:23Z</time></trkpt><trkpt lat="45.03289514546053" lon="7.38906942342634"><ele>458.19999999999993</ele><time>2026-04-11T10:23:24Z</time></trkpt><trkpt lat="45.032978765739095" lon="7.389122430178133"><ele>460.59999999999997</ele><time>2026-04-11T10:23:25Z</time></trkpt><trkpt lat="45.0330687680053" lon="7.3891637761372095"><ele>463.0</ele><time>2026-04-11T10:23:26Z</time></trkpt><trkpt lat="45.033158524455544" lon="7.389225765493949"><ele>463.0</ele><time>2026-04-11T10:23:27Z</time></trkpt><trkpt lat="45.033268258015106" lon="7.389237636344021"><ele>463.0</ele><time>2026-04-11T10:23:28Z</time></trkpt><trkpt lat="45.033385603457184" lon="7.389200983109043"><ele>463.0</ele><time>2026-04-11T10:23:29Z</time></trkpt><trkpt lat="45.03350471604284" lon="7.389136997056165"><ele>463.0</ele><time>2026-04-11T10:23:30Z</time></trkpt><trkpt lat="45.03364801600676" lon="7.389026145862225"><ele>464.0</ele><time>2026-04-11T10:23:31Z</time></trkpt><trkpt lat="45.03381125234154" lon="7.388870617579388"><ele>465.0</ele><time>2026-04-11T10:23:32Z</time></trkpt><trkpt lat="45.03392385091862" lon="7.388741028499748"><ele>466.0</ele><time>2026-04-11T10:23:33Z</time></trkpt><trkpt lat="45.03402793597393" lon="7.3885927015167825"><ele>466.6666666666667</ele><time>2026-04-11T10:23:34Z</time></trkpt><trkpt lat="45.034119024583276" lon="7.3884472691802525"><ele>467.33333333333337</ele><time>2026-04-11T10:23:35Z</time></trkpt><trkpt lat="45.03422350145108" lon="7.388275454946742"><ele>468.0</ele><time>2026-04-11T10:23:36Z</time></trkpt><trkpt lat="45.03432450055581" lon="7.388098537886532"><ele>467.0</ele><time>2026-04-11T10:23:37Z</time></trkpt><trkpt lat="45.03441567986953" lon="7.3879429086111905"><ele>466.0</ele><time>2026-04-11T10:23:38Z</time></trkpt><trkpt lat="45.03450818703826" lon="7.3878191227407575"><ele>465.0</ele><time>2026-04-11T10:23:39Z</time></trkpt><trkpt lat="45.034593163325" lon="7.387718553009235"><ele>464.0</ele><time>2026-04-11T10:23:40Z</time></trkpt><trkpt lat="45.034693889022016" lon="7.387628224655318"><ele>464.0</ele><time>2026-04-11T10:23:41Z</time></trkpt><trkpt lat="45.03482236507896" lon="7.387543039323165"><ele>464.0</ele><time>2026-04-11T10:23:42Z</time></trkpt><trkpt lat="45.034955836519686" lon="7.387478592618818"><ele>464.0</ele><time>2026-04-11T10:23:43Z</time></trkpt><trkpt lat="45.03505356818712" lon="7.387426233240082"><ele>464.0</ele><time>2026-04-11T10:23:44Z</time></trkpt><trkpt lat="45.035132754843815" lon="7.387370842703242"><ele>459.75</ele><time>2026-04-11T10:23:45Z</time></trkpt><trkpt lat="45.03521693860066" lon="7.387290216214788"><ele>455.5</ele><time>2026-04-11T10:23:46Z</time></trkpt><trkpt lat="45.0353024672863" lon="7.387177312009997"><ele>451.25</ele><time>2026-04-11T10:23:47Z</time></trkpt><trkpt lat="45.03538274249261" lon="7.387037630338533"><ele>447.0</ele><time>2026-04-11T10:23:48Z</time></trkpt><trkpt lat="45.035452541154534" lon="7.386881997098062"><ele>447.0</ele><time>2026-04-11T10:23:49Z</time></trkpt><trkpt lat="45.035511841213975" lon="7.38672568208118"><ele>447.00000000000006</ele><time>2026-04-11T10:23:50Z</time></trkpt><trkpt lat="45.035559868095795" lon="7.386584218657722"><ele>447.00000000000006</ele><time>2026-04-11T10:23:51Z</time></trkpt><trkpt lat="45.03560710183779" lon="7.386459491271515"><ele>447.0</ele><time>2026-04-11T10:23:52Z</time></trkpt><trkpt lat="45.035660704122954" lon="7.386341022135142"><ele>447.0</ele><time>2026-04-11T10:23:53Z</time></trkpt><trkpt lat="45.03571371298256" lon="7.386258839945922"><ele>446.8</ele><time>2026-04-11T10:23:54Z</time></trkpt><trkpt lat="45.035783030705126" lon="7.386188174480906"><ele>446.6</ele><time>2026-04-11T10:23:55Z</time></trkpt><trkpt lat="45.03587635531216" lon="7.386147656002254"><ele>446.40000000000003</ele><time>2026-04-11T10:23:56Z</time></trkpt><trkpt lat="45.035989018255975" lon="7.386154140892465"><ele>446.20000000000005</ele><time>2026-04-11T10:23:57Z</time></trkpt><trkpt lat="45.036108422565626" lon="7.386172844156754"><ele>446.0</ele><time>2026-04-11T10:23:58Z</time></trkpt><trkpt lat="45.03622028051054" lon="7.386185959708821"><ele>446.0</ele><time>2026-04-11T10:23:59Z</time></trkpt><trkpt lat="45.0363038988684" lon="7.386241256942942"><ele>446.0</ele><time>2026-04-11T10:24:00Z</time></trkpt><trkpt lat="45.036375278387595" lon="7.386339327398957"><ele>446.0</ele><time>2026-04-11T10:24:01Z</time></trkpt><trkpt lat="45.036433944054686" lon="7.386474283879174"><ele>446.0</ele><time>2026-04-11T10:24:02Z</time></trkpt><trkpt lat="45.03648740979187" lon="7.386593243262372"><ele>446.0</ele><time>2026-04-11T10:24:03Z</time></trkpt><trkpt lat="45.03653499479507" lon="7.386684340739941"><ele>445.0</ele><time>2026-04-11T10:24:04Z</time></trkpt><trkpt lat="45.036606780100236" lon="7.386786610002988"><ele>444.0</ele><time>2026-04-11T10:24:06Z</time></trkpt><trkpt lat="45.03667821677805" lon="7.38693717467139"><ele>443.0</ele><time>2026-04-11T10:24:08Z</time></trkpt><trkpt lat="45.03670299914844" lon="7.387033184468916"><ele>442.0</ele><time>2026-04-11T10:24:09Z</time></trkpt><trkpt lat="45.03666691686379" lon="7.387141476496346"><ele>441.0</ele><time>2026-04-11T10:24:10Z</time></trkpt><trkpt lat="45.036641125970014" lon="7.3872485875097205"><ele>441.0</ele><time>2026-04-11T10:24:11Z</time></trkpt><trkpt lat="45.03661962909543" lon="7.3873664507118795"><ele>441.0</ele><time>2026-04-11T10:24:13Z</time></trkpt><trkpt lat="45.03682248099477" lon="7.3873079914178845"><ele>441.0</ele><time>2026-04-11T10:24:19Z</time></trkpt><trkpt lat="45.036912451248476" lon="7.3872254205625465"><ele>441.0</ele><time>2026-04-11T10:24:20Z</time></trkpt><trkpt lat="45.03699887350681" lon="7.387144165578411"><ele>441.0</ele><time>2026-04-11T10:24:21Z</time></trkpt><trkpt lat="45.03710373156584" lon="7.3870519534357575"><ele>441.0</ele><time>2026-04-11T10:24:22Z</time></trkpt><trkpt lat="45.037229011060205" lon="7.386945111049531"><ele>441.0</ele><time>2026-04-11T10:24:23Z</time></trkpt><trkpt lat="45.03735928625508" lon="7.386828120207239"><ele>441.0</ele><time>2026-04-11T10:24:24Z</time></trkpt><trkpt lat="45.03749278877193" lon="7.386700612160121"><ele>440.0</ele><time>2026-04-11T10:24:25Z</time></trkpt><trkpt lat="45.037654996768104" lon="7.3865655272414354"><ele>439.0</ele><time>2026-04-11T10:24:26Z</time></trkpt><trkpt lat="45.037840967273404" lon="7.386406493874149"><ele>438.0</ele><time>2026-04-11T10:24:27Z</time></trkpt><trkpt lat="45.038043711620915" lon="7.386227687431891"><ele>439.0</ele><time>2026-04-11T10:24:28Z</time></trkpt><trkpt lat="45.03822696949162" lon="7.3860711709553835"><ele>440.0</ele><time>2026-04-11T10:24:29Z</time></trkpt><trkpt lat="45.0384639507438" lon="7.3858803248444085"><ele>440.0</ele><time>2026-04-11T10:24:30Z</time></trkpt><trkpt lat="45.03857227994681" lon="7.385729280038465"><ele>440.0</ele><time>2026-04-11T10:24:32Z</time></trkpt><trkpt lat="45.03868196009502" lon="7.385599820303765"><ele>440.0</ele><time>2026-04-11T10:24:33Z</time></trkpt><trkpt lat="45.03877862394722" lon="7.385468853425364"><ele>440.0</ele><time>2026-04-11T10:24:34Z</time></trkpt><trkpt lat="45.03887047860916" lon="7.385314865722824"><ele>440.5</ele><time>2026-04-11T10:24:35Z</time></trkpt><trkpt lat="45.03895123710904" lon="7.385156077903434"><ele>441.0</ele><time>2026-04-11T10:24:36Z</time></trkpt><trkpt lat="45.03901911170712" lon="7.384986236852957"><ele>441.5</ele><time>2026-04-11T10:24:37Z</time></trkpt><trkpt lat="45.03908720366756" lon="7.384794744667198"><ele>442.0</ele><time>2026-04-11T10:24:38Z</time></trkpt><trkpt lat="45.03914621382927" lon="7.384604220897767"><ele>442.75</ele><time>2026-04-11T10:24:39Z</time></trkpt><trkpt lat="45.039205895991486" lon="7.3844194308164885"><ele>443.5</ele><time>2026-04-11T10:24:40Z</time></trkpt><trkpt lat="45.03925938941171" lon="7.384269043220226"><ele>444.25</ele><time>2026-04-11T10:24:41Z</time></trkpt><trkpt lat="45.039302450335484" lon="7.384135326477037"><ele>445.0</ele><time>2026-04-11T10:24:42Z</time></trkpt><trkpt lat="45.039338794133876" lon="7.384024146097688"><ele>445.0</ele><time>2026-04-11T10:24:43Z</time></trkpt><trkpt lat="45.039411202628436" lon="7.3839642989629155"><ele>445.0</ele><time>2026-04-11T10:24:45Z</time></trkpt><trkpt lat="45.03945702107433" lon="7.384112672838897"><ele>445.0</ele><time>2026-04-11T10:24:47Z</time></trkpt><trkpt lat="45.03951135300836" lon="7.384169793849663"><ele>445.0</ele><time>2026-04-11T10:24:48Z</time></trkpt><trkpt lat="45.03957335105434" lon="7.384203510537127"><ele>445.0</ele><time>2026-04-11T10:24:49Z</time></trkpt><trkpt lat="45.03972203830213" lon="7.3842009995792415"><ele>445.0</ele><time>2026-04-11T10:24:51Z</time></trkpt><trkpt lat="45.03982066677865" lon="7.384158384946693"><ele>445.0</ele><time>2026-04-11T10:24:52Z</time></trkpt><trkpt lat="45.03993138470229" lon="7.384123778431988"><ele>445.0</ele><time>2026-04-11T10:24:53Z</time></trkpt><trkpt lat="45.04006086478327" lon="7.384118012755609"><ele>445.0</ele><time>2026-04-11T10:24:54Z</time></trkpt><trkpt lat="45.04020358419317" lon="7.384054385078993"><ele>447.33333333333337</ele><time>2026-04-11T10:24:55Z</time></trkpt><trkpt lat="45.040322021438456" lon="7.383985351487144"><ele>449.66666666666663</ele><time>2026-04-11T10:24:56Z</time></trkpt><trkpt lat="45.0405499083048" lon="7.383850044712659"><ele>452.0</ele><time>2026-04-11T10:24:58Z</time></trkpt><trkpt lat="45.04066427252902" lon="7.383790049330255"><ele>452.0</ele><time>2026-04-11T10:24:59Z</time></trkpt><trkpt lat="45.04077641201648" lon="7.3837059464579315"><ele>452.0</ele><time>2026-04-11T10:25:00Z</time></trkpt><trkpt lat="45.04087768170236" lon="7.3836165742247495"><ele>452.0</ele><time>2026-04-11T10:25:01Z</time></trkpt><trkpt lat="45.040970817222316" lon="7.383540949333239"><ele>452.0</ele><time>2026-04-11T10:25:02Z</time></trkpt><trkpt lat="45.04106533595596" lon="7.383473002667849"><ele>452.6</ele><time>2026-04-11T10:25:03Z</time></trkpt><trkpt lat="45.04115519596385" lon="7.383401874576749"><ele>453.20000000000005</ele><time>2026-04-11T10:25:04Z</time></trkpt><trkpt lat="45.04123836046533" lon="7.383326971138412"><ele>453.8</ele><time>2026-04-11T10:25:05Z</time></trkpt><trkpt lat="45.04132566068862" lon="7.383248161264498"><ele>454.4</ele><time>2026-04-11T10:25:06Z</time></trkpt><trkpt lat="45.04141608064563" lon="7.38317325817308"><ele>455.0</ele><time>2026-04-11T10:25:07Z</time></trkpt><trkpt lat="45.04151401944481" lon="7.383091857372965"><ele>456.2</ele><time>2026-04-11T10:25:08Z</time></trkpt><trkpt lat="45.0416203308102" lon="7.382996040195096"><ele>457.4</ele><time>2026-04-11T10:25:09Z</time></trkpt><trkpt lat="45.041718004495" lon="7.382906675309632"><ele>458.6</ele><time>2026-04-11T10:25:10Z</time></trkpt><trkpt lat="45.041817076067204" lon="7.38285901751683"><ele>459.8</ele><time>2026-04-11T10:25:11Z</time></trkpt><trkpt lat="45.04190237844095" lon="7.382813174654776"><ele>461.0</ele><time>2026-04-11T10:25:12Z</time></trkpt><trkpt lat="45.04197748506883" lon="7.382776730549103"><ele>461.0</ele><time>2026-04-11T10:25:13Z</time></trkpt><trkpt lat="45.04206613728958" lon="7.382733713836272"><ele>461.0</ele><time>2026-04-11T10:25:14Z</time></trkpt><trkpt lat="45.042143774831246" lon="7.382696041692514"><ele>461.0</ele><time>2026-04-11T10:25:15Z</time></trkpt><trkpt lat="45.04224064194273" lon="7.382646429604739"><ele>461.0</ele><time>2026-04-11T10:25:17Z</time></trkpt><trkpt lat="45.04235398807415" lon="7.382770798453652"><ele>461.0</ele><time>2026-04-11T10:25:20Z</time></trkpt><trkpt lat="45.042439627972875" lon="7.382891751854495"><ele>462.4</ele><time>2026-04-11T10:25:21Z</time></trkpt><trkpt lat="45.042506913147534" lon="7.383013864445988"><ele>463.8</ele><time>2026-04-11T10:25:22Z</time></trkpt><trkpt lat="45.04255055648981" lon="7.383131826580226"><ele>465.19999999999993</ele><time>2026-04-11T10:25:23Z</time></trkpt><trkpt lat="45.04257789394633" lon="7.383219754632405"><ele>466.59999999999997</ele><time>2026-04-11T10:25:24Z</time></trkpt><trkpt lat="45.04262103866525" lon="7.3833627774720325"><ele>468.0</ele><time>2026-04-11T10:25:26Z</time></trkpt><trkpt lat="45.04265472805449" lon="7.38347912696055"><ele>468.0</ele><time>2026-04-11T10:25:28Z</time></trkpt><trkpt lat="45.042684530503784" lon="7.383562543675645"><ele>468.0</ele><time>2026-04-11T10:25:30Z</time></trkpt><trkpt lat="45.04295647045088" lon="7.383421659277782"><ele>468.0</ele><time>2026-04-11T10:25:31Z</time></trkpt><trkpt lat="45.04302673112425" lon="7.383359615954792"><ele>468.0</ele><time>2026-04-11T10:25:32Z</time></trkpt><trkpt lat="45.04309543814855" lon="7.3832908539931115"><ele>468.0</ele><time>2026-04-11T10:25:33Z</time></trkpt><trkpt lat="45.04315857560281" lon="7.3831693544286345"><ele>467.99999999999994</ele><time>2026-04-11T10:25:34Z</time></trkpt><trkpt lat="45.04321953588991" lon="7.383013541476007"><ele>467.99999999999994</ele><time>2026-04-11T10:25:35Z</time></trkpt><trkpt lat="45.04327767565663" lon="7.382890739202675"><ele>468.0</ele><time>2026-04-11T10:25:36Z</time></trkpt><trkpt lat="45.04334916170252" lon="7.382799860309558"><ele>468.0</ele><time>2026-04-11T10:25:37Z</time></trkpt><trkpt lat="45.043432880721284" lon="7.3827257521584855"><ele>467.25</ele><time>2026-04-11T10:25:38Z</time></trkpt><trkpt lat="45.043529947190756" lon="7.3826746743503415"><ele>466.5</ele><time>2026-04-11T10:25:39Z</time></trkpt><trkpt lat="45.04364187822329" lon="7.382622525162272"><ele>465.75</ele><time>2026-04-11T10:25:40Z</time></trkpt><trkpt lat="45.043767272857316" lon="7.382586444796875"><ele>465.0</ele><time>2026-04-11T10:25:41Z</time></trkpt><trkpt lat="45.04388963963171" lon="7.382526812982664"><ele>465.0</ele><time>2026-04-11T10:25:42Z</time></trkpt><trkpt lat="45.044012119162815" lon="7.382468434558243"><ele>465.0</ele><time>2026-04-11T10:25:43Z</time></trkpt><trkpt lat="45.04412364263334" lon="7.382422272040862"><ele>465.0</ele><time>2026-04-11T10:25:44Z</time></trkpt><trkpt lat="45.04422370899362" lon="7.382371754071799"><ele>465.0</ele><time>2026-04-11T10:25:45Z</time></trkpt><trkpt lat="45.04429977513939" lon="7.382296571927961"><ele>465.0</ele><time>2026-04-11T10:25:46Z</time></trkpt><trkpt lat="45.044377590549495" lon="7.382239753738246"><ele>464.5</ele><time>2026-04-11T10:25:47Z</time></trkpt><trkpt lat="45.04444033352122" lon="7.382184034145698"><ele>464.0</ele><time>2026-04-11T10:25:48Z</time></trkpt><trkpt lat="45.044498059107575" lon="7.382112887818775"><ele>463.5</ele><time>2026-04-11T10:25:49Z</time></trkpt><trkpt lat="45.04455013565041" lon="7.382019282767555"><ele>463.0</ele><time>2026-04-11T10:25:50Z</time></trkpt><trkpt lat="45.044586859722386" lon="7.381920172478638"><ele>462.5</ele><time>2026-04-11T10:25:51Z</time></trkpt><trkpt lat="45.04462261088998" lon="7.3818140550083085"><ele>462.0</ele><time>2026-04-11T10:25:52Z</time></trkpt><trkpt lat="45.044637259831916" lon="7.3817044575374435"><ele>464.0</ele><time>2026-04-11T10:25:53Z</time></trkpt><trkpt lat="45.04463951785894" lon="7.381585947640862"><ele>466.00000000000006</ele><time>2026-04-11T10:25:54Z</time></trkpt><trkpt lat="45.04464351862756" lon="7.381444597244265"><ele>468.00000000000006</ele><time>2026-04-11T10:25:55Z</time></trkpt><trkpt lat="45.04464289638244" lon="7.381302339547789"><ele>470.0</ele><time>2026-04-11T10:25:56Z</time></trkpt><trkpt lat="45.04465113020051" lon="7.381165821691179"><ele>472.0</ele><time>2026-04-11T10:25:57Z</time></trkpt><trkpt lat="45.04465667840119" lon="7.381031570080389"><ele>473.00000000000006</ele><time>2026-04-11T10:25:58Z</time></trkpt><trkpt lat="45.04465746910249" lon="7.380910690957948"><ele>474.0</ele><time>2026-04-11T10:25:59Z</time></trkpt><trkpt lat="45.044657827053086" lon="7.380810229029653"><ele>475.0</ele><time>2026-04-11T10:26:00Z</time></trkpt><trkpt lat="45.044663414310634" lon="7.38071426025889"><ele>476.0</ele><time>2026-04-11T10:26:01Z</time></trkpt><trkpt lat="45.04467066678864" lon="7.3805983978624425"><ele>477.00000000000006</ele><time>2026-04-11T10:26:02Z</time></trkpt><trkpt lat="45.04468916540658" lon="7.3804868297022335"><ele>478.0</ele><time>2026-04-11T10:26:03Z</time></trkpt><trkpt lat="45.044744763300464" lon="7.3804135755982765"><ele>479.0</ele><time>2026-04-11T10:26:04Z</time></trkpt><trkpt lat="45.04480201499356" lon="7.380259569108673"><ele>479.99999999999994</ele><time>2026-04-11T10:26:06Z</time></trkpt><trkpt lat="45.044829430987775" lon="7.380169390537397"><ele>480.99999999999994</ele><time>2026-04-11T10:26:07Z</time></trkpt><trkpt lat="45.044855297996854" lon="7.38008430705781"><ele>482.0</ele><time>2026-04-11T10:26:08Z</time></trkpt><trkpt lat="45.04490270371726" lon="7.3799498827666055"><ele>483.0</ele><time>2026-04-11T10:26:10Z</time></trkpt><trkpt lat="45.04495183547051" lon="7.379830027098297"><ele>483.0</ele><time>2026-04-11T10:26:12Z</time></trkpt><trkpt lat="45.045004806228505" lon="7.379728137334524"><ele>482.99999999999994</ele><time>2026-04-11T10:26:14Z</time></trkpt><trkpt lat="45.04505862793017" lon="7.379658419161151"><ele>482.99999999999994</ele><time>2026-04-11T10:26:16Z</time></trkpt><trkpt lat="45.045111099940435" lon="7.37960019029256"><ele>483.0</ele><time>2026-04-11T10:26:18Z</time></trkpt><trkpt lat="45.045149491860634" lon="7.379337572197775"><ele>483.0</ele><time>2026-04-11T10:26:21Z</time></trkpt><trkpt lat="45.045183499933074" lon="7.3791609355749035"><ele>483.6666666666667</ele><time>2026-04-11T10:26:23Z</time></trkpt><trkpt lat="45.04520752359839" lon="7.379076251094415"><ele>484.33333333333337</ele><time>2026-04-11T10:26:24Z</time></trkpt><trkpt lat="45.04523710055898" lon="7.3789936237942895"><ele>485.0</ele><time>2026-04-11T10:26:25Z</time></trkpt><trkpt lat="45.04529897312194" lon="7.378856525099199"><ele>485.6666666666667</ele><time>2026-04-11T10:26:27Z</time></trkpt><trkpt lat="45.04535416333378" lon="7.378754616055388"><ele>486.33333333333337</ele><time>2026-04-11T10:26:28Z</time></trkpt><trkpt lat="45.04541787448547" lon="7.378642902367864"><ele>487.0</ele><time>2026-04-11T10:26:29Z</time></trkpt><trkpt lat="45.045476807168676" lon="7.378539567353817"><ele>488.6</ele><time>2026-04-11T10:26:30Z</time></trkpt><trkpt lat="45.04553292620773" lon="7.378445377218645"><ele>490.20000000000005</ele><time>2026-04-11T10:26:31Z</time></trkpt><trkpt lat="45.04558368162746" lon="7.378362168567335"><ele>491.8</ele><time>2026-04-11T10:26:32Z</time></trkpt><trkpt lat="45.04564736435148" lon="7.378259875989926"><ele>493.4</ele><time>2026-04-11T10:26:34Z</time></trkpt><trkpt lat="45.04568990977304" lon="7.378113264696678"><ele>495.0</ele><time>2026-04-11T10:26:36Z</time></trkpt><trkpt lat="45.0456500697547" lon="7.377991777431041"><ele>496.0</ele><time>2026-04-11T10:26:37Z</time></trkpt><trkpt lat="45.045627198275355" lon="7.377898378437854"><ele>497.0</ele><time>2026-04-11T10:26:38Z</time></trkpt><trkpt lat="45.045637607564" lon="7.377770820513995"><ele>498.0</ele><time>2026-04-11T10:26:40Z</time></trkpt><trkpt lat="45.045739446040194" lon="7.37761220164951"><ele>499.0</ele><time>2026-04-11T10:26:42Z</time></trkpt><trkpt lat="45.04577912306676" lon="7.37751308223734"><ele>500.0</ele><time>2026-04-11T10:26:43Z</time></trkpt><trkpt lat="45.04581021003092" lon="7.3774262044322105"><ele>500.3333333333333</ele><time>2026-04-11T10:26:44Z</time></trkpt><trkpt lat="45.04584531574945" lon="7.377318614237051"><ele>500.66666666666663</ele><time>2026-04-11T10:26:45Z</time></trkpt><trkpt lat="45.045879743431655" lon="7.377205192631482"><ele>501.0</ele><time>2026-04-11T10:26:46Z</time></trkpt><trkpt lat="45.045911600614076" lon="7.377106769648676"><ele>501.33333333333337</ele><time>2026-04-11T10:26:47Z</time></trkpt><trkpt lat="45.045945610801994" lon="7.377016385361113"><ele>501.6666666666667</ele><time>2026-04-11T10:26:48Z</time></trkpt><trkpt lat="45.046014539623364" lon="7.376875373854904"><ele>502.0</ele><time>2026-04-11T10:26:50Z</time></trkpt><trkpt lat="45.046062247649424" lon="7.376797933574433"><ele>502.0</ele><time>2026-04-11T10:26:51Z</time></trkpt><trkpt lat="45.046128595855905" lon="7.376710621203194"><ele>502.00000000000006</ele><time>2026-04-11T10:26:52Z</time></trkpt><trkpt lat="45.04620749461726" lon="7.376620185845462"><ele>502.00000000000006</ele><time>2026-04-11T10:26:53Z</time></trkpt><trkpt lat="45.046287748102145" lon="7.376525725427814"><ele>502.0</ele><time>2026-04-11T10:26:54Z</time></trkpt><trkpt lat="45.04635902095382" lon="7.376438620955805"><ele>502.0</ele><time>2026-04-11T10:26:55Z</time></trkpt><trkpt lat="45.04643111316165" lon="7.37634287112976"><ele>501.25</ele><time>2026-04-11T10:26:56Z</time></trkpt><trkpt lat="45.04650774074581" lon="7.376234059682328"><ele>500.5</ele><time>2026-04-11T10:26:57Z</time></trkpt><trkpt lat="45.046571137598875" lon="7.376096754968068"><ele>499.75</ele><time>2026-04-11T10:26:58Z</time></trkpt><trkpt lat="45.046640266422344" lon="7.37596560028539"><ele>499.0</ele><time>2026-04-11T10:26:59Z</time></trkpt><trkpt lat="45.04671284938375" lon="7.375840235520062"><ele>499.79999999999995</ele><time>2026-04-11T10:27:00Z</time></trkpt><trkpt lat="45.04678172547624" lon="7.375725244697626"><ele>500.59999999999997</ele><time>2026-04-11T10:27:01Z</time></trkpt><trkpt lat="45.046850592791145" lon="7.375613370284022"><ele>501.4</ele><time>2026-04-11T10:27:02Z</time></trkpt><trkpt lat="45.04691965304749" lon="7.375503806979381"><ele>502.2</ele><time>2026-04-11T10:27:03Z</time></trkpt><trkpt lat="45.0469940120031" lon="7.3753907059087895"><ele>503.0</ele><time>2026-04-11T10:27:04Z</time></trkpt><trkpt lat="45.04706517351217" lon="7.3752810032245435"><ele>502.99999999999994</ele><time>2026-04-11T10:27:05Z</time></trkpt><trkpt lat="45.0471340858993" lon="7.375169303332702"><ele>503.0</ele><time>2026-04-11T10:27:06Z</time></trkpt><trkpt lat="45.04719461164986" lon="7.375070241949325"><ele>503.0</ele><time>2026-04-11T10:27:07Z</time></trkpt><trkpt lat="45.04724643897781" lon="7.3749897514913245"><ele>503.0</ele><time>2026-04-11T10:27:08Z</time></trkpt><trkpt lat="45.04729772552615" lon="7.374912446142877"><ele>502.99999999999994</ele><time>2026-04-11T10:27:09Z</time></trkpt><trkpt lat="45.04735924871283" lon="7.374830472289748"><ele>503.0</ele><time>2026-04-11T10:27:10Z</time></trkpt><trkpt lat="45.047434555578285" lon="7.374761518603617"><ele>503.79999999999995</ele><time>2026-04-11T10:27:11Z</time></trkpt><trkpt lat="45.04751398000347" lon="7.374701163168304"><ele>504.59999999999997</ele><time>2026-04-11T10:27:12Z</time></trkpt><trkpt lat="45.04759601494407" lon="7.374645275149557"><ele>505.40000000000003</ele><time>2026-04-11T10:27:13Z</time></trkpt><trkpt lat="45.04767557300512" lon="7.374567160712564"><ele>506.20000000000005</ele><time>2026-04-11T10:27:14Z</time></trkpt><trkpt lat="45.04776310321831" lon="7.374510511695347"><ele>507.0</ele><time>2026-04-11T10:27:15Z</time></trkpt><trkpt lat="45.04785049451767" lon="7.374460694058837"><ele>507.0</ele><time>2026-04-11T10:27:16Z</time></trkpt><trkpt lat="45.04792874128019" lon="7.374390673585148"><ele>507.00000000000006</ele><time>2026-04-11T10:27:17Z</time></trkpt><trkpt lat="45.048006106745405" lon="7.374326935131869"><ele>507.00000000000006</ele><time>2026-04-11T10:27:18Z</time></trkpt><trkpt lat="45.048090245763724" lon="7.374277353398149"><ele>507.0</ele><time>2026-04-11T10:27:19Z</time></trkpt><trkpt lat="45.04816845949004" lon="7.374212841764758"><ele>507.0</ele><time>2026-04-11T10:27:20Z</time></trkpt><trkpt lat="45.04825652767647" lon="7.374137926071248"><ele>507.1428571428571</ele><time>2026-04-11T10:27:21Z</time></trkpt><trkpt lat="45.048339900617584" lon="7.374068280724705"><ele>507.28571428571433</ele><time>2026-04-11T10:27:22Z</time></trkpt><trkpt lat="45.048401190765965" lon="7.37401702162602"><ele>507.42857142857144</ele><time>2026-04-11T10:27:23Z</time></trkpt><trkpt lat="45.04845275614993" lon="7.373962401458864"><ele>507.57142857142856</ele><time>2026-04-11T10:27:24Z</time></trkpt><trkpt lat="45.04852297563259" lon="7.373915263434611"><ele>507.71428571428567</ele><time>2026-04-11T10:27:25Z</time></trkpt><trkpt lat="45.04858271794142" lon="7.373865670584163"><ele>507.8571428571429</ele><time>2026-04-11T10:27:26Z</time></trkpt><trkpt lat="45.048636466859726" lon="7.373811700863057"><ele>508.0</ele><time>2026-04-11T10:27:27Z</time></trkpt><trkpt lat="45.04871814938603" lon="7.373716103667044"><ele>508.0</ele><time>2026-04-11T10:27:29Z</time></trkpt><trkpt lat="45.048828440810894" lon="7.373920909745665"><ele>508.0</ele><time>2026-04-11T10:27:39Z</time></trkpt><trkpt lat="45.04887872307441" lon="7.3740602425871655"><ele>508.0</ele><time>2026-04-11T10:27:40Z</time></trkpt><trkpt lat="45.04894773565786" lon="7.374185896958085"><ele>508.0</ele><time>2026-04-11T10:27:41Z</time></trkpt><trkpt lat="45.049039764969685" lon="7.374292179328755"><ele>508.25</ele><time>2026-04-11T10:27:42Z</time></trkpt><trkpt lat="45.049139088786504" lon="7.37438345952498"><ele>508.5</ele><time>2026-04-11T10:27:43Z</time></trkpt><trkpt lat="45.04925641866787" lon="7.374431920716682"><ele>508.75</ele><time>2026-04-11T10:27:44Z</time></trkpt><trkpt lat="45.0493924376329" lon="7.374448926992869"><ele>509.0</ele><time>2026-04-11T10:27:45Z</time></trkpt><trkpt lat="45.049533157703365" lon="7.374459075583353"><ele>509.0</ele><time>2026-04-11T10:27:46Z</time></trkpt><trkpt lat="45.049685330616384" lon="7.374469443394249"><ele>509.0</ele><time>2026-04-11T10:27:47Z</time></trkpt><trkpt lat="45.049840490498646" lon="7.374479277889695"><ele>509.0</ele><time>2026-04-11T10:27:48Z</time></trkpt><trkpt lat="45.04997686281402" lon="7.374498467503245"><ele>509.0</ele><time>2026-04-11T10:27:49Z</time></trkpt><trkpt lat="45.05010284284658" lon="7.37452136144303"><ele>509.5</ele><time>2026-04-11T10:27:50Z</time></trkpt><trkpt lat="45.05023561894261" lon="7.374544388687817"><ele>510.0</ele><time>2026-04-11T10:27:51Z</time></trkpt><trkpt lat="45.05037147339083" lon="7.374576155334554"><ele>510.5</ele><time>2026-04-11T10:27:52Z</time></trkpt><trkpt lat="45.05050666731992" lon="7.374620332114555"><ele>511.0</ele><time>2026-04-11T10:27:53Z</time></trkpt><trkpt lat="45.05064051408778" lon="7.374674178646274"><ele>507.5</ele><time>2026-04-11T10:27:54Z</time></trkpt><trkpt lat="45.05076653209368" lon="7.374730843448054"><ele>504.0</ele><time>2026-04-11T10:27:55Z</time></trkpt><trkpt lat="45.05089688860166" lon="7.3747841988298815"><ele>500.5</ele><time>2026-04-11T10:27:56Z</time></trkpt><trkpt lat="45.05103103806634" lon="7.374822941885293"><ele>497.0</ele><time>2026-04-11T10:27:57Z</time></trkpt><trkpt lat="45.05115855645699" lon="7.3748492865390975"><ele>496.75</ele><time>2026-04-11T10:27:58Z</time></trkpt><trkpt lat="45.05130767963769" lon="7.374810015234175"><ele>496.5</ele><time>2026-04-11T10:27:59Z</time></trkpt><trkpt lat="45.051428123156235" lon="7.374781187804728"><ele>496.25</ele><time>2026-04-11T10:28:00Z</time></trkpt><trkpt lat="45.05153699825456" lon="7.374741318220405"><ele>496.0</ele><time>2026-04-11T10:28:01Z</time></trkpt><trkpt lat="45.051647423250756" lon="7.374676152697123"><ele>496.0</ele><time>2026-04-11T10:28:02Z</time></trkpt><trkpt lat="45.05175115797312" lon="7.37458211484247"><ele>496.0</ele><time>2026-04-11T10:28:03Z</time></trkpt><trkpt lat="45.05184832970834" lon="7.374455484728005"><ele>496.0</ele><time>2026-04-11T10:28:04Z</time></trkpt><trkpt lat="45.05193236694984" lon="7.374303872528193"><ele>496.0</ele><time>2026-04-11T10:28:05Z</time></trkpt><trkpt lat="45.052020332881185" lon="7.374166323382727"><ele>496.0</ele><time>2026-04-11T10:28:06Z</time></trkpt><trkpt lat="45.05213080223605" lon="7.374053927248281"><ele>496.0</ele><time>2026-04-11T10:28:07Z</time></trkpt><trkpt lat="45.05224917404087" lon="7.373970770800019"><ele>496.0</ele><time>2026-04-11T10:28:08Z</time></trkpt><trkpt lat="45.052396356582825" lon="7.373918778973349"><ele>496.0</ele><time>2026-04-11T10:28:09Z</time></trkpt><trkpt lat="45.0525573039517" lon="7.3738751849025315"><ele>494.0</ele><time>2026-04-11T10:28:10Z</time></trkpt><trkpt lat="45.05272657553788" lon="7.373834818928989"><ele>492.0</ele><time>2026-04-11T10:28:11Z</time></trkpt><trkpt lat="45.0528976167182" lon="7.373793982817125"><ele>490.0</ele><time>2026-04-11T10:28:12Z</time></trkpt><trkpt lat="45.0530708582788" lon="7.373746066374369"><ele>490.0</ele><time>2026-04-11T10:28:13Z</time></trkpt><trkpt lat="45.053230416330756" lon="7.3737000061621085"><ele>490.0</ele><time>2026-04-11T10:28:14Z</time></trkpt><trkpt lat="45.0533978809369" lon="7.373646639705658"><ele>490.0</ele><time>2026-04-11T10:28:15Z</time></trkpt><trkpt lat="45.05357139135555" lon="7.373593670150546"><ele>485.33333333333337</ele><time>2026-04-11T10:28:16Z</time></trkpt><trkpt lat="45.053741677341" lon="7.373541350883954"><ele>480.66666666666663</ele><time>2026-04-11T10:28:17Z</time></trkpt><trkpt lat="45.053900391245044" lon="7.373493278573394"><ele>476.0</ele><time>2026-04-11T10:28:18Z</time></trkpt><trkpt lat="45.05406615451462" lon="7.373446793119841"><ele>473.0</ele><time>2026-04-11T10:28:19Z</time></trkpt><trkpt lat="45.05423360857001" lon="7.373399214321985"><ele>470.0</ele><time>2026-04-11T10:28:20Z</time></trkpt><trkpt lat="45.05440444666741" lon="7.373352123433705"><ele>467.0</ele><time>2026-04-11T10:28:21Z</time></trkpt><trkpt lat="45.05457745787141" lon="7.373304664141736"><ele>467.0</ele><time>2026-04-11T10:28:22Z</time></trkpt><trkpt lat="45.05475263848465" lon="7.373253901143204"><ele>467.0</ele><time>2026-04-11T10:28:23Z</time></trkpt><trkpt lat="45.05493004155881" lon="7.373203194533872"><ele>467.0</ele><time>2026-04-11T10:28:24Z</time></trkpt><trkpt lat="45.05510608886014" lon="7.373153430242248"><ele>465.3333333333333</ele><time>2026-04-11T10:28:25Z</time></trkpt><trkpt lat="45.055270717100484" lon="7.373106700294079"><ele>463.66666666666663</ele><time>2026-04-11T10:28:26Z</time></trkpt><trkpt lat="45.05542864452861" lon="7.373060115220803"><ele>462.0</ele><time>2026-04-11T10:28:27Z</time></trkpt><trkpt lat="45.05556945274322" lon="7.373019347080291"><ele>461.75</ele><time>2026-04-11T10:28:28Z</time></trkpt><trkpt lat="45.05569521283058" lon="7.372982222799434"><ele>461.5</ele><time>2026-04-11T10:28:29Z</time></trkpt><trkpt lat="45.05581342678036" lon="7.372952293963078"><ele>461.25</ele><time>2026-04-11T10:28:30Z</time></trkpt><trkpt lat="45.05592673668853" lon="7.372928054782134"><ele>461.0</ele><time>2026-04-11T10:28:31Z</time></trkpt><trkpt lat="45.056034009073876" lon="7.372899672607511"><ele>460.0</ele><time>2026-04-11T10:28:32Z</time></trkpt><trkpt lat="45.056138331091546" lon="7.372866803064047"><ele>459.0</ele><time>2026-04-11T10:28:33Z</time></trkpt><trkpt lat="45.05624752583261" lon="7.372837045545972"><ele>458.0</ele><time>2026-04-11T10:28:34Z</time></trkpt><trkpt lat="45.05637115777048" lon="7.372799285552225"><ele>457.0</ele><time>2026-04-11T10:28:35Z</time></trkpt><trkpt lat="45.056453258004375" lon="7.372776620785378"><ele>456.0</ele><time>2026-04-11T10:28:36Z</time></trkpt><trkpt lat="45.056539093603234" lon="7.37275259034307"><ele>455.33333333333337</ele><time>2026-04-11T10:28:37Z</time></trkpt><trkpt lat="45.056625603649785" lon="7.3727283081000055"><ele>454.6666666666667</ele><time>2026-04-11T10:28:38Z</time></trkpt><trkpt lat="45.05670981012048" lon="7.372703219839798"><ele>454.0</ele><time>2026-04-11T10:28:39Z</time></trkpt><trkpt lat="45.05710328809901" lon="7.372587553669294"><ele>454.0</ele><time>2026-04-11T10:28:40Z</time></trkpt><trkpt lat="45.0572155577009" lon="7.372552666019761"><ele>454.0</ele><time>2026-04-11T10:28:41Z</time></trkpt><trkpt lat="45.05732582565753" lon="7.3725267295489765"><ele>454.0</ele><time>2026-04-11T10:28:42Z</time></trkpt><trkpt lat="45.057437696064504" lon="7.372508706668414"><ele>454.0</ele><time>2026-04-11T10:28:43Z</time></trkpt><trkpt lat="45.05755070269861" lon="7.372509240545786"><ele>452.79999999999995</ele><time>2026-04-11T10:28:44Z</time></trkpt><trkpt lat="45.057654012812364" lon="7.3725326674569605"><ele>451.59999999999997</ele><time>2026-04-11T10:28:45Z</time></trkpt><trkpt lat="45.05776360871217" lon="7.3725822851163185"><ele>450.4</ele><time>2026-04-11T10:28:46Z</time></trkpt><trkpt lat="45.05786829019927" lon="7.372645379818734"><ele>449.2</ele><time>2026-04-11T10:28:47Z</time></trkpt><trkpt lat="45.05795030666412" lon="7.372747047779858"><ele>448.0</ele><time>2026-04-11T10:28:48Z</time></trkpt><trkpt lat="45.05802969792975" lon="7.372831226476799"><ele>448.0</ele><time>2026-04-11T10:28:49Z</time></trkpt><trkpt lat="45.05811589235291" lon="7.372885084059249"><ele>447.99999999999994</ele><time>2026-04-11T10:28:50Z</time></trkpt><trkpt lat="45.058168161925245" lon="7.3729628931075855"><ele>447.99999999999994</ele><time>2026-04-11T10:28:51Z</time></trkpt><trkpt lat="45.05822013133274" lon="7.373054250748582"><ele>448.0</ele><time>2026-04-11T10:28:52Z</time></trkpt><trkpt lat="45.058272396427384" lon="7.3731722185679125"><ele>448.0</ele><time>2026-04-11T10:28:53Z</time></trkpt><trkpt lat="45.0583031713809" lon="7.373315271007895"><ele>447.0</ele><time>2026-04-11T10:28:54Z</time></trkpt><trkpt lat="45.05832254595569" lon="7.373470332270692"><ele>446.0</ele><time>2026-04-11T10:28:55Z</time></trkpt><trkpt lat="45.058331709269524" lon="7.373633195634137"><ele>445.0</ele><time>2026-04-11T10:28:56Z</time></trkpt><trkpt lat="45.058331813995096" lon="7.3737962237439705"><ele>444.0</ele><time>2026-04-11T10:28:57Z</time></trkpt><trkpt lat="45.05832058301348" lon="7.373968019238095"><ele>443.25</ele><time>2026-04-11T10:28:58Z</time></trkpt><trkpt lat="45.05829885948931" lon="7.37414030356515"><ele>442.5</ele><time>2026-04-11T10:28:59Z</time></trkpt><trkpt lat="45.058267647067915" lon="7.3743095849160865"><ele>441.75</ele><time>2026-04-11T10:29:00Z</time></trkpt><trkpt lat="45.05823692119372" lon="7.374482914563379"><ele>441.0</ele><time>2026-04-11T10:29:01Z</time></trkpt><trkpt lat="45.05818017319939" lon="7.374682816011852"><ele>443.0</ele><time>2026-04-11T10:29:02Z</time></trkpt><trkpt lat="45.058148156088144" lon="7.3748696030728"><ele>445.0</ele><time>2026-04-11T10:29:03Z</time></trkpt><trkpt lat="45.058119176515284" lon="7.3750550537908115"><ele>447.0</ele><time>2026-04-11T10:29:04Z</time></trkpt><trkpt lat="45.058090487668125" lon="7.375241127667779"><ele>449.0</ele><time>2026-04-11T10:29:05Z</time></trkpt><trkpt lat="45.058039833311554" lon="7.375420752528262"><ele>447.5</ele><time>2026-04-11T10:29:06Z</time></trkpt><trkpt lat="45.05798229094465" lon="7.375592877961273"><ele>446.0</ele><time>2026-04-11T10:29:07Z</time></trkpt><trkpt lat="45.05791575320541" lon="7.375753339071706"><ele>444.5</ele><time>2026-04-11T10:29:08Z</time></trkpt><trkpt lat="45.05784453697478" lon="7.375921484100117"><ele>443.0</ele><time>2026-04-11T10:29:09Z</time></trkpt><trkpt lat="45.05775361153675" lon="7.3760886664171235"><ele>443.0</ele><time>2026-04-11T10:29:10Z</time></trkpt><trkpt lat="45.05766664415965" lon="7.376265307296923"><ele>443.0</ele><time>2026-04-11T10:29:11Z</time></trkpt><trkpt lat="45.057579531448674" lon="7.376447581768802"><ele>443.0</ele><time>2026-04-11T10:29:12Z</time></trkpt><trkpt lat="45.05749040845888" lon="7.376622838046383"><ele>441.5</ele><time>2026-04-11T10:29:13Z</time></trkpt><trkpt lat="45.05739723364395" lon="7.376786671222932"><ele>440.0</ele><time>2026-04-11T10:29:14Z</time></trkpt><trkpt lat="45.0573178246023" lon="7.37696405192081"><ele>438.5</ele><time>2026-04-11T10:29:15Z</time></trkpt><trkpt lat="45.05723943177971" lon="7.37713939518651"><ele>437.0</ele><time>2026-04-11T10:29:16Z</time></trkpt><trkpt lat="45.05715464651525" lon="7.377307855907397"><ele>434.25</ele><time>2026-04-11T10:29:17Z</time></trkpt><trkpt lat="45.0570684165523" lon="7.377473813243974"><ele>431.5</ele><time>2026-04-11T10:29:18Z</time></trkpt><trkpt lat="45.05698445102445" lon="7.37764801743361"><ele>428.75</ele><time>2026-04-11T10:29:19Z</time></trkpt><trkpt lat="45.056909966596045" lon="7.377817722063098"><ele>426.0</ele><time>2026-04-11T10:29:20Z</time></trkpt><trkpt lat="45.05682830550971" lon="7.377986943774346"><ele>425.75</ele><time>2026-04-11T10:29:21Z</time></trkpt><trkpt lat="45.05674393376854" lon="7.378148257400082"><ele>425.5</ele><time>2026-04-11T10:29:22Z</time></trkpt><trkpt lat="45.056673272387386" lon="7.378309001692937"><ele>425.25</ele><time>2026-04-11T10:29:23Z</time></trkpt><trkpt lat="45.05659711318708" lon="7.378454268429135"><ele>425.0</ele><time>2026-04-11T10:29:24Z</time></trkpt><trkpt lat="45.0565251866818" lon="7.378603937895539"><ele>425.0</ele><time>2026-04-11T10:29:25Z</time></trkpt><trkpt lat="45.056455402926765" lon="7.378760254366594"><ele>425.0</ele><time>2026-04-11T10:29:26Z</time></trkpt><trkpt lat="45.05637757313506" lon="7.378914373424847"><ele>425.0</ele><time>2026-04-11T10:29:27Z</time></trkpt><trkpt lat="45.05630432026618" lon="7.379054612061812"><ele>425.0</ele><time>2026-04-11T10:29:28Z</time></trkpt><trkpt lat="45.05624206156516" lon="7.379211079567695"><ele>423.0</ele><time>2026-04-11T10:29:29Z</time></trkpt><trkpt lat="45.05618133248015" lon="7.37937722252628"><ele>421.0</ele><time>2026-04-11T10:29:30Z</time></trkpt><trkpt lat="45.056155871448674" lon="7.3795603813348"><ele>419.0</ele><time>2026-04-11T10:29:31Z</time></trkpt><trkpt lat="45.056143213157334" lon="7.379742302928002"><ele>417.0</ele><time>2026-04-11T10:29:32Z</time></trkpt><trkpt lat="45.056172779060965" lon="7.379898004528755"><ele>416.0</ele><time>2026-04-11T10:29:33Z</time></trkpt><trkpt lat="45.05623288908889" lon="7.380028573716537"><ele>415.0</ele><time>2026-04-11T10:29:34Z</time></trkpt><trkpt lat="45.05631877833538" lon="7.380132586070544"><ele>414.0</ele><time>2026-04-11T10:29:35Z</time></trkpt><trkpt lat="45.05641742751965" lon="7.38018945579336"><ele>413.0</ele><time>2026-04-11T10:29:36Z</time></trkpt><trkpt lat="45.05653108869735" lon="7.380196953409987"><ele>412.0</ele><time>2026-04-11T10:29:37Z</time></trkpt><trkpt lat="45.05665751091052" lon="7.380170273790033"><ele>410.33333333333337</ele><time>2026-04-11T10:29:38Z</time></trkpt><trkpt lat="45.05680164117358" lon="7.380104434130663"><ele>408.66666666666663</ele><time>2026-04-11T10:29:39Z</time></trkpt><trkpt lat="45.05694854385917" lon="7.380038045953721"><ele>407.0</ele><time>2026-04-11T10:29:40Z</time></trkpt><trkpt lat="45.0570987248179" lon="7.379981500765913"><ele>407.0</ele><time>2026-04-11T10:29:41Z</time></trkpt><trkpt lat="45.05724483000747" lon="7.379939037387512"><ele>407.0</ele><time>2026-04-11T10:29:42Z</time></trkpt><trkpt lat="45.05738477237818" lon="7.379889476617665"><ele>407.0</ele><time>2026-04-11T10:29:43Z</time></trkpt><trkpt lat="45.05753194016394" lon="7.37983511996363"><ele>407.0</ele><time>2026-04-11T10:29:44Z</time></trkpt><trkpt lat="45.05767918188226" lon="7.379781391441472"><ele>408.0</ele><time>2026-04-11T10:29:45Z</time></trkpt><trkpt lat="45.0578300112605" lon="7.379724232673798"><ele>409.0</ele><time>2026-04-11T10:29:46Z</time></trkpt><trkpt lat="45.0579741598287" lon="7.379680035848756"><ele>410.0</ele><time>2026-04-11T10:29:47Z</time></trkpt><trkpt lat="45.05811166914323" lon="7.379633005721385"><ele>411.0</ele><time>2026-04-11T10:29:48Z</time></trkpt><trkpt lat="45.05824707811465" lon="7.379587078815469"><ele>409.25</ele><time>2026-04-11T10:29:49Z</time></trkpt><trkpt lat="45.05837713075239" lon="7.379556850116853"><ele>407.5</ele><time>2026-04-11T10:29:50Z</time></trkpt><trkpt lat="45.05850759071666" lon="7.379547296676015"><ele>405.75</ele><time>2026-04-11T10:29:51Z</time></trkpt><trkpt lat="45.05863261365216" lon="7.3795816827512954"><ele>404.0</ele><time>2026-04-11T10:29:52Z</time></trkpt><trkpt lat="45.05875280223742" lon="7.379651698993021"><ele>400.25</ele><time>2026-04-11T10:29:53Z</time></trkpt><trkpt lat="45.0588586845096" lon="7.379749597229605"><ele>396.5</ele><time>2026-04-11T10:29:54Z</time></trkpt><trkpt lat="45.05893809079554" lon="7.379883174432067"><ele>392.75</ele><time>2026-04-11T10:29:55Z</time></trkpt><trkpt lat="45.058992979637814" lon="7.380035234233106"><ele>389.0</ele><time>2026-04-11T10:29:56Z</time></trkpt><trkpt lat="45.05902080889788" lon="7.380199968642505"><ele>389.0</ele><time>2026-04-11T10:29:57Z</time></trkpt><trkpt lat="45.059027262969366" lon="7.3803809367513855"><ele>389.0</ele><time>2026-04-11T10:29:58Z</time></trkpt><trkpt lat="45.05900571115337" lon="7.380560691470427"><ele>389.0</ele><time>2026-04-11T10:29:59Z</time></trkpt><trkpt lat="45.058960971598694" lon="7.380738642211343"><ele>389.0</ele><time>2026-04-11T10:30:00Z</time></trkpt><trkpt lat="45.05890075607072" lon="7.380904283683269"><ele>387.0</ele><time>2026-04-11T10:30:01Z</time></trkpt><trkpt lat="45.058825137382065" lon="7.381047653562362"><ele>385.0</ele><time>2026-04-11T10:30:02Z</time></trkpt><trkpt lat="45.05874325666102" lon="7.381179098183764"><ele>383.0</ele><time>2026-04-11T10:30:03Z</time></trkpt><trkpt lat="45.05867031486433" lon="7.381318391325348"><ele>381.0</ele><time>2026-04-11T10:30:04Z</time></trkpt><trkpt lat="45.05861638253747" lon="7.381469280461347"><ele>381.0</ele><time>2026-04-11T10:30:05Z</time></trkpt><trkpt lat="45.05857963052806" lon="7.381632898946556"><ele>381.0</ele><time>2026-04-11T10:30:06Z</time></trkpt><trkpt lat="45.058551844124075" lon="7.381810561009218"><ele>381.0</ele><time>2026-04-11T10:30:07Z</time></trkpt><trkpt lat="45.05854029564312" lon="7.381987040596034"><ele>381.0</ele><time>2026-04-11T10:30:08Z</time></trkpt><trkpt lat="45.05854368548563" lon="7.382156513844956"><ele>381.75</ele><time>2026-04-11T10:30:09Z</time></trkpt><trkpt lat="45.05855553605542" lon="7.382319984337708"><ele>382.5</ele><time>2026-04-11T10:30:10Z</time></trkpt><trkpt lat="45.058574768309526" lon="7.382481771461074"><ele>383.25</ele><time>2026-04-11T10:30:11Z</time></trkpt><trkpt lat="45.05859394496875" lon="7.382650321590412"><ele>384.0</ele><time>2026-04-11T10:30:12Z</time></trkpt><trkpt lat="45.05861419315528" lon="7.382819498118782"><ele>384.0</ele><time>2026-04-11T10:30:13Z</time></trkpt><trkpt lat="45.058627829266165" lon="7.382989349945611"><ele>384.0</ele><time>2026-04-11T10:30:14Z</time></trkpt><trkpt lat="45.05864086821951" lon="7.383162379201362"><ele>384.0</ele><time>2026-04-11T10:30:15Z</time></trkpt><trkpt lat="45.058661163847155" lon="7.383337427218759"><ele>384.0</ele><time>2026-04-11T10:30:16Z</time></trkpt><trkpt lat="45.05868523799341" lon="7.383510818756198"><ele>383.0</ele><time>2026-04-11T10:30:17Z</time></trkpt><trkpt lat="45.058711884990785" lon="7.383687768404404"><ele>382.0</ele><time>2026-04-11T10:30:18Z</time></trkpt><trkpt lat="45.058740986826045" lon="7.3838643373281805"><ele>381.0</ele><time>2026-04-11T10:30:19Z</time></trkpt><trkpt lat="45.05877026127974" lon="7.384045992223186"><ele>380.0</ele><time>2026-04-11T10:30:20Z</time></trkpt><trkpt lat="45.058799661632236" lon="7.384234058026412"><ele>378.0</ele><time>2026-04-11T10:30:21Z</time></trkpt><trkpt lat="45.05882709313121" lon="7.384420660069255"><ele>376.0</ele><time>2026-04-11T10:30:22Z</time></trkpt><trkpt lat="45.05885319810476" lon="7.3845992519582335"><ele>374.0</ele><time>2026-04-11T10:30:23Z</time></trkpt><trkpt lat="45.058879226339414" lon="7.38477628931788"><ele>372.0</ele><time>2026-04-11T10:30:24Z</time></trkpt><trkpt lat="45.05890725459449" lon="7.384952113410022"><ele>370.75</ele><time>2026-04-11T10:30:25Z</time></trkpt><trkpt lat="45.058939995874596" lon="7.385117062853627"><ele>369.5</ele><time>2026-04-11T10:30:26Z</time></trkpt><trkpt lat="45.05899830811934" lon="7.385271605267709"><ele>368.25</ele><time>2026-04-11T10:30:27Z</time></trkpt><trkpt lat="45.05906585456984" lon="7.38541821269902"><ele>367.0</ele><time>2026-04-11T10:30:28Z</time></trkpt><trkpt lat="45.059146235902574" lon="7.38556095643035"><ele>369.5</ele><time>2026-04-11T10:30:29Z</time></trkpt><trkpt lat="45.0592313609895" lon="7.385699425956557"><ele>372.0</ele><time>2026-04-11T10:30:30Z</time></trkpt><trkpt lat="45.0593204591942" lon="7.385839064983192"><ele>374.5</ele><time>2026-04-11T10:30:31Z</time></trkpt><trkpt lat="45.059399000917246" lon="7.38598301505007"><ele>377.0</ele><time>2026-04-11T10:30:32Z</time></trkpt><trkpt lat="45.05946821486925" lon="7.386133593239594"><ele>377.0</ele><time>2026-04-11T10:30:33Z</time></trkpt><trkpt lat="45.05950694058439" lon="7.386311794101218"><ele>377.0</ele><time>2026-04-11T10:30:34Z</time></trkpt><trkpt lat="45.05952775990687" lon="7.386517295568013"><ele>377.0</ele><time>2026-04-11T10:30:35Z</time></trkpt><trkpt lat="45.05953100154936" lon="7.386735000596388"><ele>377.0</ele><time>2026-04-11T10:30:36Z</time></trkpt><trkpt lat="45.059523524625504" lon="7.386935648518904"><ele>375.5</ele><time>2026-04-11T10:30:37Z</time></trkpt><trkpt lat="45.05953195122579" lon="7.387125368778731"><ele>374.0</ele><time>2026-04-11T10:30:38Z</time></trkpt><trkpt lat="45.05954876578785" lon="7.387303653895081"><ele>372.5</ele><time>2026-04-11T10:30:39Z</time></trkpt><trkpt lat="45.059576120879846" lon="7.387475101217087"><ele>371.0</ele><time>2026-04-11T10:30:40Z</time></trkpt><trkpt lat="45.05961054943953" lon="7.38763733077084"><ele>370.0</ele><time>2026-04-11T10:30:41Z</time></trkpt><trkpt lat="45.059655297968725" lon="7.387803642315698"><ele>369.0</ele><time>2026-04-11T10:30:42Z</time></trkpt><trkpt lat="45.0597158841112" lon="7.387968394493076"><ele>368.0</ele><time>2026-04-11T10:30:43Z</time></trkpt><trkpt lat="45.05978475482121" lon="7.388133041242494"><ele>367.0</ele><time>2026-04-11T10:30:44Z</time></trkpt><trkpt lat="45.05985245162934" lon="7.3882854916772205"><ele>366.75</ele><time>2026-04-11T10:30:45Z</time></trkpt><trkpt lat="45.059917929307886" lon="7.388436399923529"><ele>366.5</ele><time>2026-04-11T10:30:46Z</time></trkpt><trkpt lat="45.05999738225271" lon="7.388583472906379"><ele>366.25</ele><time>2026-04-11T10:30:47Z</time></trkpt><trkpt lat="45.06008532855914" lon="7.3887234708326535"><ele>366.0</ele><time>2026-04-11T10:30:48Z</time></trkpt><trkpt lat="45.06017516501185" lon="7.388857747806926"><ele>365.0</ele><time>2026-04-11T10:30:49Z</time></trkpt><trkpt lat="45.06025944746364" lon="7.38898661199041"><ele>364.0</ele><time>2026-04-11T10:30:50Z</time></trkpt><trkpt lat="45.060339133798934" lon="7.389114540154188"><ele>363.0</ele><time>2026-04-11T10:30:51Z</time></trkpt><trkpt lat="45.06041903313263" lon="7.389238266927329"><ele>362.0</ele><time>2026-04-11T10:30:52Z</time></trkpt><trkpt lat="45.06049694006956" lon="7.389375811340202"><ele>362.0</ele><time>2026-04-11T10:30:53Z</time></trkpt><trkpt lat="45.060579162674586" lon="7.3895101563949295"><ele>362.0</ele><time>2026-04-11T10:30:54Z</time></trkpt><trkpt lat="45.06065990211539" lon="7.389636101955676"><ele>362.0</ele><time>2026-04-11T10:30:55Z</time></trkpt><trkpt lat="45.060737392280465" lon="7.3897649851948675"><ele>362.0</ele><time>2026-04-11T10:30:56Z</time></trkpt><trkpt lat="45.06081470929438" lon="7.3898927831481345"><ele>360.5</ele><time>2026-04-11T10:30:57Z</time></trkpt><trkpt lat="45.06089378965927" lon="7.390028924382499"><ele>359.0</ele><time>2026-04-11T10:30:58Z</time></trkpt><trkpt lat="45.06097286248695" lon="7.390167346521005"><ele>357.5</ele><time>2026-04-11T10:30:59Z</time></trkpt><trkpt lat="45.06104944263454" lon="7.390313342702972"><ele>356.0</ele><time>2026-04-11T10:31:00Z</time></trkpt><trkpt lat="45.0611256050251" lon="7.390460722171566"><ele>356.0</ele><time>2026-04-11T10:31:01Z</time></trkpt><trkpt lat="45.061198775266284" lon="7.3906097748254"><ele>356.0</ele><time>2026-04-11T10:31:02Z</time></trkpt><trkpt lat="45.061273670643786" lon="7.390768676014852"><ele>356.0</ele><time>2026-04-11T10:31:03Z</time></trkpt><trkpt lat="45.061356006722185" lon="7.390932139300221"><ele>356.0</ele><time>2026-04-11T10:31:04Z</time></trkpt><trkpt lat="45.06144498189275" lon="7.391095267896191"><ele>356.0</ele><time>2026-04-11T10:31:05Z</time></trkpt><trkpt lat="45.061526240218605" lon="7.391269514514702"><ele>356.0</ele><time>2026-04-11T10:31:06Z</time></trkpt><trkpt lat="45.06161000446088" lon="7.39143624165363"><ele>356.0</ele><time>2026-04-11T10:31:07Z</time></trkpt><trkpt lat="45.06169086671936" lon="7.391605925661123"><ele>356.0</ele><time>2026-04-11T10:31:08Z</time></trkpt><trkpt lat="45.06176074334638" lon="7.391753016690612"><ele>356.20000000000005</ele><time>2026-04-11T10:31:09Z</time></trkpt><trkpt lat="45.061828552621655" lon="7.391864762222271"><ele>356.40000000000003</ele><time>2026-04-11T10:31:10Z</time></trkpt><trkpt lat="45.061876484414654" lon="7.391943310605292"><ele>356.6</ele><time>2026-04-11T10:31:11Z</time></trkpt><trkpt lat="45.06189583788271" lon="7.392029206501874"><ele>356.8</ele><time>2026-04-11T10:31:12Z</time></trkpt><trkpt lat="45.06188270841593" lon="7.392207973499955"><ele>357.0</ele><time>2026-04-11T10:31:14Z</time></trkpt><trkpt lat="45.06191712456399" lon="7.392347165504419"><ele>358.0</ele><time>2026-04-11T10:31:16Z</time></trkpt><trkpt lat="45.062010315381336" lon="7.392387083266161"><ele>359.0</ele><time>2026-04-11T10:31:18Z</time></trkpt><trkpt lat="45.062082842496245" lon="7.392381943628651"><ele>360.0</ele><time>2026-04-11T10:31:19Z</time></trkpt><trkpt lat="45.06217958490869" lon="7.392369179955534"><ele>361.0</ele><time>2026-04-11T10:31:20Z</time></trkpt><trkpt lat="45.06228759392355" lon="7.392391184856444"><ele>362.0</ele><time>2026-04-11T10:31:21Z</time></trkpt><trkpt lat="45.06240352995923" lon="7.392449200214271"><ele>360.5</ele><time>2026-04-11T10:31:22Z</time></trkpt><trkpt lat="45.06251090022741" lon="7.392515368035567"><ele>359.0</ele><time>2026-04-11T10:31:23Z</time></trkpt><trkpt lat="45.06262565997881" lon="7.392586368840789"><ele>357.5</ele><time>2026-04-11T10:31:24Z</time></trkpt><trkpt lat="45.062743252414194" lon="7.392651267882918"><ele>356.0</ele><time>2026-04-11T10:31:25Z</time></trkpt><trkpt lat="45.062855935518414" lon="7.392716201486564"><ele>356.0</ele><time>2026-04-11T10:31:26Z</time></trkpt><trkpt lat="45.062971425724214" lon="7.3927730500835755"><ele>356.0</ele><time>2026-04-11T10:31:27Z</time></trkpt><trkpt lat="45.063079549958694" lon="7.3928329205515135"><ele>356.0</ele><time>2026-04-11T10:31:28Z</time></trkpt><trkpt lat="45.063187747218834" lon="7.392892436023168"><ele>356.0</ele><time>2026-04-11T10:31:29Z</time></trkpt><trkpt lat="45.063297821538654" lon="7.392951925323364"><ele>357.0</ele><time>2026-04-11T10:31:30Z</time></trkpt><trkpt lat="45.06340738687656" lon="7.3930111687255415"><ele>358.0</ele><time>2026-04-11T10:31:31Z</time></trkpt><trkpt lat="45.063509381348254" lon="7.393062088880215"><ele>359.0</ele><time>2026-04-11T10:31:32Z</time></trkpt><trkpt lat="45.06360015392276" lon="7.393119196810278"><ele>360.0</ele><time>2026-04-11T10:31:33Z</time></trkpt><trkpt lat="45.063691994547334" lon="7.393173745317665"><ele>361.0</ele><time>2026-04-11T10:31:34Z</time></trkpt><trkpt lat="45.06379034547101" lon="7.393225423331673"><ele>361.0</ele><time>2026-04-11T10:31:35Z</time></trkpt><trkpt lat="45.06389471858407" lon="7.393279243238787"><ele>361.0</ele><time>2026-04-11T10:31:36Z</time></trkpt><trkpt lat="45.06400114828605" lon="7.3933323677187825"><ele>361.0</ele><time>2026-04-11T10:31:37Z</time></trkpt><trkpt lat="45.06412179229167" lon="7.393372324642791"><ele>361.0</ele><time>2026-04-11T10:31:38Z</time></trkpt><trkpt lat="45.064246814621335" lon="7.393393545310353"><ele>360.25</ele><time>2026-04-11T10:31:39Z</time></trkpt><trkpt lat="45.06436972265923" lon="7.393391648743542"><ele>359.5</ele><time>2026-04-11T10:31:40Z</time></trkpt><trkpt lat="45.064490067988295" lon="7.393383942431294"><ele>358.75</ele><time>2026-04-11T10:31:41Z</time></trkpt><trkpt lat="45.06461600500296" lon="7.393379553068338"><ele>358.0</ele><time>2026-04-11T10:31:42Z</time></trkpt><trkpt lat="45.064736482503626" lon="7.3933608532128385"><ele>358.0</ele><time>2026-04-11T10:31:43Z</time></trkpt><trkpt lat="45.06485129368272" lon="7.393341775380039"><ele>358.0</ele><time>2026-04-11T10:31:44Z</time></trkpt><trkpt lat="45.06495174358116" lon="7.393329309772967"><ele>358.0</ele><time>2026-04-11T10:31:45Z</time></trkpt><trkpt lat="45.06504192213361" lon="7.393317952511547"><ele>358.0</ele><time>2026-04-11T10:31:46Z</time></trkpt><trkpt lat="45.06512333347784" lon="7.393302762138057"><ele>358.0</ele><time>2026-04-11T10:31:47Z</time></trkpt><trkpt lat="45.065203946757364" lon="7.393291136519565"><ele>357.59999999999997</ele><time>2026-04-11T10:31:48Z</time></trkpt><trkpt lat="45.06529747215013" lon="7.393276466038146"><ele>357.2</ele><time>2026-04-11T10:31:49Z</time></trkpt><trkpt lat="45.06539456182705" lon="7.393257167374004"><ele>356.8</ele><time>2026-04-11T10:31:50Z</time></trkpt><trkpt lat="45.06549283918325" lon="7.393243085515484"><ele>356.4</ele><time>2026-04-11T10:31:51Z</time></trkpt><trkpt lat="45.06559165817644" lon="7.3932264017550535"><ele>356.0</ele><time>2026-04-11T10:31:52Z</time></trkpt><trkpt lat="45.06569232306292" lon="7.393211009627376"><ele>356.4</ele><time>2026-04-11T10:31:53Z</time></trkpt><trkpt lat="45.06579078042589" lon="7.393197645899689"><ele>356.8</ele><time>2026-04-11T10:31:54Z</time></trkpt><trkpt lat="45.065892533429306" lon="7.393182294847321"><ele>357.2</ele><time>2026-04-11T10:31:55Z</time></trkpt><trkpt lat="45.06599163368111" lon="7.393168969410709"><ele>357.59999999999997</ele><time>2026-04-11T10:31:56Z</time></trkpt><trkpt lat="45.06608855290429" lon="7.393145637328488"><ele>358.0</ele><time>2026-04-11T10:31:57Z</time></trkpt><trkpt lat="45.06619205953055" lon="7.393127555744604"><ele>358.0</ele><time>2026-04-11T10:31:58Z</time></trkpt><trkpt lat="45.06629428536873" lon="7.393117280738142"><ele>358.0</ele><time>2026-04-11T10:31:59Z</time></trkpt><trkpt lat="45.06639540035613" lon="7.393102518657711"><ele>358.0</ele><time>2026-04-11T10:32:00Z</time></trkpt><trkpt lat="45.066497045752016" lon="7.393091191274472"><ele>358.0</ele><time>2026-04-11T10:32:01Z</time></trkpt><trkpt lat="45.06659772151859" lon="7.39307350957825"><ele>358.0</ele><time>2026-04-11T10:32:02Z</time></trkpt><trkpt lat="45.06669915414156" lon="7.393059279531098"><ele>356.59999999999997</ele><time>2026-04-11T10:32:03Z</time></trkpt><trkpt lat="45.06680148321455" lon="7.3930350372831475"><ele>355.2</ele><time>2026-04-11T10:32:04Z</time></trkpt><trkpt lat="45.066902827196" lon="7.393010804066039"><ele>353.8</ele><time>2026-04-11T10:32:05Z</time></trkpt><trkpt lat="45.06699199540465" lon="7.392983948202678"><ele>352.4</ele><time>2026-04-11T10:32:06Z</time></trkpt><trkpt lat="45.06707691170366" lon="7.39296271355801"><ele>351.0</ele><time>2026-04-11T10:32:07Z</time></trkpt><trkpt lat="45.067158562337774" lon="7.392938695378139"><ele>351.0</ele><time>2026-04-11T10:32:08Z</time></trkpt><trkpt lat="45.0672449976721" lon="7.3929088347227525"><ele>351.0</ele><time>2026-04-11T10:32:09Z</time></trkpt><trkpt lat="45.067335221501374" lon="7.392871405962387"><ele>351.0</ele><time>2026-04-11T10:32:10Z</time></trkpt><trkpt lat="45.06743098743666" lon="7.3928384053001155"><ele>351.0</ele><time>2026-04-11T10:32:11Z</time></trkpt><trkpt lat="45.0675359575245" lon="7.392808983517413"><ele>351.0</ele><time>2026-04-11T10:32:12Z</time></trkpt><trkpt lat="45.067644973939636" lon="7.392776294713209"><ele>351.4</ele><time>2026-04-11T10:32:13Z</time></trkpt><trkpt lat="45.06775422186932" lon="7.3927414005900625"><ele>351.8</ele><time>2026-04-11T10:32:14Z</time></trkpt><trkpt lat="45.0678590439479" lon="7.392705765142284"><ele>352.2</ele><time>2026-04-11T10:32:15Z</time></trkpt><trkpt lat="45.06796041806008" lon="7.39267513861415"><ele>352.59999999999997</ele><time>2026-04-11T10:32:16Z</time></trkpt><trkpt lat="45.0680665055267" lon="7.392638695354406"><ele>353.0</ele><time>2026-04-11T10:32:17Z</time></trkpt><trkpt lat="45.06817250370018" lon="7.392603391197926"><ele>353.0</ele><time>2026-04-11T10:32:18Z</time></trkpt><trkpt lat="45.068265284741265" lon="7.392581531285883"><ele>353.0</ele><time>2026-04-11T10:32:19Z</time></trkpt><trkpt lat="45.06835692497397" lon="7.392557449347628"><ele>353.0</ele><time>2026-04-11T10:32:20Z</time></trkpt><trkpt lat="45.068457061864244" lon="7.392527631889057"><ele>353.0</ele><time>2026-04-11T10:32:21Z</time></trkpt><trkpt lat="45.06855240224265" lon="7.392492327306781"><ele>353.0</ele><time>2026-04-11T10:32:22Z</time></trkpt><trkpt lat="45.06865050535375" lon="7.3924550259960204"><ele>354.2</ele><time>2026-04-11T10:32:23Z</time></trkpt><trkpt lat="45.06875049262077" lon="7.3924241232300805"><ele>355.4</ele><time>2026-04-11T10:32:24Z</time></trkpt><trkpt lat="45.06884858866265" lon="7.392395418681808"><ele>356.59999999999997</ele><time>2026-04-11T10:32:25Z</time></trkpt><trkpt lat="45.06894886697704" lon="7.392367745108218"><ele>357.79999999999995</ele><time>2026-04-11T10:32:26Z</time></trkpt><trkpt lat="45.069047766556594" lon="7.392336684397806"><ele>359.0</ele><time>2026-04-11T10:32:27Z</time></trkpt><trkpt lat="45.06915258585536" lon="7.392303678411373"><ele>360.79999999999995</ele><time>2026-04-11T10:32:28Z</time></trkpt><trkpt lat="45.069258045035966" lon="7.392267077364829"><ele>362.59999999999997</ele><time>2026-04-11T10:32:29Z</time></trkpt><trkpt lat="45.06935965242926" lon="7.39223361186383"><ele>364.4</ele><time>2026-04-11T10:32:30Z</time></trkpt><trkpt lat="45.069452275005226" lon="7.392203422423219"><ele>366.2</ele><time>2026-04-11T10:32:31Z</time></trkpt><trkpt lat="45.069544146067315" lon="7.392175349187275"><ele>368.0</ele><time>2026-04-11T10:32:32Z</time></trkpt><trkpt lat="45.069638020062804" lon="7.392143430015662"><ele>366.0</ele><time>2026-04-11T10:32:33Z</time></trkpt><trkpt lat="45.06972901499795" lon="7.3921239222656165"><ele>364.0</ele><time>2026-04-11T10:32:34Z</time></trkpt><trkpt lat="45.06981921339975" lon="7.392110055714386"><ele>362.0</ele><time>2026-04-11T10:32:35Z</time></trkpt><trkpt lat="45.069910442411455" lon="7.392108347559642"><ele>360.0</ele><time>2026-04-11T10:32:36Z</time></trkpt><trkpt lat="45.06999831831434" lon="7.392109073633122"><ele>358.0</ele><time>2026-04-11T10:32:37Z</time></trkpt><trkpt lat="45.070086455887235" lon="7.392110499780449"><ele>358.0</ele><time>2026-04-11T10:32:38Z</time></trkpt><trkpt lat="45.07017834345035" lon="7.39211394057486"><ele>358.0</ele><time>2026-04-11T10:32:39Z</time></trkpt><trkpt lat="45.070265687680696" lon="7.392119136965261"><ele>358.0</ele><time>2026-04-11T10:32:40Z</time></trkpt><trkpt lat="45.07035711434569" lon="7.39212445717626"><ele>358.0</ele><time>2026-04-11T10:32:41Z</time></trkpt><trkpt lat="45.07044431610166" lon="7.392130791983778"><ele>358.0</ele><time>2026-04-11T10:32:42Z</time></trkpt><trkpt lat="45.07052956504812" lon="7.3921430759432365"><ele>358.0</ele><time>2026-04-11T10:32:43Z</time></trkpt><trkpt lat="45.07061709078229" lon="7.392158196167994"><ele>361.3333333333333</ele><time>2026-04-11T10:32:44Z</time></trkpt><trkpt lat="45.07070308728609" lon="7.39218790467544"><ele>364.66666666666663</ele><time>2026-04-11T10:32:45Z</time></trkpt><trkpt lat="45.07078385816122" lon="7.3922202291604355"><ele>368.0</ele><time>2026-04-11T10:32:46Z</time></trkpt><trkpt lat="45.07086505593318" lon="7.39225717326882"><ele>371.3333333333333</ele><time>2026-04-11T10:32:47Z</time></trkpt><trkpt lat="45.070945175050944" lon="7.392290613790301"><ele>374.6666666666667</ele><time>2026-04-11T10:32:48Z</time></trkpt><trkpt lat="45.07102305452725" lon="7.392331596324043"><ele>378.0</ele><time>2026-04-11T10:32:49Z</time></trkpt><trkpt lat="45.07109786682512" lon="7.392379401322623"><ele>378.0</ele><time>2026-04-11T10:32:50Z</time></trkpt><trkpt lat="45.07117432887811" lon="7.392433805968564"><ele>378.0</ele><time>2026-04-11T10:32:51Z</time></trkpt><trkpt lat="45.071251819532165" lon="7.392493261220849"><ele>378.0</ele><time>2026-04-11T10:32:52Z</time></trkpt><trkpt lat="45.07133678788245" lon="7.392557562914862"><ele>378.0</ele><time>2026-04-11T10:32:53Z</time></trkpt><trkpt lat="45.07142224034133" lon="7.392625078998305"><ele>378.0</ele><time>2026-04-11T10:32:54Z</time></trkpt><trkpt lat="45.07151064642327" lon="7.392695947027977"><ele>378.0</ele><time>2026-04-11T10:32:55Z</time></trkpt><trkpt lat="45.07160305507317" lon="7.3927682765307905"><ele>378.0</ele><time>2026-04-11T10:32:56Z</time></trkpt><trkpt lat="45.07169612549165" lon="7.3928419592493695"><ele>378.0</ele><time>2026-04-11T10:32:57Z</time></trkpt><trkpt lat="45.07179011514189" lon="7.392918775999052"><ele>378.0</ele><time>2026-04-11T10:32:58Z</time></trkpt><trkpt lat="45.071880986470596" lon="7.392998252553239"><ele>378.0</ele><time>2026-04-11T10:32:59Z</time></trkpt><trkpt lat="45.07197240765561" lon="7.393079073693195"><ele>379.0</ele><time>2026-04-11T10:33:00Z</time></trkpt><trkpt lat="45.07206405937297" lon="7.393147136103636"><ele>380.0</ele><time>2026-04-11T10:33:01Z</time></trkpt><trkpt lat="45.072158604597874" lon="7.393227350803061"><ele>381.0</ele><time>2026-04-11T10:33:02Z</time></trkpt><trkpt lat="45.072248596375" lon="7.393301046433391"><ele>382.0</ele><time>2026-04-11T10:33:03Z</time></trkpt><trkpt lat="45.072340794277764" lon="7.3933721366794485"><ele>383.0</ele><time>2026-04-11T10:33:04Z</time></trkpt><trkpt lat="45.07242914651003" lon="7.393448245844369"><ele>381.79999999999995</ele><time>2026-04-11T10:33:05Z</time></trkpt><trkpt lat="45.072520224540945" lon="7.393523162964791"><ele>380.6</ele><time>2026-04-11T10:33:06Z</time></trkpt><trkpt lat="45.07261352498277" lon="7.393597952087483"><ele>379.4</ele><time>2026-04-11T10:33:07Z</time></trkpt><trkpt lat="45.0727093834659" lon="7.393672105942248"><ele>378.20000000000005</ele><time>2026-04-11T10:33:08Z</time></trkpt><trkpt lat="45.0728061072759" lon="7.393743586979553"><ele>377.0</ele><time>2026-04-11T10:33:09Z</time></trkpt><trkpt lat="45.07289717496426" lon="7.393811313921405"><ele>377.5</ele><time>2026-04-11T10:33:10Z</time></trkpt><trkpt lat="45.0729780610763" lon="7.393869091235139"><ele>378.0</ele><time>2026-04-11T10:33:11Z</time></trkpt><trkpt lat="45.07304549943594" lon="7.393930264180876"><ele>378.5</ele><time>2026-04-11T10:33:12Z</time></trkpt><trkpt lat="45.07311055564635" lon="7.393981351965812"><ele>379.0</ele><time>2026-04-11T10:33:13Z</time></trkpt><trkpt lat="45.073172311790714" lon="7.3940299500746836"><ele>379.5</ele><time>2026-04-11T10:33:14Z</time></trkpt><trkpt lat="45.073239261890386" lon="7.394074416352412"><ele>380.0</ele><time>2026-04-11T10:33:15Z</time></trkpt><trkpt lat="45.07331479237072" lon="7.394114477427973"><ele>378.8</ele><time>2026-04-11T10:33:16Z</time></trkpt><trkpt lat="45.0733982021622" lon="7.394153246753122"><ele>377.6</ele><time>2026-04-11T10:33:17Z</time></trkpt><trkpt lat="45.07348417069386" lon="7.394194514760194"><ele>376.4</ele><time>2026-04-11T10:33:18Z</time></trkpt><trkpt lat="45.07357271167195" lon="7.394233574643033"><ele>375.2</ele><time>2026-04-11T10:33:19Z</time></trkpt><trkpt lat="45.0736642824035" lon="7.394274610174851"><ele>374.0</ele><time>2026-04-11T10:33:20Z</time></trkpt><trkpt lat="45.07375445262797" lon="7.394320468137301"><ele>374.0</ele><time>2026-04-11T10:33:21Z</time></trkpt><trkpt lat="45.07384168088239" lon="7.394358883753271"><ele>374.0</ele><time>2026-04-11T10:33:22Z</time></trkpt><trkpt lat="45.073922167593004" lon="7.394389681681155"><ele>374.0</ele><time>2026-04-11T10:33:23Z</time></trkpt><trkpt lat="45.0740051542131" lon="7.394422188413521"><ele>374.0</ele><time>2026-04-11T10:33:24Z</time></trkpt><trkpt lat="45.07409260572331" lon="7.3944710323121825"><ele>374.0</ele><time>2026-04-11T10:33:25Z</time></trkpt><trkpt lat="45.074191164025905" lon="7.3945171777563985"><ele>374.0</ele><time>2026-04-11T10:33:26Z</time></trkpt><trkpt lat="45.07429147004294" lon="7.3945641748916895"><ele>374.0</ele><time>2026-04-11T10:33:27Z</time></trkpt><trkpt lat="45.07438427611819" lon="7.394611713614575"><ele>374.0</ele><time>2026-04-11T10:33:28Z</time></trkpt><trkpt lat="45.0744782167267" lon="7.394658516047379"><ele>374.0</ele><time>2026-04-11T10:33:29Z</time></trkpt><trkpt lat="45.07457229645325" lon="7.394707365058685"><ele>374.0</ele><time>2026-04-11T10:33:30Z</time></trkpt><trkpt lat="45.0746668575631" lon="7.394752303110336"><ele>374.0</ele><time>2026-04-11T10:33:31Z</time></trkpt><trkpt lat="45.07475865805269" lon="7.394796266990332"><ele>374.0</ele><time>2026-04-11T10:33:32Z</time></trkpt><trkpt lat="45.07485591914705" lon="7.394839446687771"><ele>374.0</ele><time>2026-04-11T10:33:33Z</time></trkpt><trkpt lat="45.07494717924002" lon="7.394887031984061"><ele>374.0</ele><time>2026-04-11T10:33:34Z</time></trkpt><trkpt lat="45.07504221984339" lon="7.3949357287030635"><ele>374.0</ele><time>2026-04-11T10:33:35Z</time></trkpt><trkpt lat="45.07513783829123" lon="7.394980633354432"><ele>373.5</ele><time>2026-04-11T10:33:36Z</time></trkpt><trkpt lat="45.07523212792478" lon="7.39501488378629"><ele>373.0</ele><time>2026-04-11T10:33:37Z</time></trkpt><trkpt lat="45.075315561458815" lon="7.39505270090834"><ele>372.5</ele><time>2026-04-11T10:33:38Z</time></trkpt><trkpt lat="45.075391139167905" lon="7.395091793018718"><ele>372.0</ele><time>2026-04-11T10:33:39Z</time></trkpt><trkpt lat="45.075456215471846" lon="7.395119908658981"><ele>371.5</ele><time>2026-04-11T10:33:40Z</time></trkpt><trkpt lat="45.07551715915762" lon="7.395145953120899"><ele>371.0</ele><time>2026-04-11T10:33:41Z</time></trkpt><trkpt lat="45.075616674533975" lon="7.395192668962218"><ele>371.0</ele><time>2026-04-11T10:33:43Z</time></trkpt><trkpt lat="45.07571336208137" lon="7.395222760500076"><ele>371.0</ele><time>2026-04-11T10:33:45Z</time></trkpt><trkpt lat="45.075619765669344" lon="7.395191067420495"><ele>371.0</ele><time>2026-04-11T10:34:01Z</time></trkpt><trkpt lat="45.075540768060186" lon="7.3951532674706675"><ele>371.0</ele><time>2026-04-11T10:34:19Z</time></trkpt><trkpt lat="45.07531716494636" lon="7.395036246553773"><ele>371.0</ele><time>2026-04-11T10:34:22Z</time></trkpt><trkpt lat="45.07522527690314" lon="7.39498508798206"><ele>371.0</ele><time>2026-04-11T10:34:23Z</time></trkpt><trkpt lat="45.075118854946496" lon="7.394932747285981"><ele>371.0</ele><time>2026-04-11T10:34:24Z</time></trkpt><trkpt lat="45.07500264373017" lon="7.394877767338222"><ele>371.0</ele><time>2026-04-11T10:34:25Z</time></trkpt><trkpt lat="45.074889117673436" lon="7.394826130602334"><ele>370.5</ele><time>2026-04-11T10:34:26Z</time></trkpt><trkpt lat="45.07478716487041" lon="7.394742916747044"><ele>370.0</ele><time>2026-04-11T10:34:27Z</time></trkpt><trkpt lat="45.074679773561904" lon="7.394691692101335"><ele>369.5</ele><time>2026-04-11T10:34:28Z</time></trkpt><trkpt lat="45.07457019842148" lon="7.394639425804808"><ele>369.0</ele><time>2026-04-11T10:34:29Z</time></trkpt><trkpt lat="45.07446352890943" lon="7.3945885454545435"><ele>369.0</ele><time>2026-04-11T10:34:30Z</time></trkpt><trkpt lat="45.0743558605659" lon="7.394537188665721"><ele>369.0</ele><time>2026-04-11T10:34:31Z</time></trkpt><trkpt lat="45.074242667668756" lon="7.394483196719632"><ele>369.0</ele><time>2026-04-11T10:34:32Z</time></trkpt><trkpt lat="45.07411768459465" lon="7.394423580974623"><ele>369.0</ele><time>2026-04-11T10:34:33Z</time></trkpt><trkpt lat="45.0740014113321" lon="7.39436811972348"><ele>370.25</ele><time>2026-04-11T10:34:34Z</time></trkpt><trkpt lat="45.07388455448915" lon="7.394312380053854"><ele>371.5</ele><time>2026-04-11T10:34:35Z</time></trkpt><trkpt lat="45.073766091793345" lon="7.3942569039411215"><ele>372.75</ele><time>2026-04-11T10:34:36Z</time></trkpt><trkpt lat="45.07364711008569" lon="7.394199829711559"><ele>374.0</ele><time>2026-04-11T10:34:37Z</time></trkpt><trkpt lat="45.073529550341426" lon="7.3941431892366225"><ele>374.0</ele><time>2026-04-11T10:34:38Z</time></trkpt><trkpt lat="45.07341338886754" lon="7.394087900404939"><ele>374.0</ele><time>2026-04-11T10:34:39Z</time></trkpt><trkpt lat="45.07328400516661" lon="7.3940180817592625"><ele>374.0</ele><time>2026-04-11T10:34:40Z</time></trkpt><trkpt lat="45.073154928156036" lon="7.393936625996668"><ele>374.0</ele><time>2026-04-11T10:34:41Z</time></trkpt><trkpt lat="45.07305313682027" lon="7.393886761854061"><ele>375.2</ele><time>2026-04-11T10:34:42Z</time></trkpt><trkpt lat="45.07298741138264" lon="7.3938461472977535"><ele>376.4</ele><time>2026-04-11T10:34:43Z</time></trkpt><trkpt lat="45.07294585072971" lon="7.393977101693959"><ele>377.6</ele><time>2026-04-11T10:34:48Z</time></trkpt><trkpt lat="45.07300117325259" lon="7.394054038614021"><ele>378.8</ele><time>2026-04-11T10:34:49Z</time></trkpt><trkpt lat="45.07309895246719" lon="7.394124302779571"><ele>380.0</ele><time>2026-04-11T10:34:50Z</time></trkpt><trkpt lat="45.073176416646994" lon="7.394196519218589"><ele>380.0</ele><time>2026-04-11T10:34:51Z</time></trkpt><trkpt lat="45.07325577649522" lon="7.394301230072461"><ele>380.0</ele><time>2026-04-11T10:34:52Z</time></trkpt><trkpt lat="45.07332939581131" lon="7.3943951793435945"><ele>380.0</ele><time>2026-04-11T10:34:53Z</time></trkpt><trkpt lat="45.07340063794306" lon="7.394476692298437"><ele>380.0</ele><time>2026-04-11T10:34:54Z</time></trkpt><trkpt lat="45.07347822713271" lon="7.394566451987274"><ele>380.0</ele><time>2026-04-11T10:34:55Z</time></trkpt><trkpt lat="45.07356485409367" lon="7.394662436290541"><ele>380.0</ele><time>2026-04-11T10:34:56Z</time></trkpt><trkpt lat="45.07365658015936" lon="7.394762910532202"><ele>380.0</ele><time>2026-04-11T10:34:57Z</time></trkpt><trkpt lat="45.0737428388943" lon="7.394859623525571"><ele>380.0</ele><time>2026-04-11T10:34:58Z</time></trkpt><trkpt lat="45.07382714048376" lon="7.394956215776301"><ele>380.0</ele><time>2026-04-11T10:34:59Z</time></trkpt><trkpt lat="45.073917567122336" lon="7.39505054920338"><ele>380.0</ele><time>2026-04-11T10:35:00Z</time></trkpt><trkpt lat="45.074012139784855" lon="7.39514870792152"><ele>380.0</ele><time>2026-04-11T10:35:01Z</time></trkpt><trkpt lat="45.07410681099139" lon="7.395251231229933"><ele>380.0</ele><time>2026-04-11T10:35:02Z</time></trkpt><trkpt lat="45.07420420053163" lon="7.3953533331715064"><ele>380.0</ele><time>2026-04-11T10:35:03Z</time></trkpt><trkpt lat="45.07429297342623" lon="7.39544505313035"><ele>380.0</ele><time>2026-04-11T10:35:04Z</time></trkpt><trkpt lat="45.07437270971005" lon="7.395530802811855"><ele>380.0</ele><time>2026-04-11T10:35:05Z</time></trkpt><trkpt lat="45.07444603602243" lon="7.395615346996978"><ele>380.0</ele><time>2026-04-11T10:35:06Z</time></trkpt><trkpt lat="45.07452788200455" lon="7.395693787444307"><ele>380.0</ele><time>2026-04-11T10:35:07Z</time></trkpt><trkpt lat="45.074605681160136" lon="7.395777441949924"><ele>380.0</ele><time>2026-04-11T10:35:08Z</time></trkpt><trkpt lat="45.074679950488374" lon="7.395856328081214"><ele>380.0</ele><time>2026-04-11T10:35:09Z</time></trkpt><trkpt lat="45.07475476004382" lon="7.395930918858902"><ele>380.0</ele><time>2026-04-11T10:35:10Z</time></trkpt><trkpt lat="45.074826990619236" lon="7.3960029324955965"><ele>380.0</ele><time>2026-04-11T10:35:11Z</time></trkpt><trkpt lat="45.07489238703042" lon="7.396064339655584"><ele>380.0</ele><time>2026-04-11T10:35:12Z</time></trkpt><trkpt lat="45.074940186703145" lon="7.396136330494207"><ele>380.0</ele><time>2026-04-11T10:35:13Z</time></trkpt><trkpt lat="45.07502619640327" lon="7.3962137181680685"><ele>380.0</ele><time>2026-04-11T10:35:15Z</time></trkpt><trkpt lat="45.07496259906762" lon="7.396438284743627"><ele>380.1666666666667</ele><time>2026-04-11T10:35:19Z</time></trkpt><trkpt lat="45.074923469163025" lon="7.396549223508905"><ele>380.33333333333337</ele><time>2026-04-11T10:35:20Z</time></trkpt><trkpt lat="45.07486886009145" lon="7.396657530299311"><ele>380.5</ele><time>2026-04-11T10:35:21Z</time></trkpt><trkpt lat="45.07483044180288" lon="7.396782330499829"><ele>380.6666666666667</ele><time>2026-04-11T10:35:22Z</time></trkpt><trkpt lat="45.07477298255582" lon="7.3968762295831905"><ele>380.8333333333333</ele><time>2026-04-11T10:35:23Z</time></trkpt><trkpt lat="45.07472928559221" lon="7.396953765923354"><ele>381.0</ele><time>2026-04-11T10:35:24Z</time></trkpt><trkpt lat="45.074699599131286" lon="7.3970657989580575"><ele>381.20000000000005</ele><time>2026-04-11T10:35:25Z</time></trkpt><trkpt lat="45.07466326695029" lon="7.397182901831134"><ele>381.40000000000003</ele><time>2026-04-11T10:35:26Z</time></trkpt><trkpt lat="45.07462203541056" lon="7.397311452859429"><ele>381.6</ele><time>2026-04-11T10:35:27Z</time></trkpt><trkpt lat="45.07457358468146" lon="7.397446540755129"><ele>381.8</ele><time>2026-04-11T10:35:28Z</time></trkpt><trkpt lat="45.07452381412469" lon="7.397574684763082"><ele>382.0</ele><time>2026-04-11T10:35:29Z</time></trkpt><trkpt lat="45.07447772736784" lon="7.39769545315922"><ele>382.0</ele><time>2026-04-11T10:35:30Z</time></trkpt><trkpt lat="45.07444234907768" lon="7.397800337967669"><ele>382.0</ele><time>2026-04-11T10:35:31Z</time></trkpt><trkpt lat="45.07439774725464" lon="7.39788258414412"><ele>382.0</ele><time>2026-04-11T10:35:32Z</time></trkpt><trkpt lat="45.07426078726166" lon="7.397963351323229"><ele>382.0</ele><time>2026-04-11T10:35:34Z</time></trkpt><trkpt lat="45.07417430259019" lon="7.397955667713898"><ele>382.0</ele><time>2026-04-11T10:35:35Z</time></trkpt><trkpt lat="45.0740824338837" lon="7.397889544621919"><ele>384.0</ele><time>2026-04-11T10:35:36Z</time></trkpt><trkpt lat="45.07397833481579" lon="7.3978628816502665"><ele>386.0</ele><time>2026-04-11T10:35:37Z</time></trkpt><trkpt lat="45.07386497157341" lon="7.397836135331445"><ele>388.0</ele><time>2026-04-11T10:35:38Z</time></trkpt><trkpt lat="45.07376054389041" lon="7.397835394506762"><ele>390.0</ele><time>2026-04-11T10:35:39Z</time></trkpt><trkpt lat="45.07367514278562" lon="7.3978159113008175"><ele>392.0</ele><time>2026-04-11T10:35:40Z</time></trkpt><trkpt lat="45.07359501889678" lon="7.397818488250001"><ele>391.99999999999994</ele><time>2026-04-11T10:35:41Z</time></trkpt><trkpt lat="45.073515907888016" lon="7.39783558381971"><ele>392.0</ele><time>2026-04-11T10:35:42Z</time></trkpt><trkpt lat="45.07343264501496" lon="7.3978659774479025"><ele>392.0</ele><time>2026-04-11T10:35:43Z</time></trkpt><trkpt lat="45.073360523928784" lon="7.397905190738452"><ele>392.0</ele><time>2026-04-11T10:35:44Z</time></trkpt><trkpt lat="45.07329385966884" lon="7.3979311986606024"><ele>391.99999999999994</ele><time>2026-04-11T10:35:45Z</time></trkpt><trkpt lat="45.0732240739158" lon="7.397938097449821"><ele>392.0</ele><time>2026-04-11T10:35:46Z</time></trkpt><trkpt lat="45.07315957708509" lon="7.397890758634425"><ele>393.2857142857143</ele><time>2026-04-11T10:35:47Z</time></trkpt><trkpt lat="45.073097706161256" lon="7.39785462193685"><ele>394.57142857142856</ele><time>2026-04-11T10:35:48Z</time></trkpt><trkpt lat="45.07309536076376" lon="7.397733182260126"><ele>395.8571428571429</ele><time>2026-04-11T10:35:49Z</time></trkpt><trkpt lat="45.07306942144678" lon="7.397648711540993"><ele>397.1428571428571</ele><time>2026-04-11T10:35:50Z</time></trkpt><trkpt lat="45.07304745957236" lon="7.397560110221358"><ele>398.42857142857144</ele><time>2026-04-11T10:35:51Z</time></trkpt><trkpt lat="45.07308634565632" lon="7.397457101041129"><ele>399.7142857142857</ele><time>2026-04-11T10:35:52Z</time></trkpt><trkpt lat="45.07308634565432" lon="7.3973567095814925"><ele>401.0</ele><time>2026-04-11T10:35:53Z</time></trkpt><trkpt lat="45.07308176505084" lon="7.397260669340485"><ele>401.0</ele><time>2026-04-11T10:35:54Z</time></trkpt><trkpt lat="45.07303897458693" lon="7.397181883559884"><ele>401.0</ele><time>2026-04-11T10:35:55Z</time></trkpt><trkpt lat="45.07296253578176" lon="7.397138535350684"><ele>401.0</ele><time>2026-04-11T10:35:56Z</time></trkpt><trkpt lat="45.07290394520267" lon="7.397100440398069"><ele>401.0</ele><time>2026-04-11T10:35:57Z</time></trkpt><trkpt lat="45.07284677710058" lon="7.3970628867729085"><ele>401.0</ele><time>2026-04-11T10:35:58Z</time></trkpt><trkpt lat="45.072793797415855" lon="7.396997450904379"><ele>401.0</ele><time>2026-04-11T10:35:59Z</time></trkpt><trkpt lat="45.07273808613961" lon="7.396933701543564"><ele>401.0</ele><time>2026-04-11T10:36:00Z</time></trkpt><trkpt lat="45.0726843358002" lon="7.396851231556388"><ele>401.49999999999994</ele><time>2026-04-11T10:36:01Z</time></trkpt><trkpt lat="45.07263187437733" lon="7.396770888522328"><ele>402.0</ele><time>2026-04-11T10:36:02Z</time></trkpt><trkpt lat="45.072576025999965" lon="7.396700810649633"><ele>402.5</ele><time>2026-04-11T10:36:03Z</time></trkpt><trkpt lat="45.072523617883284" lon="7.396647569191326"><ele>403.0</ele><time>2026-04-11T10:36:04Z</time></trkpt><trkpt lat="45.07246478574339" lon="7.396599209515313"><ele>403.49999999999994</ele><time>2026-04-11T10:36:05Z</time></trkpt><trkpt lat="45.07240573422638" lon="7.396559512580629"><ele>404.0</ele><time>2026-04-11T10:36:06Z</time></trkpt><trkpt lat="45.07229702890616" lon="7.396477790616528"><ele>405.49999999999994</ele><time>2026-04-11T10:36:08Z</time></trkpt><trkpt lat="45.07217341879526" lon="7.396421665525851"><ele>407.0</ele><time>2026-04-11T10:36:10Z</time></trkpt><trkpt lat="45.072101504993434" lon="7.396447796110477"><ele>408.5</ele><time>2026-04-11T10:36:11Z</time></trkpt><trkpt lat="45.07202995924817" lon="7.396444789123094"><ele>410.0</ele><time>2026-04-11T10:36:12Z</time></trkpt><trkpt lat="45.07196123600385" lon="7.396412289818829"><ele>411.49999999999994</ele><time>2026-04-11T10:36:13Z</time></trkpt><trkpt lat="45.07189352030979" lon="7.396389129367106"><ele>413.0</ele><time>2026-04-11T10:36:14Z</time></trkpt><trkpt lat="45.07182651981488" lon="7.396369656765795"><ele>412.99999999999994</ele><time>2026-04-11T10:36:15Z</time></trkpt><trkpt lat="45.071760183169516" lon="7.396354754027852"><ele>413.0</ele><time>2026-04-11T10:36:16Z</time></trkpt><trkpt lat="45.07168587086771" lon="7.3963409666677995"><ele>413.0</ele><time>2026-04-11T10:36:17Z</time></trkpt><trkpt lat="45.071603470147146" lon="7.396354000404726"><ele>413.0</ele><time>2026-04-11T10:36:18Z</time></trkpt><trkpt lat="45.07152042921973" lon="7.396335315244143"><ele>412.99999999999994</ele><time>2026-04-11T10:36:19Z</time></trkpt><trkpt lat="45.07143679926843" lon="7.396333819900292"><ele>413.0</ele><time>2026-04-11T10:36:20Z</time></trkpt><trkpt lat="45.07135683142963" lon="7.39633358133025"><ele>414.99999999999994</ele><time>2026-04-11T10:36:21Z</time></trkpt><trkpt lat="45.071277368280654" lon="7.396334520932609"><ele>417.0</ele><time>2026-04-11T10:36:22Z</time></trkpt><trkpt lat="45.07119850177897" lon="7.396359121514148"><ele>419.0</ele><time>2026-04-11T10:36:23Z</time></trkpt><trkpt lat="45.0711121033328" lon="7.39635935029407"><ele>421.0</ele><time>2026-04-11T10:36:24Z</time></trkpt><trkpt lat="45.071021207948434" lon="7.396365579170862"><ele>422.99999999999994</ele><time>2026-04-11T10:36:25Z</time></trkpt><trkpt lat="45.07094748725519" lon="7.396376367207808"><ele>425.0</ele><time>2026-04-11T10:36:26Z</time></trkpt><trkpt lat="45.07087720122492" lon="7.396396711478109"><ele>424.99999999999994</ele><time>2026-04-11T10:36:27Z</time></trkpt><trkpt lat="45.070814664944734" lon="7.396432161014767"><ele>425.0</ele><time>2026-04-11T10:36:28Z</time></trkpt><trkpt lat="45.07074882118182" lon="7.3964471454273495"><ele>425.0</ele><time>2026-04-11T10:36:29Z</time></trkpt><trkpt lat="45.070678380706894" lon="7.3964761059386435"><ele>425.0</ele><time>2026-04-11T10:36:30Z</time></trkpt><trkpt lat="45.07059041497787" lon="7.396509532795394"><ele>424.99999999999994</ele><time>2026-04-11T10:36:31Z</time></trkpt><trkpt lat="45.07050861437876" lon="7.396579101244792"><ele>425.0</ele><time>2026-04-11T10:36:32Z</time></trkpt><trkpt lat="45.07042296568366" lon="7.396653190482819"><ele>425.8</ele><time>2026-04-11T10:36:33Z</time></trkpt><trkpt lat="45.070329706817375" lon="7.396748407484237"><ele>426.6</ele><time>2026-04-11T10:36:34Z</time></trkpt><trkpt lat="45.0702500610778" lon="7.396849608799944"><ele>427.4</ele><time>2026-04-11T10:36:35Z</time></trkpt><trkpt lat="45.0701667266067" lon="7.396905479489155"><ele>428.2</ele><time>2026-04-11T10:36:36Z</time></trkpt><trkpt lat="45.07008849827649" lon="7.396965997026312"><ele>429.0</ele><time>2026-04-11T10:36:37Z</time></trkpt><trkpt lat="45.069995854741" lon="7.397003323813356"><ele>430.4</ele><time>2026-04-11T10:36:38Z</time></trkpt><trkpt lat="45.06988719383169" lon="7.397052231229789"><ele>431.79999999999995</ele><time>2026-04-11T10:36:39Z</time></trkpt><trkpt lat="45.0697867129704" lon="7.397039896413976"><ele>433.20000000000005</ele><time>2026-04-11T10:36:40Z</time></trkpt><trkpt lat="45.06969505290408" lon="7.3970788792628"><ele>434.6</ele><time>2026-04-11T10:36:41Z</time></trkpt><trkpt lat="45.06960151029247" lon="7.397094924845749"><ele>436.0</ele><time>2026-04-11T10:36:42Z</time></trkpt><trkpt lat="45.0695088357205" lon="7.397102560694578"><ele>436.0</ele><time>2026-04-11T10:36:43Z</time></trkpt><trkpt lat="45.06940695332549" lon="7.397078237469004"><ele>436.0</ele><time>2026-04-11T10:36:44Z</time></trkpt><trkpt lat="45.06930469749776" lon="7.397063352088517"><ele>436.0</ele><time>2026-04-11T10:36:45Z</time></trkpt><trkpt lat="45.069207234367646" lon="7.397048546123935"><ele>436.0</ele><time>2026-04-11T10:36:46Z</time></trkpt><trkpt lat="45.06913257575098" lon="7.39702584349202"><ele>436.0</ele><time>2026-04-11T10:36:47Z</time></trkpt><trkpt lat="45.06900288421614" lon="7.397033793711275"><ele>437.4</ele><time>2026-04-11T10:36:49Z</time></trkpt><trkpt lat="45.068935923637184" lon="7.397092843511579"><ele>438.8</ele><time>2026-04-11T10:36:50Z</time></trkpt><trkpt lat="45.06887717983887" lon="7.397205837098001"><ele>440.19999999999993</ele><time>2026-04-11T10:36:51Z</time></trkpt><trkpt lat="45.06883653228942" lon="7.397341072945059"><ele>441.59999999999997</ele><time>2026-04-11T10:36:52Z</time></trkpt><trkpt lat="45.0688156106805" lon="7.397494842498147"><ele>443.0</ele><time>2026-04-11T10:36:53Z</time></trkpt><trkpt lat="45.06880354038135" lon="7.397644360159463"><ele>444.4</ele><time>2026-04-11T10:36:54Z</time></trkpt><trkpt lat="45.06879652882009" lon="7.397783634581319"><ele>445.79999999999995</ele><time>2026-04-11T10:36:55Z</time></trkpt><trkpt lat="45.06878035890439" lon="7.397919146919823"><ele>447.2</ele><time>2026-04-11T10:36:56Z</time></trkpt><trkpt lat="45.06876310487207" lon="7.398062734442857"><ele>448.6</ele><time>2026-04-11T10:36:57Z</time></trkpt><trkpt lat="45.0687455935265" lon="7.398204862292889"><ele>450.0</ele><time>2026-04-11T10:36:58Z</time></trkpt><trkpt lat="45.06872946366924" lon="7.398342716936431"><ele>452.0</ele><time>2026-04-11T10:36:59Z</time></trkpt><trkpt lat="45.068730828129084" lon="7.398478436198752"><ele>454.0</ele><time>2026-04-11T10:37:00Z</time></trkpt><trkpt lat="45.06874217930601" lon="7.398620333680764"><ele>456.0</ele><time>2026-04-11T10:37:01Z</time></trkpt><trkpt lat="45.068730332153756" lon="7.398768440199595"><ele>458.0</ele><time>2026-04-11T10:37:02Z</time></trkpt><trkpt lat="45.06874448849301" lon="7.398897638745991"><ele>460.0</ele><time>2026-04-11T10:37:03Z</time></trkpt><trkpt lat="45.06875528635766" lon="7.399020101768041"><ele>461.0</ele><time>2026-04-11T10:37:04Z</time></trkpt><trkpt lat="45.06876689100106" lon="7.399157779933532"><ele>462.0</ele><time>2026-04-11T10:37:05Z</time></trkpt><trkpt lat="45.068776939079775" lon="7.399285841345091"><ele>463.0</ele><time>2026-04-11T10:37:06Z</time></trkpt><trkpt lat="45.06878859329268" lon="7.399420494029128"><ele>464.0</ele><time>2026-04-11T10:37:07Z</time></trkpt><trkpt lat="45.06879779538883" lon="7.399551086346731"><ele>465.0</ele><time>2026-04-11T10:37:08Z</time></trkpt><trkpt lat="45.068810644794866" lon="7.399683568330109"><ele>465.6</ele><time>2026-04-11T10:37:09Z</time></trkpt><trkpt lat="45.06881907689278" lon="7.399801134098823"><ele>466.2</ele><time>2026-04-11T10:37:10Z</time></trkpt><trkpt lat="45.068830111955094" lon="7.399906316420407"><ele>466.79999999999995</ele><time>2026-04-11T10:37:11Z</time></trkpt><trkpt lat="45.06884118340158" lon="7.400040452550571"><ele>467.4</ele><time>2026-04-11T10:37:13Z</time></trkpt><trkpt lat="45.06886557882835" lon="7.400139024517885"><ele>468.0</ele><time>2026-04-11T10:37:15Z</time></trkpt><trkpt lat="45.06897934956902" lon="7.400207059296651"><ele>468.0</ele><time>2026-04-11T10:37:17Z</time></trkpt><trkpt lat="45.06905928563821" lon="7.40022232106347"><ele>468.00000000000006</ele><time>2026-04-11T10:37:18Z</time></trkpt><trkpt lat="45.06913969080327" lon="7.400264661314676"><ele>468.0</ele><time>2026-04-11T10:37:19Z</time></trkpt><trkpt lat="45.069205882154776" lon="7.400332064531141"><ele>468.0</ele><time>2026-04-11T10:37:20Z</time></trkpt><trkpt lat="45.06924849044706" lon="7.400409253968898"><ele>468.00000000000006</ele><time>2026-04-11T10:37:21Z</time></trkpt><trkpt lat="45.06926088939036" lon="7.400497906496501"><ele>468.0</ele><time>2026-04-11T10:37:22Z</time></trkpt><trkpt lat="45.06926721259997" lon="7.400589412867185"><ele>468.0</ele><time>2026-04-11T10:37:23Z</time></trkpt><trkpt lat="45.06929670091146" lon="7.4006836265838984"><ele>465.0</ele><time>2026-04-11T10:37:24Z</time></trkpt><trkpt lat="45.06927056480342" lon="7.400808350271485"><ele>461.99999999999994</ele><time>2026-04-11T10:37:25Z</time></trkpt><trkpt lat="45.0692498573291" lon="7.400941959071739"><ele>458.99999999999994</ele><time>2026-04-11T10:37:26Z</time></trkpt><trkpt lat="45.06923002247583" lon="7.4010823211229955"><ele>456.0</ele><time>2026-04-11T10:37:27Z</time></trkpt><trkpt lat="45.06921119754001" lon="7.40122556650012"><ele>453.0</ele><time>2026-04-11T10:37:28Z</time></trkpt><trkpt lat="45.06919464639942" lon="7.401359530673463"><ele>452.5714285714285</ele><time>2026-04-11T10:37:29Z</time></trkpt><trkpt lat="45.06918658443013" lon="7.401478846932314"><ele>452.1428571428571</ele><time>2026-04-11T10:37:30Z</time></trkpt><trkpt lat="45.069182144220356" lon="7.401573566490526"><ele>451.7142857142857</ele><time>2026-04-11T10:37:31Z</time></trkpt><trkpt lat="45.069181032000905" lon="7.401667408793568"><ele>451.2857142857143</ele><time>2026-04-11T10:37:32Z</time></trkpt><trkpt lat="45.0691761825002" lon="7.401759489886954"><ele>450.8571428571429</ele><time>2026-04-11T10:37:33Z</time></trkpt><trkpt lat="45.06916305858475" lon="7.401855936191981"><ele>450.4285714285715</ele><time>2026-04-11T10:37:34Z</time></trkpt><trkpt lat="45.06914788145928" lon="7.401967471252912"><ele>450.00000000000006</ele><time>2026-04-11T10:37:35Z</time></trkpt><trkpt lat="45.06908372659731" lon="7.402236756279627"><ele>452.8</ele><time>2026-04-11T10:37:36Z</time></trkpt><trkpt lat="45.06908390520113" lon="7.402375516453124"><ele>455.6</ele><time>2026-04-11T10:37:37Z</time></trkpt><trkpt lat="45.069071449811844" lon="7.40253767640815"><ele>458.4</ele><time>2026-04-11T10:37:38Z</time></trkpt><trkpt lat="45.069056673705916" lon="7.40269490335116"><ele>461.2</ele><time>2026-04-11T10:37:39Z</time></trkpt><trkpt lat="45.06904181887868" lon="7.402843261117341"><ele>464.0</ele><time>2026-04-11T10:37:40Z</time></trkpt><trkpt lat="45.06903362454882" lon="7.4029570774504405"><ele>464.2</ele><time>2026-04-11T10:37:41Z</time></trkpt><trkpt lat="45.06898933147858" lon="7.403135323056126"><ele>464.4</ele><time>2026-04-11T10:37:43Z</time></trkpt><trkpt lat="45.06895629388038" lon="7.40326134300248"><ele>464.6</ele><time>2026-04-11T10:37:44Z</time></trkpt><trkpt lat="45.06889186374127" lon="7.403395189399027"><ele>464.8</ele><time>2026-04-11T10:37:45Z</time></trkpt><trkpt lat="45.06883997796136" lon="7.403514730732472"><ele>465.0</ele><time>2026-04-11T10:37:46Z</time></trkpt><trkpt lat="45.06878521125183" lon="7.403635689277768"><ele>465.0</ele><time>2026-04-11T10:37:47Z</time></trkpt><trkpt lat="45.06872841872959" lon="7.403772386508741"><ele>465.0</ele><time>2026-04-11T10:37:48Z</time></trkpt><trkpt lat="45.06871307006125" lon="7.403899006591177"><ele>465.0</ele><time>2026-04-11T10:37:49Z</time></trkpt><trkpt lat="45.06869415923167" lon="7.40401539370902"><ele>465.0</ele><time>2026-04-11T10:37:50Z</time></trkpt><trkpt lat="45.068678042102555" lon="7.404118142307856"><ele>465.0</ele><time>2026-04-11T10:37:51Z</time></trkpt><trkpt lat="45.068662667433294" lon="7.404229707686225"><ele>465.0</ele><time>2026-04-11T10:37:52Z</time></trkpt><trkpt lat="45.06864514480462" lon="7.40434822477706"><ele>464.6</ele><time>2026-04-11T10:37:53Z</time></trkpt><trkpt lat="45.06863069811377" lon="7.404465840719699"><ele>464.2</ele><time>2026-04-11T10:37:54Z</time></trkpt><trkpt lat="45.06860617368536" lon="7.4046005628038225"><ele>463.79999999999995</ele><time>2026-04-11T10:37:55Z</time></trkpt><trkpt lat="45.06858734166228" lon="7.404752170886332"><ele>463.4</ele><time>2026-04-11T10:37:56Z</time></trkpt><trkpt lat="45.06857301608265" lon="7.404906203362202"><ele>463.0</ele><time>2026-04-11T10:37:57Z</time></trkpt><trkpt lat="45.06855871592242" lon="7.405056386118452"><ele>462.4</ele><time>2026-04-11T10:37:58Z</time></trkpt><trkpt lat="45.0685333307097" lon="7.405191248465274"><ele>461.79999999999995</ele><time>2026-04-11T10:37:59Z</time></trkpt><trkpt lat="45.06851752742178" lon="7.40533352572873"><ele>461.2</ele><time>2026-04-11T10:38:00Z</time></trkpt><trkpt lat="45.06850286685291" lon="7.405465515156489"><ele>460.6</ele><time>2026-04-11T10:38:01Z</time></trkpt><trkpt lat="45.06848839858753" lon="7.405595773181156"><ele>460.0</ele><time>2026-04-11T10:38:02Z</time></trkpt><trkpt lat="45.06847524582202" lon="7.405706626796424"><ele>460.00000000000006</ele><time>2026-04-11T10:38:03Z</time></trkpt><trkpt lat="45.068467174562215" lon="7.405830238819733"><ele>460.0</ele><time>2026-04-11T10:38:04Z</time></trkpt><trkpt lat="45.06843253574224" lon="7.40595868857442"><ele>460.0</ele><time>2026-04-11T10:38:05Z</time></trkpt><trkpt lat="45.068408580893454" lon="7.406079934404167"><ele>460.0</ele><time>2026-04-11T10:38:06Z</time></trkpt><trkpt lat="45.06840636060146" lon="7.406173315664254"><ele>460.00000000000006</ele><time>2026-04-11T10:38:07Z</time></trkpt><trkpt lat="45.068405958311644" lon="7.406298030332756"><ele>460.0</ele><time>2026-04-11T10:38:09Z</time></trkpt><trkpt lat="45.06845829048936" lon="7.406374421990073"><ele>460.00000000000006</ele><time>2026-04-11T10:38:12Z</time></trkpt><trkpt lat="45.06854164247274" lon="7.406306660807884"><ele>460.0</ele><time>2026-04-11T10:42:06Z</time></trkpt><trkpt lat="45.06859435857495" lon="7.4062578655179685"><ele>460.0</ele><time>2026-04-11T10:42:07Z</time></trkpt><trkpt lat="45.068635827446776" lon="7.406159078224891"><ele>460.0</ele><time>2026-04-11T10:42:08Z</time></trkpt><trkpt lat="45.068662313071336" lon="7.406060013571047"><ele>460.00000000000006</ele><time>2026-04-11T10:42:09Z</time></trkpt><trkpt lat="45.06868169095055" lon="7.405954602668485"><ele>460.0</ele><time>2026-04-11T10:42:10Z</time></trkpt><trkpt lat="45.06870371409148" lon="7.4058459697670775"><ele>460.0</ele><time>2026-04-11T10:42:11Z</time></trkpt><trkpt lat="45.06872769914439" lon="7.40575482483937"><ele>460.0</ele><time>2026-04-11T10:42:12Z</time></trkpt><trkpt lat="45.06878991815226" lon="7.405603423078924"><ele>460.0</ele><time>2026-04-11T10:42:14Z</time></trkpt><trkpt lat="45.068880936784076" lon="7.405526244880288"><ele>460.0</ele><time>2026-04-11T10:42:16Z</time></trkpt><trkpt lat="45.068975583197975" lon="7.405520000999199"><ele>460.0</ele><time>2026-04-11T10:42:18Z</time></trkpt><trkpt lat="45.06908126092099" lon="7.405509065721203"><ele>457.0</ele><time>2026-04-11T10:42:20Z</time></trkpt><trkpt lat="45.06919536154567" lon="7.405492645059265"><ele>454.0</ele><time>2026-04-11T10:42:22Z</time></trkpt><trkpt lat="45.06926064121403" lon="7.405483708911488"><ele>451.0</ele><time>2026-04-11T10:42:23Z</time></trkpt><trkpt lat="45.06932567493949" lon="7.405475155021237"><ele>448.0</ele><time>2026-04-11T10:42:24Z</time></trkpt><trkpt lat="45.069441055639565" lon="7.4054599789899775"><ele>445.0</ele><time>2026-04-11T10:42:26Z</time></trkpt><trkpt lat="45.06954492476481" lon="7.405446317083342"><ele>445.0</ele><time>2026-04-11T10:42:28Z</time></trkpt><trkpt lat="45.06963496023391" lon="7.405436124109785"><ele>445.0</ele><time>2026-04-11T10:42:30Z</time></trkpt><trkpt lat="45.06972513362522" lon="7.405430262661621"><ele>445.0</ele><time>2026-04-11T10:42:32Z</time></trkpt><trkpt lat="45.069820571922115" lon="7.405424927600651"><ele>445.0</ele><time>2026-04-11T10:42:34Z</time></trkpt><trkpt lat="45.069915564485676" lon="7.405407186813573"><ele>445.0</ele><time>2026-04-11T10:42:36Z</time></trkpt><trkpt lat="45.07002113485879" lon="7.405355494699097"><ele>443.00000000000006</ele><time>2026-04-11T10:42:38Z</time></trkpt><trkpt lat="45.070059182098646" lon="7.405280228332643"><ele>441.0</ele><time>2026-04-11T10:42:40Z</time></trkpt><trkpt lat="45.070114972732796" lon="7.405138290813717"><ele>439.0</ele><time>2026-04-11T10:42:43Z</time></trkpt><trkpt lat="45.07013956497622" lon="7.405044383829044"><ele>437.0</ele><time>2026-04-11T10:42:44Z</time></trkpt><trkpt lat="45.070154276643855" lon="7.404936379333772"><ele>435.00000000000006</ele><time>2026-04-11T10:42:45Z</time></trkpt><trkpt lat="45.070163740802265" lon="7.404832922498706"><ele>433.0</ele><time>2026-04-11T10:42:46Z</time></trkpt><trkpt lat="45.07017213907989" lon="7.404723869793563"><ele>433.33333333333337</ele><time>2026-04-11T10:42:47Z</time></trkpt><trkpt lat="45.070179608227846" lon="7.404612654868298"><ele>433.6666666666667</ele><time>2026-04-11T10:42:48Z</time></trkpt><trkpt lat="45.07018807493081" lon="7.4044865864406635"><ele>434.0</ele><time>2026-04-11T10:42:49Z</time></trkpt><trkpt lat="45.07019759185966" lon="7.404370543236508"><ele>434.33333333333337</ele><time>2026-04-11T10:42:50Z</time></trkpt><trkpt lat="45.07020795060065" lon="7.4042497791208115"><ele>434.6666666666667</ele><time>2026-04-11T10:42:51Z</time></trkpt><trkpt lat="45.070218726366114" lon="7.404125611435022"><ele>435.0</ele><time>2026-04-11T10:42:52Z</time></trkpt><trkpt lat="45.07022907850372" lon="7.404014291786993"><ele>435.0</ele><time>2026-04-11T10:42:53Z</time></trkpt><trkpt lat="45.070240521451296" lon="7.403892336816165"><ele>435.0</ele><time>2026-04-11T10:42:54Z</time></trkpt><trkpt lat="45.070253968155875" lon="7.403767639635298"><ele>435.0</ele><time>2026-04-11T10:42:55Z</time></trkpt><trkpt lat="45.07026648499439" lon="7.403649536332451"><ele>435.0</ele><time>2026-04-11T10:42:56Z</time></trkpt><trkpt lat="45.07027708282684" lon="7.403531667757466"><ele>435.0</ele><time>2026-04-11T10:42:57Z</time></trkpt><trkpt lat="45.070291959219745" lon="7.403416107144016"><ele>435.0</ele><time>2026-04-11T10:42:58Z</time></trkpt><trkpt lat="45.07031748242587" lon="7.403303947435948"><ele>435.0</ele><time>2026-04-11T10:42:59Z</time></trkpt><trkpt lat="45.070350146169815" lon="7.403175651904056"><ele>435.0</ele><time>2026-04-11T10:43:00Z</time></trkpt><trkpt lat="45.07038161656581" lon="7.403061743017389"><ele>435.0</ele><time>2026-04-11T10:43:01Z</time></trkpt><trkpt lat="45.07041237480466" lon="7.402955208125803"><ele>435.0</ele><time>2026-04-11T10:43:02Z</time></trkpt><trkpt lat="45.07043929377796" lon="7.402861970872949"><ele>435.0</ele><time>2026-04-11T10:43:03Z</time></trkpt><trkpt lat="45.07045204393516" lon="7.402759240087203"><ele>435.0</ele><time>2026-04-11T10:43:04Z</time></trkpt><trkpt lat="45.07049515469821" lon="7.4026772242986985"><ele>435.8</ele><time>2026-04-11T10:43:05Z</time></trkpt><trkpt lat="45.0705303980196" lon="7.402561676574427"><ele>436.6</ele><time>2026-04-11T10:43:06Z</time></trkpt><trkpt lat="45.070576696397055" lon="7.402410165402009"><ele>437.4</ele><time>2026-04-11T10:43:07Z</time></trkpt><trkpt lat="45.07062456202242" lon="7.402257970472726"><ele>438.2</ele><time>2026-04-11T10:43:08Z</time></trkpt><trkpt lat="45.070671749603235" lon="7.402107931483551"><ele>439.0</ele><time>2026-04-11T10:43:09Z</time></trkpt><trkpt lat="45.070717817015556" lon="7.401967627921439"><ele>439.75</ele><time>2026-04-11T10:43:10Z</time></trkpt><trkpt lat="45.070765060184286" lon="7.401825497668741"><ele>440.5</ele><time>2026-04-11T10:43:11Z</time></trkpt><trkpt lat="45.07081460366447" lon="7.401682336273682"><ele>441.25</ele><time>2026-04-11T10:43:12Z</time></trkpt><trkpt lat="45.070866556809264" lon="7.401537394159258"><ele>442.0</ele><time>2026-04-11T10:43:13Z</time></trkpt><trkpt lat="45.07092127837148" lon="7.401396014389383"><ele>435.5</ele><time>2026-04-11T10:43:14Z</time></trkpt><trkpt lat="45.07098472641882" lon="7.401263744442482"><ele>429.0</ele><time>2026-04-11T10:43:15Z</time></trkpt><trkpt lat="45.07105435838482" lon="7.401134191770895"><ele>422.5</ele><time>2026-04-11T10:43:16Z</time></trkpt><trkpt lat="45.07112642125828" lon="7.401009050637862"><ele>416.0</ele><time>2026-04-11T10:43:17Z</time></trkpt><trkpt lat="45.07120190075785" lon="7.400880906513635"><ele>416.0</ele><time>2026-04-11T10:43:18Z</time></trkpt><trkpt lat="45.07127420790149" lon="7.400763175370419"><ele>416.0</ele><time>2026-04-11T10:43:19Z</time></trkpt><trkpt lat="45.071345952603" lon="7.400650766209411"><ele>416.0</ele><time>2026-04-11T10:43:20Z</time></trkpt><trkpt lat="45.07141806897476" lon="7.40053797544353"><ele>416.0</ele><time>2026-04-11T10:43:21Z</time></trkpt><trkpt lat="45.07149219782543" lon="7.400422036995962"><ele>416.0</ele><time>2026-04-11T10:43:22Z</time></trkpt><trkpt lat="45.071568338461866" lon="7.400302939549812"><ele>412.20000000000005</ele><time>2026-04-11T10:43:23Z</time></trkpt><trkpt lat="45.07164370175806" lon="7.400184720186515"><ele>408.40000000000003</ele><time>2026-04-11T10:43:24Z</time></trkpt><trkpt lat="45.071718949621754" lon="7.400063859384182"><ele>404.6</ele><time>2026-04-11T10:43:25Z</time></trkpt><trkpt lat="45.071788771149" lon="7.399945975030686"><ele>400.8</ele><time>2026-04-11T10:43:26Z</time></trkpt><trkpt lat="45.071854502094006" lon="7.39982994876162"><ele>397.0</ele><time>2026-04-11T10:43:27Z</time></trkpt><trkpt lat="45.07192106768483" lon="7.399714833077559"><ele>397.20000000000005</ele><time>2026-04-11T10:43:28Z</time></trkpt><trkpt lat="45.07198967634177" lon="7.399603416158498"><ele>397.4</ele><time>2026-04-11T10:43:29Z</time></trkpt><trkpt lat="45.072063659088705" lon="7.399491930566227"><ele>397.6</ele><time>2026-04-11T10:43:30Z</time></trkpt><trkpt lat="45.07213551478028" lon="7.3993856117384045"><ele>397.79999999999995</ele><time>2026-04-11T10:43:31Z</time></trkpt><trkpt lat="45.07220387289182" lon="7.399293372686001"><ele>398.0</ele><time>2026-04-11T10:43:32Z</time></trkpt><trkpt lat="45.07227657897707" lon="7.399210430102906"><ele>398.0</ele><time>2026-04-11T10:43:33Z</time></trkpt><trkpt lat="45.07235949348433" lon="7.3991190887297025"><ele>398.0</ele><time>2026-04-11T10:43:34Z</time></trkpt><trkpt lat="45.07246567995364" lon="7.399069797386142"><ele>398.0</ele><time>2026-04-11T10:43:35Z</time></trkpt><trkpt lat="45.07258993604792" lon="7.399031644962553"><ele>398.0</ele><time>2026-04-11T10:43:36Z</time></trkpt><trkpt lat="45.072710787726905" lon="7.399030130696653"><ele>395.75</ele><time>2026-04-11T10:43:37Z</time></trkpt><trkpt lat="45.07283816292535" lon="7.39904040779703"><ele>393.5</ele><time>2026-04-11T10:43:38Z</time></trkpt><trkpt lat="45.07296145905018" lon="7.399072080429156"><ele>391.25</ele><time>2026-04-11T10:43:39Z</time></trkpt><trkpt lat="45.07307505945875" lon="7.399090058218676"><ele>389.0</ele><time>2026-04-11T10:43:40Z</time></trkpt><trkpt lat="45.07318575497122" lon="7.399120424026186"><ele>388.4</ele><time>2026-04-11T10:43:41Z</time></trkpt><trkpt lat="45.073298693863684" lon="7.39914467550058"><ele>387.79999999999995</ele><time>2026-04-11T10:43:42Z</time></trkpt><trkpt lat="45.07340426842811" lon="7.399164756994081"><ele>387.20000000000005</ele><time>2026-04-11T10:43:43Z</time></trkpt><trkpt lat="45.073498696731185" lon="7.39917940726633"><ele>386.6</ele><time>2026-04-11T10:43:44Z</time></trkpt><trkpt lat="45.07359481085645" lon="7.399197680388394"><ele>386.0</ele><time>2026-04-11T10:43:45Z</time></trkpt><trkpt lat="45.07368498790922" lon="7.3992184833468535"><ele>386.0</ele><time>2026-04-11T10:43:46Z</time></trkpt><trkpt lat="45.0737593827748" lon="7.3992317835588635"><ele>386.0</ele><time>2026-04-11T10:43:47Z</time></trkpt><trkpt lat="45.07385238150786" lon="7.399242628114053"><ele>386.0</ele><time>2026-04-11T10:43:49Z</time></trkpt><trkpt lat="45.07384140364701" lon="7.399470239404773"><ele>386.0</ele><time>2026-04-11T10:44:28Z</time></trkpt><trkpt lat="45.073780073554836" lon="7.399591119414299"><ele>386.0</ele><time>2026-04-11T10:44:29Z</time></trkpt><trkpt lat="45.07373820227088" lon="7.399722994261857"><ele>385.4</ele><time>2026-04-11T10:44:30Z</time></trkpt><trkpt lat="45.07370431564697" lon="7.399869117152619"><ele>384.8</ele><time>2026-04-11T10:44:31Z</time></trkpt><trkpt lat="45.073677452208265" lon="7.4000252551022285"><ele>384.2</ele><time>2026-04-11T10:44:32Z</time></trkpt><trkpt lat="45.07364771776552" lon="7.400177326417225"><ele>383.59999999999997</ele><time>2026-04-11T10:44:33Z</time></trkpt><trkpt lat="45.0736188405764" lon="7.4003212881693585"><ele>383.0</ele><time>2026-04-11T10:44:34Z</time></trkpt><trkpt lat="45.073573097211636" lon="7.400472843734808"><ele>382.5</ele><time>2026-04-11T10:44:35Z</time></trkpt><trkpt lat="45.07352326508406" lon="7.400608577060539"><ele>382.0</ele><time>2026-04-11T10:44:36Z</time></trkpt><trkpt lat="45.07345964888715" lon="7.400742866928497"><ele>381.5</ele><time>2026-04-11T10:44:37Z</time></trkpt><trkpt lat="45.073381916755594" lon="7.400873576767411"><ele>381.0</ele><time>2026-04-11T10:44:38Z</time></trkpt><trkpt lat="45.07329765045463" lon="7.400998579115967"><ele>381.4</ele><time>2026-04-11T10:44:39Z</time></trkpt><trkpt lat="45.07321863122388" lon="7.401118532416979"><ele>381.8</ele><time>2026-04-11T10:44:40Z</time></trkpt><trkpt lat="45.07314376302243" lon="7.401219949412536"><ele>382.2</ele><time>2026-04-11T10:44:41Z</time></trkpt><trkpt lat="45.073061918392995" lon="7.401293250491741"><ele>382.59999999999997</ele><time>2026-04-11T10:44:42Z</time></trkpt><trkpt lat="45.07296810686598" lon="7.401357773682086"><ele>383.0</ele><time>2026-04-11T10:44:43Z</time></trkpt><trkpt lat="45.07287096890959" lon="7.401428669732153"><ele>383.0</ele><time>2026-04-11T10:44:44Z</time></trkpt><trkpt lat="45.07274740416196" lon="7.401482577530288"><ele>383.0</ele><time>2026-04-11T10:44:45Z</time></trkpt><trkpt lat="45.072625527697916" lon="7.401522167429568"><ele>383.0</ele><time>2026-04-11T10:44:46Z</time></trkpt><trkpt lat="45.072504018898805" lon="7.401558482446631"><ele>383.0</ele><time>2026-04-11T10:44:47Z</time></trkpt><trkpt lat="45.072395139135935" lon="7.401607623180463"><ele>385.5</ele><time>2026-04-11T10:44:48Z</time></trkpt><trkpt lat="45.07229784871542" lon="7.401684828385714"><ele>388.0</ele><time>2026-04-11T10:44:49Z</time></trkpt><trkpt lat="45.07221288152141" lon="7.401791162534158"><ele>390.5</ele><time>2026-04-11T10:44:50Z</time></trkpt><trkpt lat="45.07213747831135" lon="7.401934899213245"><ele>393.0</ele><time>2026-04-11T10:44:51Z</time></trkpt><trkpt lat="45.072071723011604" lon="7.402100940458279"><ele>392.5</ele><time>2026-04-11T10:44:52Z</time></trkpt><trkpt lat="45.07200173231767" lon="7.402273430505293"><ele>392.0</ele><time>2026-04-11T10:44:53Z</time></trkpt><trkpt lat="45.07193537009711" lon="7.402445100117947"><ele>391.5</ele><time>2026-04-11T10:44:54Z</time></trkpt><trkpt lat="45.071873789571086" lon="7.402620035836491"><ele>391.0</ele><time>2026-04-11T10:44:55Z</time></trkpt><trkpt lat="45.07182321377347" lon="7.402802636059118"><ele>390.25</ele><time>2026-04-11T10:44:56Z</time></trkpt><trkpt lat="45.07178263346016" lon="7.402997726849999"><ele>389.5</ele><time>2026-04-11T10:44:57Z</time></trkpt><trkpt lat="45.07176347645815" lon="7.403199871739191"><ele>388.75</ele><time>2026-04-11T10:44:58Z</time></trkpt><trkpt lat="45.07175393056176" lon="7.403406333110878"><ele>388.0</ele><time>2026-04-11T10:44:59Z</time></trkpt><trkpt lat="45.07174386577827" lon="7.40362336606513"><ele>388.0</ele><time>2026-04-11T10:45:00Z</time></trkpt><trkpt lat="45.07174161796411" lon="7.403880063517141"><ele>388.0</ele><time>2026-04-11T10:45:01Z</time></trkpt><trkpt lat="45.07174757167894" lon="7.404152178981284"><ele>388.0</ele><time>2026-04-11T10:45:02Z</time></trkpt><trkpt lat="45.07173817126945" lon="7.404388567539286"><ele>388.0</ele><time>2026-04-11T10:45:03Z</time></trkpt><trkpt lat="45.07173372685816" lon="7.4045819568643125"><ele>388.0</ele><time>2026-04-11T10:45:04Z</time></trkpt><trkpt lat="45.07172112391263" lon="7.404750701162962"><ele>388.0</ele><time>2026-04-11T10:45:05Z</time></trkpt><trkpt lat="45.07168517282554" lon="7.40488962898537"><ele>388.0</ele><time>2026-04-11T10:45:06Z</time></trkpt><trkpt lat="45.07163858505045" lon="7.405002921820995"><ele>388.2</ele><time>2026-04-11T10:45:07Z</time></trkpt><trkpt lat="45.07159694054765" lon="7.405140763950249"><ele>388.4</ele><time>2026-04-11T10:45:09Z</time></trkpt><trkpt lat="45.07173890256408" lon="7.4052090089818865"><ele>388.59999999999997</ele><time>2026-04-11T10:45:14Z</time></trkpt><trkpt lat="45.07182464645438" lon="7.40518537767166"><ele>388.79999999999995</ele><time>2026-04-11T10:45:15Z</time></trkpt><trkpt lat="45.07190181191697" lon="7.405170065196108"><ele>389.0</ele><time>2026-04-11T10:45:16Z</time></trkpt><trkpt lat="45.071979180432216" lon="7.405145993570326"><ele>389.0</ele><time>2026-04-11T10:45:17Z</time></trkpt><trkpt lat="45.072062594804" lon="7.405112497085761"><ele>389.0</ele><time>2026-04-11T10:45:18Z</time></trkpt><trkpt lat="45.0721492580492" lon="7.4050668744860335"><ele>389.0</ele><time>2026-04-11T10:45:19Z</time></trkpt><trkpt lat="45.07223223462846" lon="7.40500626918282"><ele>389.0</ele><time>2026-04-11T10:45:20Z</time></trkpt><trkpt lat="45.07231582744148" lon="7.404942348118971"><ele>389.0</ele><time>2026-04-11T10:45:21Z</time></trkpt><trkpt lat="45.07239443410649" lon="7.4048754345670025"><ele>388.0</ele><time>2026-04-11T10:45:22Z</time></trkpt><trkpt lat="45.07247610791547" lon="7.404799398555764"><ele>387.0</ele><time>2026-04-11T10:45:23Z</time></trkpt><trkpt lat="45.07255570771942" lon="7.404718399198691"><ele>386.0</ele><time>2026-04-11T10:45:24Z</time></trkpt><trkpt lat="45.072634375004625" lon="7.404634367952761"><ele>385.0</ele><time>2026-04-11T10:45:25Z</time></trkpt><trkpt lat="45.07270564098908" lon="7.4045314237928"><ele>384.0</ele><time>2026-04-11T10:45:26Z</time></trkpt><trkpt lat="45.0727696773701" lon="7.404435886371962"><ele>384.0</ele><time>2026-04-11T10:45:27Z</time></trkpt><trkpt lat="45.072840525075115" lon="7.404348082753373"><ele>384.0</ele><time>2026-04-11T10:45:28Z</time></trkpt><trkpt lat="45.0729318574773" lon="7.404308040958146"><ele>384.0</ele><time>2026-04-11T10:45:29Z</time></trkpt><trkpt lat="45.07303280152674" lon="7.404298087098308"><ele>384.0</ele><time>2026-04-11T10:45:30Z</time></trkpt><trkpt lat="45.07314007120507" lon="7.404271631059463"><ele>384.0</ele><time>2026-04-11T10:45:31Z</time></trkpt><trkpt lat="45.07323954063563" lon="7.404282619651367"><ele>383.3333333333333</ele><time>2026-04-11T10:45:32Z</time></trkpt><trkpt lat="45.073326791106126" lon="7.404282280572684"><ele>382.6666666666667</ele><time>2026-04-11T10:45:33Z</time></trkpt><trkpt lat="45.07340130075721" lon="7.404281149647236"><ele>382.0</ele><time>2026-04-11T10:45:34Z</time></trkpt><trkpt lat="45.073478783950215" lon="7.404284646027235"><ele>381.33333333333337</ele><time>2026-04-11T10:45:35Z</time></trkpt><trkpt lat="45.07356758750212" lon="7.404286193988808"><ele>380.6666666666667</ele><time>2026-04-11T10:45:36Z</time></trkpt><trkpt lat="45.073669883987144" lon="7.404307541790815"><ele>380.0</ele><time>2026-04-11T10:45:37Z</time></trkpt><trkpt lat="45.07376773817075" lon="7.404264168371269"><ele>380.0</ele><time>2026-04-11T10:45:38Z</time></trkpt><trkpt lat="45.073853286752566" lon="7.404205113085006"><ele>380.0</ele><time>2026-04-11T10:45:39Z</time></trkpt><trkpt lat="45.07392706462362" lon="7.404123212688811"><ele>380.0</ele><time>2026-04-11T10:45:40Z</time></trkpt><trkpt lat="45.07400127993313" lon="7.404028426788771"><ele>380.0</ele><time>2026-04-11T10:45:41Z</time></trkpt><trkpt lat="45.07407877340459" lon="7.403964494118458"><ele>380.0</ele><time>2026-04-11T10:45:42Z</time></trkpt><trkpt lat="45.07413925113177" lon="7.4038941046594084"><ele>379.4</ele><time>2026-04-11T10:45:43Z</time></trkpt><trkpt lat="45.074196431932506" lon="7.403797245177087"><ele>378.8</ele><time>2026-04-11T10:45:44Z</time></trkpt><trkpt lat="45.074267711944" lon="7.40371473835969"><ele>378.20000000000005</ele><time>2026-04-11T10:45:45Z</time></trkpt><trkpt lat="45.074338235371805" lon="7.403635001988274"><ele>377.6</ele><time>2026-04-11T10:45:46Z</time></trkpt><trkpt lat="45.07442017245222" lon="7.403573066323395"><ele>377.0</ele><time>2026-04-11T10:45:47Z</time></trkpt><trkpt lat="45.074489689797936" lon="7.403501553787971"><ele>377.0</ele><time>2026-04-11T10:45:48Z</time></trkpt><trkpt lat="45.07455680879177" lon="7.403438876593615"><ele>377.0</ele><time>2026-04-11T10:45:49Z</time></trkpt><trkpt lat="45.074610566643024" lon="7.403389163097385"><ele>377.0</ele><time>2026-04-11T10:45:50Z</time></trkpt><trkpt lat="45.074686832820845" lon="7.403318818275422"><ele>377.0</ele><time>2026-04-11T10:45:51Z</time></trkpt><trkpt lat="45.07478057043186" lon="7.4032731535342515"><ele>377.0</ele><time>2026-04-11T10:45:52Z</time></trkpt><trkpt lat="45.0748744235848" lon="7.403259544791701"><ele>377.0</ele><time>2026-04-11T10:45:53Z</time></trkpt><trkpt lat="45.074959980937884" lon="7.403258732250001"><ele>376.33333333333337</ele><time>2026-04-11T10:45:54Z</time></trkpt><trkpt lat="45.075032360027244" lon="7.403249421387919"><ele>375.6666666666667</ele><time>2026-04-11T10:45:55Z</time></trkpt><trkpt lat="45.07509847511423" lon="7.403249537825526"><ele>375.0</ele><time>2026-04-11T10:45:56Z</time></trkpt><trkpt lat="45.07520754373907" lon="7.403224604641657"><ele>374.3333333333333</ele><time>2026-04-11T10:45:58Z</time></trkpt><trkpt lat="45.075273936356524" lon="7.403200894723941"><ele>373.66666666666663</ele><time>2026-04-11T10:46:00Z</time></trkpt><trkpt lat="45.07533791222781" lon="7.403184500099577"><ele>373.0</ele><time>2026-04-11T10:46:03Z</time></trkpt><trkpt lat="45.07537563506067" lon="7.403432388041739"><ele>373.0</ele><time>2026-04-11T10:46:06Z</time></trkpt><trkpt lat="45.07538205124124" lon="7.403534694927663"><ele>373.0</ele><time>2026-04-11T10:46:07Z</time></trkpt><trkpt lat="45.07540880808766" lon="7.40370806829995"><ele>373.0</ele><time>2026-04-11T10:46:09Z</time></trkpt><trkpt lat="45.07542799178944" lon="7.403805981268091"><ele>373.0</ele><time>2026-04-11T10:46:10Z</time></trkpt><trkpt lat="45.07544653964536" lon="7.403902324099215"><ele>373.0</ele><time>2026-04-11T10:46:11Z</time></trkpt><trkpt lat="45.07546418380455" lon="7.404009869650285"><ele>373.0</ele><time>2026-04-11T10:46:12Z</time></trkpt><trkpt lat="45.07548234119635" lon="7.404129814356998"><ele>373.0</ele><time>2026-04-11T10:46:13Z</time></trkpt><trkpt lat="45.07549889782871" lon="7.404243460912962"><ele>373.0</ele><time>2026-04-11T10:46:14Z</time></trkpt><trkpt lat="45.075513991578376" lon="7.404346717750999"><ele>373.0</ele><time>2026-04-11T10:46:15Z</time></trkpt><trkpt lat="45.07553016796839" lon="7.4044656205369455"><ele>373.0</ele><time>2026-04-11T10:46:16Z</time></trkpt><trkpt lat="45.07555310747868" lon="7.40458204681502"><ele>373.0</ele><time>2026-04-11T10:46:17Z</time></trkpt><trkpt lat="45.07558389172927" lon="7.404708620471634"><ele>373.0</ele><time>2026-04-11T10:46:18Z</time></trkpt><trkpt lat="45.07562389716681" lon="7.404833522641318"><ele>373.16666666666663</ele><time>2026-04-11T10:46:19Z</time></trkpt><trkpt lat="45.07566229003593" lon="7.404946874197256"><ele>373.3333333333333</ele><time>2026-04-11T10:46:20Z</time></trkpt><trkpt lat="45.07571008998976" lon="7.405052257641158"><ele>373.5</ele><time>2026-04-11T10:46:21Z</time></trkpt><trkpt lat="45.075759062236585" lon="7.405143763074416"><ele>373.6666666666667</ele><time>2026-04-11T10:46:22Z</time></trkpt><trkpt lat="45.0758023196949" lon="7.405228781683338"><ele>373.83333333333337</ele><time>2026-04-11T10:46:23Z</time></trkpt><trkpt lat="45.07583385902169" lon="7.405311752537635"><ele>374.0</ele><time>2026-04-11T10:46:24Z</time></trkpt><trkpt lat="45.07585252964582" lon="7.405401758651819"><ele>374.0</ele><time>2026-04-11T10:46:25Z</time></trkpt><trkpt lat="45.07580162545009" lon="7.405520483969624"><ele>374.0</ele><time>2026-04-11T10:46:26Z</time></trkpt><trkpt lat="45.075729142494694" lon="7.405642740632649"><ele>374.0</ele><time>2026-04-11T10:46:27Z</time></trkpt><trkpt lat="45.075663008451436" lon="7.4057379706436794"><ele>374.0</ele><time>2026-04-11T10:46:28Z</time></trkpt><trkpt lat="45.07558496140189" lon="7.405819674879463"><ele>374.0</ele><time>2026-04-11T10:46:29Z</time></trkpt><trkpt lat="45.07550529991474" lon="7.405897788913514"><ele>374.0</ele><time>2026-04-11T10:46:30Z</time></trkpt><trkpt lat="45.075424226958994" lon="7.405981536247067"><ele>374.0</ele><time>2026-04-11T10:46:31Z</time></trkpt><trkpt lat="45.07535120088177" lon="7.406063599967508"><ele>374.0</ele><time>2026-04-11T10:46:32Z</time></trkpt><trkpt lat="45.07528395272561" lon="7.4061483506884835"><ele>374.0</ele><time>2026-04-11T10:46:33Z</time></trkpt><trkpt lat="45.07521199386971" lon="7.406235834065549"><ele>374.0</ele><time>2026-04-11T10:46:34Z</time></trkpt><trkpt lat="45.075128864622805" lon="7.406327494198662"><ele>373.79999999999995</ele><time>2026-04-11T10:46:35Z</time></trkpt><trkpt lat="45.07505417363305" lon="7.406415732872882"><ele>373.59999999999997</ele><time>2026-04-11T10:46:36Z</time></trkpt><trkpt lat="45.074988916721665" lon="7.4065143718838"><ele>373.4</ele><time>2026-04-11T10:46:37Z</time></trkpt><trkpt lat="45.07493285569918" lon="7.406626773120752"><ele>373.2</ele><time>2026-04-11T10:46:38Z</time></trkpt><trkpt lat="45.074880669493524" lon="7.40675133252033"><ele>373.0</ele><time>2026-04-11T10:46:39Z</time></trkpt><trkpt lat="45.074833417197695" lon="7.406886234893135"><ele>373.0</ele><time>2026-04-11T10:46:40Z</time></trkpt><trkpt lat="45.07479776792666" lon="7.407030889406384"><ele>373.0</ele><time>2026-04-11T10:46:41Z</time></trkpt><trkpt lat="45.07476633068992" lon="7.407188360878146"><ele>373.0</ele><time>2026-04-11T10:46:42Z</time></trkpt><trkpt lat="45.0747440673586" lon="7.407348892886036"><ele>373.0</ele><time>2026-04-11T10:46:43Z</time></trkpt><trkpt lat="45.07471996703036" lon="7.407507980597425"><ele>373.0</ele><time>2026-04-11T10:46:44Z</time></trkpt><trkpt lat="45.074692567515534" lon="7.407666234895351"><ele>373.0</ele><time>2026-04-11T10:46:45Z</time></trkpt><trkpt lat="45.07465723179293" lon="7.407821618691877"><ele>373.0</ele><time>2026-04-11T10:46:46Z</time></trkpt><trkpt lat="45.074613252416505" lon="7.407974688085046"><ele>373.0</ele><time>2026-04-11T10:46:47Z</time></trkpt><trkpt lat="45.07455167927093" lon="7.408128523435495"><ele>372.75</ele><time>2026-04-11T10:46:48Z</time></trkpt><trkpt lat="45.07446918733643" lon="7.408271419094395"><ele>372.5</ele><time>2026-04-11T10:46:49Z</time></trkpt><trkpt lat="45.07436696806363" lon="7.408417451695946"><ele>372.25</ele><time>2026-04-11T10:46:50Z</time></trkpt><trkpt lat="45.07424431742275" lon="7.40858072362475"><ele>372.0</ele><time>2026-04-11T10:46:51Z</time></trkpt><trkpt lat="45.07411106371487" lon="7.408744492658541"><ele>374.3333333333333</ele><time>2026-04-11T10:46:52Z</time></trkpt><trkpt lat="45.07397962360174" lon="7.408889645542547"><ele>376.66666666666663</ele><time>2026-04-11T10:46:53Z</time></trkpt><trkpt lat="45.07385575642099" lon="7.40903950040823"><ele>379.0</ele><time>2026-04-11T10:46:54Z</time></trkpt><trkpt lat="45.07375053267248" lon="7.409177252815019"><ele>379.0</ele><time>2026-04-11T10:46:55Z</time></trkpt><trkpt lat="45.07364763693051" lon="7.409314822608137"><ele>379.0</ele><time>2026-04-11T10:46:56Z</time></trkpt><trkpt lat="45.07355116373257" lon="7.409458797133625"><ele>379.0</ele><time>2026-04-11T10:46:57Z</time></trkpt><trkpt lat="45.07345855274201" lon="7.409599681131669"><ele>379.0</ele><time>2026-04-11T10:46:58Z</time></trkpt><trkpt lat="45.073368649687" lon="7.409748684564423"><ele>379.5</ele><time>2026-04-11T10:46:59Z</time></trkpt><trkpt lat="45.07328060046521" lon="7.409899998743923"><ele>380.0</ele><time>2026-04-11T10:47:00Z</time></trkpt><trkpt lat="45.07319301966604" lon="7.410058810007328"><ele>380.5</ele><time>2026-04-11T10:47:01Z</time></trkpt><trkpt lat="45.07311096305442" lon="7.410223990498046"><ele>381.0</ele><time>2026-04-11T10:47:02Z</time></trkpt><trkpt lat="45.07303157416896" lon="7.410391780353786"><ele>383.25</ele><time>2026-04-11T10:47:03Z</time></trkpt><trkpt lat="45.07295158873353" lon="7.410559882379383"><ele>385.5</ele><time>2026-04-11T10:47:04Z</time></trkpt><trkpt lat="45.07287221624744" lon="7.410727780870598"><ele>387.75</ele><time>2026-04-11T10:47:05Z</time></trkpt><trkpt lat="45.072791073324545" lon="7.41089711911852"><ele>390.0</ele><time>2026-04-11T10:47:06Z</time></trkpt><trkpt lat="45.0727174998929" lon="7.411063327823701"><ele>390.0</ele><time>2026-04-11T10:47:07Z</time></trkpt><trkpt lat="45.07265406147545" lon="7.411231166112868"><ele>390.0</ele><time>2026-04-11T10:47:08Z</time></trkpt><trkpt lat="45.07258990445691" lon="7.411381981648187"><ele>390.0</ele><time>2026-04-11T10:47:09Z</time></trkpt><trkpt lat="45.07253907467783" lon="7.411530506871949"><ele>390.0</ele><time>2026-04-11T10:47:10Z</time></trkpt><trkpt lat="45.07250384358535" lon="7.41166190747666"><ele>389.6</ele><time>2026-04-11T10:47:11Z</time></trkpt><trkpt lat="45.07247354784639" lon="7.411779058392771"><ele>389.2</ele><time>2026-04-11T10:47:12Z</time></trkpt><trkpt lat="45.07243012646046" lon="7.41189021952267"><ele>388.79999999999995</ele><time>2026-04-11T10:47:13Z</time></trkpt><trkpt lat="45.07236719028898" lon="7.411980222149634"><ele>388.4</ele><time>2026-04-11T10:47:14Z</time></trkpt><trkpt lat="45.07228223314603" lon="7.412052206257978"><ele>388.0</ele><time>2026-04-11T10:47:15Z</time></trkpt><trkpt lat="45.07219433704685" lon="7.412127216009443"><ele>390.83333333333337</ele><time>2026-04-11T10:47:16Z</time></trkpt><trkpt lat="45.0721459977082" lon="7.412230336472479"><ele>393.6666666666667</ele><time>2026-04-11T10:47:17Z</time></trkpt><trkpt lat="45.07213008515424" lon="7.412357332965046"><ele>396.5</ele><time>2026-04-11T10:47:18Z</time></trkpt><trkpt lat="45.07213498031901" lon="7.412483486869235"><ele>399.33333333333337</ele><time>2026-04-11T10:47:19Z</time></trkpt><trkpt lat="45.07216647252146" lon="7.41258414525494"><ele>402.1666666666667</ele><time>2026-04-11T10:47:20Z</time></trkpt><trkpt lat="45.07211141161278" lon="7.412707699866464"><ele>405.0</ele><time>2026-04-11T10:47:21Z</time></trkpt><trkpt lat="45.07206353821719" lon="7.412813245340193"><ele>405.0</ele><time>2026-04-11T10:47:22Z</time></trkpt><trkpt lat="45.07200470650215" lon="7.412920703130031"><ele>405.0</ele><time>2026-04-11T10:47:23Z</time></trkpt><trkpt lat="45.071950877026374" lon="7.41303123036596"><ele>405.0</ele><time>2026-04-11T10:47:24Z</time></trkpt><trkpt lat="45.071894827638026" lon="7.413144749006344"><ele>405.0</ele><time>2026-04-11T10:47:25Z</time></trkpt><trkpt lat="45.07184352640671" lon="7.41326250682102"><ele>405.0</ele><time>2026-04-11T10:47:26Z</time></trkpt><trkpt lat="45.07179436539825" lon="7.4133856587263205"><ele>403.5</ele><time>2026-04-11T10:47:27Z</time></trkpt><trkpt lat="45.071743649877426" lon="7.4135233776378255"><ele>402.0</ele><time>2026-04-11T10:47:28Z</time></trkpt><trkpt lat="45.0716851330418" lon="7.413670933514162"><ele>400.5</ele><time>2026-04-11T10:47:29Z</time></trkpt><trkpt lat="45.07162218929294" lon="7.413814804377326"><ele>399.0</ele><time>2026-04-11T10:47:30Z</time></trkpt><trkpt lat="45.071558814174466" lon="7.413956124304766"><ele>401.79999999999995</ele><time>2026-04-11T10:47:31Z</time></trkpt><trkpt lat="45.07150132303621" lon="7.414094573521843"><ele>404.59999999999997</ele><time>2026-04-11T10:47:32Z</time></trkpt><trkpt lat="45.07144344314644" lon="7.4142299750195875"><ele>407.4</ele><time>2026-04-11T10:47:33Z</time></trkpt><trkpt lat="45.07138701094007" lon="7.414356745804866"><ele>410.2</ele><time>2026-04-11T10:47:34Z</time></trkpt><trkpt lat="45.07133549015458" lon="7.414485345488313"><ele>413.0</ele><time>2026-04-11T10:47:35Z</time></trkpt><trkpt lat="45.07129179820942" lon="7.4146136678269485"><ele>412.59999999999997</ele><time>2026-04-11T10:47:36Z</time></trkpt><trkpt lat="45.071249950498014" lon="7.414750238586207"><ele>412.2</ele><time>2026-04-11T10:47:37Z</time></trkpt><trkpt lat="45.07121124654799" lon="7.414881898004872"><ele>411.8</ele><time>2026-04-11T10:47:38Z</time></trkpt><trkpt lat="45.071173265859784" lon="7.4150166579791685"><ele>411.4</ele><time>2026-04-11T10:47:39Z</time></trkpt><trkpt lat="45.07113461544229" lon="7.415149739169443"><ele>411.0</ele><time>2026-04-11T10:47:40Z</time></trkpt><trkpt lat="45.071103617461354" lon="7.415285408446167"><ele>411.0</ele><time>2026-04-11T10:47:41Z</time></trkpt><trkpt lat="45.07107082790685" lon="7.4154220956724055"><ele>411.0</ele><time>2026-04-11T10:47:42Z</time></trkpt><trkpt lat="45.071031215691164" lon="7.415569198119061"><ele>411.0</ele><time>2026-04-11T10:47:43Z</time></trkpt><trkpt lat="45.070989321179134" lon="7.415734890174735"><ele>411.0</ele><time>2026-04-11T10:47:44Z</time></trkpt><trkpt lat="45.070938195581725" lon="7.415894997368227"><ele>410.5</ele><time>2026-04-11T10:47:45Z</time></trkpt><trkpt lat="45.07088635929663" lon="7.416065690584195"><ele>410.0</ele><time>2026-04-11T10:47:46Z</time></trkpt><trkpt lat="45.0708405405259" lon="7.416253119337203"><ele>409.5</ele><time>2026-04-11T10:47:47Z</time></trkpt><trkpt lat="45.07078896566267" lon="7.4164376358214215"><ele>409.0</ele><time>2026-04-11T10:47:48Z</time></trkpt><trkpt lat="45.070732472128896" lon="7.416609294174112"><ele>411.75</ele><time>2026-04-11T10:47:49Z</time></trkpt><trkpt lat="45.07069618705038" lon="7.416771474061525"><ele>414.5</ele><time>2026-04-11T10:47:50Z</time></trkpt><trkpt lat="45.07065301755595" lon="7.416942389611278"><ele>417.25</ele><time>2026-04-11T10:47:51Z</time></trkpt><trkpt lat="45.07061021163669" lon="7.417119363786598"><ele>420.0</ele><time>2026-04-11T10:47:52Z</time></trkpt><trkpt lat="45.07056642794246" lon="7.417300640997961"><ele>420.0</ele><time>2026-04-11T10:47:53Z</time></trkpt><trkpt lat="45.070525246242845" lon="7.417483281223808"><ele>420.0</ele><time>2026-04-11T10:47:54Z</time></trkpt><trkpt lat="45.07048471709328" lon="7.4176714591727"><ele>420.0</ele><time>2026-04-11T10:47:55Z</time></trkpt><trkpt lat="45.07044999517647" lon="7.417862082485841"><ele>420.0</ele><time>2026-04-11T10:47:56Z</time></trkpt><trkpt lat="45.07042047120626" lon="7.418053794178623"><ele>419.75</ele><time>2026-04-11T10:47:57Z</time></trkpt><trkpt lat="45.07038946905881" lon="7.4182649362351745"><ele>419.5</ele><time>2026-04-11T10:47:58Z</time></trkpt><trkpt lat="45.0703719786768" lon="7.418456654349316"><ele>419.25</ele><time>2026-04-11T10:47:59Z</time></trkpt><trkpt lat="45.07035002813546" lon="7.418637509664715"><ele>419.0</ele><time>2026-04-11T10:48:00Z</time></trkpt><trkpt lat="45.07032879374181" lon="7.418820041774808"><ele>418.25</ele><time>2026-04-11T10:48:01Z</time></trkpt><trkpt lat="45.070315352169196" lon="7.418999410648986"><ele>417.5</ele><time>2026-04-11T10:48:02Z</time></trkpt><trkpt lat="45.070313325587634" lon="7.419183141824897"><ele>416.75</ele><time>2026-04-11T10:48:03Z</time></trkpt><trkpt lat="45.070318763834145" lon="7.419365777019319"><ele>416.0</ele><time>2026-04-11T10:48:04Z</time></trkpt><trkpt lat="45.07033217582294" lon="7.4195405948626085"><ele>415.49999999999994</ele><time>2026-04-11T10:48:05Z</time></trkpt><trkpt lat="45.070335836476524" lon="7.419710787194662"><ele>415.0</ele><time>2026-04-11T10:48:06Z</time></trkpt><trkpt lat="45.07033129629886" lon="7.419813094466224"><ele>414.5</ele><time>2026-04-11T10:48:07Z</time></trkpt><trkpt lat="45.07030978740309" lon="7.419926451265012"><ele>414.0</ele><time>2026-04-11T10:48:08Z</time></trkpt><trkpt lat="45.07027069634988" lon="7.420019570589858"><ele>413.49999999999994</ele><time>2026-04-11T10:48:09Z</time></trkpt><trkpt lat="45.07022253078036" lon="7.420103851246538"><ele>413.0</ele><time>2026-04-11T10:48:10Z</time></trkpt><trkpt lat="45.07020669502204" lon="7.420205111498842"><ele>413.0</ele><time>2026-04-11T10:48:11Z</time></trkpt><trkpt lat="45.070217015731295" lon="7.420323471904448"><ele>413.0</ele><time>2026-04-11T10:48:12Z</time></trkpt><trkpt lat="45.07029244153281" lon="7.42041943621395"><ele>413.0</ele><time>2026-04-11T10:48:13Z</time></trkpt><trkpt lat="45.07025240024654" lon="7.420609182011395"><ele>413.0</ele><time>2026-04-11T10:48:14Z</time></trkpt><trkpt lat="45.0702260045928" lon="7.420777156513782"><ele>413.0</ele><time>2026-04-11T10:48:15Z</time></trkpt><trkpt lat="45.070183361399" lon="7.420964576713452"><ele>413.0</ele><time>2026-04-11T10:48:16Z</time></trkpt><trkpt lat="45.07012317378076" lon="7.421181766550212"><ele>413.0</ele><time>2026-04-11T10:48:17Z</time></trkpt><trkpt lat="45.0700565989891" lon="7.421435193880268"><ele>413.0</ele><time>2026-04-11T10:48:18Z</time></trkpt><trkpt lat="45.06998236443739" lon="7.421721604977185"><ele>415.0</ele><time>2026-04-11T10:48:19Z</time></trkpt><trkpt lat="45.069903296240994" lon="7.422037414316688"><ele>417.0</ele><time>2026-04-11T10:48:20Z</time></trkpt><trkpt lat="45.06986339238118" lon="7.422347849871798"><ele>417.0</ele><time>2026-04-11T10:48:21Z</time></trkpt><trkpt lat="45.069805335110054" lon="7.422673558108839"><ele>417.0</ele><time>2026-04-11T10:48:22Z</time></trkpt><trkpt lat="45.069738320256434" lon="7.423019820135771"><ele>417.0</ele><time>2026-04-11T10:48:23Z</time></trkpt><trkpt lat="45.06965621992305" lon="7.423372316050619"><ele>417.0</ele><time>2026-04-11T10:48:24Z</time></trkpt><trkpt lat="45.069558238119555" lon="7.423737840543435"><ele>418.5</ele><time>2026-04-11T10:48:25Z</time></trkpt><trkpt lat="45.069450249768195" lon="7.424086269096087"><ele>420.0</ele><time>2026-04-11T10:48:26Z</time></trkpt><trkpt lat="45.06935495519371" lon="7.424383062814509"><ele>420.33333333333337</ele><time>2026-04-11T10:48:27Z</time></trkpt><trkpt lat="45.06926728216921" lon="7.424656174999542"><ele>420.6666666666667</ele><time>2026-04-11T10:48:28Z</time></trkpt><trkpt lat="45.069178411425554" lon="7.424917813615928"><ele>421.0</ele><time>2026-04-11T10:48:29Z</time></trkpt><trkpt lat="45.06909647995112" lon="7.425172473614744"><ele>421.33333333333337</ele><time>2026-04-11T10:48:30Z</time></trkpt><trkpt lat="45.06902015891559" lon="7.425419540778376"><ele>421.66666666666663</ele><time>2026-04-11T10:48:31Z</time></trkpt><trkpt lat="45.068946449369534" lon="7.425656984806865"><ele>422.0</ele><time>2026-04-11T10:48:32Z</time></trkpt><trkpt lat="45.06887850294064" lon="7.4258717952573035"><ele>423.0</ele><time>2026-04-11T10:48:33Z</time></trkpt><trkpt lat="45.06880763967477" lon="7.426076880030393"><ele>424.0</ele><time>2026-04-11T10:48:34Z</time></trkpt><trkpt lat="45.068741515281474" lon="7.42627589306267"><ele>425.0</ele><time>2026-04-11T10:48:35Z</time></trkpt><trkpt lat="45.06867867180149" lon="7.426465719834366"><ele>425.25</ele><time>2026-04-11T10:48:36Z</time></trkpt><trkpt lat="45.068618453262225" lon="7.42665153688061"><ele>425.5</ele><time>2026-04-11T10:48:37Z</time></trkpt><trkpt lat="45.06856521823194" lon="7.426823085045908"><ele>425.75</ele><time>2026-04-11T10:48:38Z</time></trkpt><trkpt lat="45.068505424608794" lon="7.427020259449233"><ele>426.0</ele><time>2026-04-11T10:48:39Z</time></trkpt><trkpt lat="45.068443425559046" lon="7.427220166765035"><ele>426.0</ele><time>2026-04-11T10:48:40Z</time></trkpt><trkpt lat="45.0683779541198" lon="7.427428215182185"><ele>426.0</ele><time>2026-04-11T10:48:41Z</time></trkpt><trkpt lat="45.06830857110076" lon="7.4276486675638855"><ele>426.0</ele><time>2026-04-11T10:48:42Z</time></trkpt><trkpt lat="45.06823476718978" lon="7.427886955974121"><ele>424.33333333333337</ele><time>2026-04-11T10:48:43Z</time></trkpt><trkpt lat="45.0681573853395" lon="7.428126539498412"><ele>422.6666666666667</ele><time>2026-04-11T10:48:44Z</time></trkpt><trkpt lat="45.06808419649104" lon="7.428357648306872"><ele>421.0</ele><time>2026-04-11T10:48:45Z</time></trkpt><trkpt lat="45.06801112401168" lon="7.428588748298414"><ele>420.33333333333337</ele><time>2026-04-11T10:48:46Z</time></trkpt><trkpt lat="45.06793708391202" lon="7.4288189026957525"><ele>419.66666666666663</ele><time>2026-04-11T10:48:47Z</time></trkpt><trkpt lat="45.067864281099965" lon="7.429051981927881"><ele>419.0</ele><time>2026-04-11T10:48:48Z</time></trkpt><trkpt lat="45.06779133496536" lon="7.42927851480741"><ele>419.0</ele><time>2026-04-11T10:48:49Z</time></trkpt><trkpt lat="45.0677211538386" lon="7.429506696929624"><ele>419.0</ele><time>2026-04-11T10:48:50Z</time></trkpt><trkpt lat="45.067647999657865" lon="7.429729516553197"><ele>419.0</ele><time>2026-04-11T10:48:51Z</time></trkpt><trkpt lat="45.06757566393809" lon="7.4299484072846"><ele>419.3333333333333</ele><time>2026-04-11T10:48:52Z</time></trkpt><trkpt lat="45.06750599307715" lon="7.430165106081865"><ele>419.66666666666663</ele><time>2026-04-11T10:48:53Z</time></trkpt><trkpt lat="45.06743931972452" lon="7.4303848294653925"><ele>420.0</ele><time>2026-04-11T10:48:54Z</time></trkpt><trkpt lat="45.06737115364025" lon="7.4305991387034345"><ele>421.0</ele><time>2026-04-11T10:48:55Z</time></trkpt><trkpt lat="45.06730323004827" lon="7.43080962890115"><ele>422.0</ele><time>2026-04-11T10:48:56Z</time></trkpt><trkpt lat="45.06723746611129" lon="7.431018934782559"><ele>423.0</ele><time>2026-04-11T10:48:57Z</time></trkpt><trkpt lat="45.067172862655454" lon="7.431229894106194"><ele>423.0</ele><time>2026-04-11T10:48:58Z</time></trkpt><trkpt lat="45.06711413354399" lon="7.431442383456772"><ele>423.0</ele><time>2026-04-11T10:48:59Z</time></trkpt><trkpt lat="45.06705295394123" lon="7.431668422789055"><ele>423.0</ele><time>2026-04-11T10:49:00Z</time></trkpt><trkpt lat="45.06700106216127" lon="7.431898560747659"><ele>423.0</ele><time>2026-04-11T10:49:01Z</time></trkpt><trkpt lat="45.06695926518274" lon="7.432134409115466"><ele>423.0</ele><time>2026-04-11T10:49:02Z</time></trkpt><trkpt lat="45.0669204376067" lon="7.432369843099049"><ele>423.0</ele><time>2026-04-11T10:49:03Z</time></trkpt><trkpt lat="45.06688743025919" lon="7.432605552376342"><ele>423.0</ele><time>2026-04-11T10:49:04Z</time></trkpt><trkpt lat="45.06685109607354" lon="7.432837685707862"><ele>423.0</ele><time>2026-04-11T10:49:05Z</time></trkpt><trkpt lat="45.06681991403987" lon="7.4330727533357885"><ele>423.0</ele><time>2026-04-11T10:49:06Z</time></trkpt><trkpt lat="45.06678339712012" lon="7.4333035018538105"><ele>423.0</ele><time>2026-04-11T10:49:07Z</time></trkpt><trkpt lat="45.06674743124008" lon="7.433528233117238"><ele>423.0</ele><time>2026-04-11T10:49:08Z</time></trkpt><trkpt lat="45.066716035896306" lon="7.433747044428823"><ele>423.0</ele><time>2026-04-11T10:49:09Z</time></trkpt><trkpt lat="45.06668846176294" lon="7.433944162822235"><ele>423.0</ele><time>2026-04-11T10:49:10Z</time></trkpt><trkpt lat="45.066662202540904" lon="7.434139649467509"><ele>423.0</ele><time>2026-04-11T10:49:11Z</time></trkpt><trkpt lat="45.066634202120575" lon="7.434325228601181"><ele>423.0</ele><time>2026-04-11T10:49:12Z</time></trkpt><trkpt lat="45.06660878874357" lon="7.434501159971475"><ele>423.0</ele><time>2026-04-11T10:49:13Z</time></trkpt><trkpt lat="45.06657848525317" lon="7.434673572077411"><ele>424.25</ele><time>2026-04-11T10:49:14Z</time></trkpt><trkpt lat="45.06655021696962" lon="7.434853237865456"><ele>425.5</ele><time>2026-04-11T10:49:15Z</time></trkpt><trkpt lat="45.06652141797903" lon="7.435039092673373"><ele>426.75</ele><time>2026-04-11T10:49:16Z</time></trkpt><trkpt lat="45.066493262283984" lon="7.435229365493968"><ele>428.0</ele><time>2026-04-11T10:49:17Z</time></trkpt><trkpt lat="45.066466416634704" lon="7.435419745535467"><ele>428.0</ele><time>2026-04-11T10:49:18Z</time></trkpt><trkpt lat="45.0664419775786" lon="7.435599011269651"><ele>428.0</ele><time>2026-04-11T10:49:19Z</time></trkpt><trkpt lat="45.066423964029994" lon="7.435763067600151"><ele>428.0</ele><time>2026-04-11T10:49:20Z</time></trkpt><trkpt lat="45.06640623888754" lon="7.43591739316958"><ele>428.0</ele><time>2026-04-11T10:49:21Z</time></trkpt><trkpt lat="45.06638843452246" lon="7.436064745258366"><ele>428.0</ele><time>2026-04-11T10:49:22Z</time></trkpt><trkpt lat="45.0663763775915" lon="7.436202402301331"><ele>427.99999999999994</ele><time>2026-04-11T10:49:23Z</time></trkpt><trkpt lat="45.0663736756049" lon="7.436333298113367"><ele>427.99999999999994</ele><time>2026-04-11T10:49:24Z</time></trkpt><trkpt lat="45.06637446391519" lon="7.436445624621596"><ele>428.0</ele><time>2026-04-11T10:49:25Z</time></trkpt><trkpt lat="45.066338030447106" lon="7.436554228547076"><ele>428.0</ele><time>2026-04-11T10:49:27Z</time></trkpt><trkpt lat="45.066243097737214" lon="7.436531011446988"><ele>428.4</ele><time>2026-04-11T10:49:28Z</time></trkpt><trkpt lat="45.0661583213664" lon="7.436524079906331"><ele>428.79999999999995</ele><time>2026-04-11T10:49:29Z</time></trkpt><trkpt lat="45.066059241981556" lon="7.436529100260886"><ele>429.2</ele><time>2026-04-11T10:49:30Z</time></trkpt><trkpt lat="45.06595943778402" lon="7.436494529466481"><ele>429.6</ele><time>2026-04-11T10:49:31Z</time></trkpt><trkpt lat="45.065858282741075" lon="7.436462948099123"><ele>430.0</ele><time>2026-04-11T10:49:32Z</time></trkpt><trkpt lat="45.06575351909176" lon="7.436424046347002"><ele>431.6</ele><time>2026-04-11T10:49:33Z</time></trkpt><trkpt lat="45.065645228383445" lon="7.436400471678589"><ele>433.2</ele><time>2026-04-11T10:49:34Z</time></trkpt><trkpt lat="45.065541170789636" lon="7.436408914238023"><ele>434.79999999999995</ele><time>2026-04-11T10:49:35Z</time></trkpt><trkpt lat="45.06544126004861" lon="7.43643061411089"><ele>436.4</ele><time>2026-04-11T10:49:36Z</time></trkpt><trkpt lat="45.0653387448679" lon="7.4364590260296595"><ele>438.0</ele><time>2026-04-11T10:49:37Z</time></trkpt><trkpt lat="45.065231961677526" lon="7.43648748815854"><ele>438.0</ele><time>2026-04-11T10:49:38Z</time></trkpt><trkpt lat="45.065135612873526" lon="7.436522690697916"><ele>437.99999999999994</ele><time>2026-04-11T10:49:39Z</time></trkpt><trkpt lat="45.065039201112015" lon="7.436548835655165"><ele>437.99999999999994</ele><time>2026-04-11T10:49:40Z</time></trkpt><trkpt lat="45.06493389631848" lon="7.436546450872369"><ele>438.0</ele><time>2026-04-11T10:49:41Z</time></trkpt><trkpt lat="45.06483344734582" lon="7.436561076008766"><ele>438.0</ele><time>2026-04-11T10:49:42Z</time></trkpt><trkpt lat="45.0647358022131" lon="7.436558523856397"><ele>438.59999999999997</ele><time>2026-04-11T10:49:43Z</time></trkpt><trkpt lat="45.06463312693138" lon="7.436540410543569"><ele>439.19999999999993</ele><time>2026-04-11T10:49:44Z</time></trkpt><trkpt lat="45.06452323029379" lon="7.4365153380887925"><ele>439.8</ele><time>2026-04-11T10:49:45Z</time></trkpt><trkpt lat="45.064434216482134" lon="7.43649801641892"><ele>440.4</ele><time>2026-04-11T10:49:46Z</time></trkpt><trkpt lat="45.064340757945985" lon="7.436504729438706"><ele>441.0</ele><time>2026-04-11T10:49:48Z</time></trkpt><trkpt lat="45.06427318872496" lon="7.4365204424304165"><ele>441.0</ele><time>2026-04-11T10:49:58Z</time></trkpt><trkpt lat="45.064190289471235" lon="7.43651966081616"><ele>441.0</ele><time>2026-04-11T10:49:59Z</time></trkpt><trkpt lat="45.06406149171053" lon="7.436523164452739"><ele>441.0</ele><time>2026-04-11T10:50:00Z</time></trkpt><trkpt lat="45.063947059654744" lon="7.436526277333105"><ele>441.0</ele><time>2026-04-11T10:50:01Z</time></trkpt><trkpt lat="45.06383485758892" lon="7.4365288670050465"><ele>441.0</ele><time>2026-04-11T10:50:02Z</time></trkpt><trkpt lat="45.06372693653241" lon="7.436534410044247"><ele>442.25</ele><time>2026-04-11T10:50:03Z</time></trkpt><trkpt lat="45.063599976102985" lon="7.436539012434124"><ele>443.5</ele><time>2026-04-11T10:50:04Z</time></trkpt><trkpt lat="45.063466915029856" lon="7.436532693844304"><ele>444.75</ele><time>2026-04-11T10:50:05Z</time></trkpt><trkpt lat="45.063333571685256" lon="7.43652339352876"><ele>446.0</ele><time>2026-04-11T10:50:06Z</time></trkpt><trkpt lat="45.06321191573306" lon="7.436518152639733"><ele>447.75</ele><time>2026-04-11T10:50:07Z</time></trkpt><trkpt lat="45.06311101131558" lon="7.436497500329052"><ele>449.5</ele><time>2026-04-11T10:50:08Z</time></trkpt><trkpt lat="45.06301352433706" lon="7.436443284396869"><ele>451.25</ele><time>2026-04-11T10:50:09Z</time></trkpt><trkpt lat="45.062911938093265" lon="7.436351105314767"><ele>453.0</ele><time>2026-04-11T10:50:10Z</time></trkpt><trkpt lat="45.06281385110112" lon="7.436244928131121"><ele>453.0</ele><time>2026-04-11T10:50:11Z</time></trkpt><trkpt lat="45.06273532493701" lon="7.436206818816225"><ele>452.99999999999994</ele><time>2026-04-11T10:50:12Z</time></trkpt><trkpt lat="45.06266544579157" lon="7.436203969219399"><ele>452.99999999999994</ele><time>2026-04-11T10:50:13Z</time></trkpt><trkpt lat="45.06254803147267" lon="7.436371217669545"><ele>453.0</ele><time>2026-04-11T10:50:15Z</time></trkpt><trkpt lat="45.06248573302117" lon="7.436517399820408"><ele>453.0</ele><time>2026-04-11T10:50:16Z</time></trkpt><trkpt lat="45.0624183861027" lon="7.436662254155942"><ele>455.0</ele><time>2026-04-11T10:50:17Z</time></trkpt><trkpt lat="45.062370684586746" lon="7.436778266766816"><ele>457.0</ele><time>2026-04-11T10:50:18Z</time></trkpt><trkpt lat="45.06235736732116" lon="7.4369038033092"><ele>459.0</ele><time>2026-04-11T10:50:19Z</time></trkpt><trkpt lat="45.06237283730964" lon="7.43703593405797"><ele>461.0</ele><time>2026-04-11T10:50:20Z</time></trkpt><trkpt lat="45.06240337848161" lon="7.437144461453198"><ele>463.0</ele><time>2026-04-11T10:50:21Z</time></trkpt><trkpt lat="45.06240512255976" lon="7.437246683643488"><ele>465.0</ele><time>2026-04-11T10:50:22Z</time></trkpt><trkpt lat="45.06234950863051" lon="7.43731265223876"><ele>465.2</ele><time>2026-04-11T10:50:23Z</time></trkpt><trkpt lat="45.06228405997006" lon="7.437324296850016"><ele>465.4</ele><time>2026-04-11T10:50:24Z</time></trkpt><trkpt lat="45.062195216911036" lon="7.4373012274494394"><ele>465.6</ele><time>2026-04-11T10:50:26Z</time></trkpt><trkpt lat="45.0621510952929" lon="7.4374981132678295"><ele>465.8</ele><time>2026-04-11T10:50:29Z</time></trkpt><trkpt lat="45.06216802089373" lon="7.437635850499925"><ele>466.0</ele><time>2026-04-11T10:50:30Z</time></trkpt><trkpt lat="45.06218767650726" lon="7.4377787016583365"><ele>466.0</ele><time>2026-04-11T10:50:31Z</time></trkpt><trkpt lat="45.062198787518554" lon="7.437929766382469"><ele>466.0</ele><time>2026-04-11T10:50:32Z</time></trkpt><trkpt lat="45.06220598523704" lon="7.438086277549209"><ele>466.0</ele><time>2026-04-11T10:50:33Z</time></trkpt><trkpt lat="45.06220624818276" lon="7.438244513212494"><ele>466.0</ele><time>2026-04-11T10:50:34Z</time></trkpt><trkpt lat="45.062202587589624" lon="7.438406350198944"><ele>466.0</ele><time>2026-04-11T10:50:35Z</time></trkpt><trkpt lat="45.062197171384945" lon="7.438568969956592"><ele>466.20000000000005</ele><time>2026-04-11T10:50:36Z</time></trkpt><trkpt lat="45.0622041980149" lon="7.438719563005925"><ele>466.40000000000003</ele><time>2026-04-11T10:50:37Z</time></trkpt><trkpt lat="45.06223312162047" lon="7.438872663233747"><ele>466.6</ele><time>2026-04-11T10:50:38Z</time></trkpt><trkpt lat="45.062271683541184" lon="7.439008044696444"><ele>466.8</ele><time>2026-04-11T10:50:39Z</time></trkpt><trkpt lat="45.06229740425303" lon="7.43913100847642"><ele>467.0</ele><time>2026-04-11T10:50:40Z</time></trkpt><trkpt lat="45.06231352066877" lon="7.4392666104462775"><ele>467.16666666666663</ele><time>2026-04-11T10:50:42Z</time></trkpt><trkpt lat="45.06222162259395" lon="7.439295712171579"><ele>467.3333333333333</ele><time>2026-04-11T10:50:43Z</time></trkpt><trkpt lat="45.06215462962733" lon="7.439299421454005"><ele>467.5</ele><time>2026-04-11T10:50:44Z</time></trkpt><trkpt lat="45.06207741587236" lon="7.439272603100096"><ele>467.66666666666663</ele><time>2026-04-11T10:50:45Z</time></trkpt><trkpt lat="45.0619883986724" lon="7.439249596403744"><ele>467.8333333333333</ele><time>2026-04-11T10:50:46Z</time></trkpt><trkpt lat="45.061889860836615" lon="7.439185838305139"><ele>468.0</ele><time>2026-04-11T10:50:47Z</time></trkpt><trkpt lat="45.06178906248804" lon="7.439142898224234"><ele>468.0</ele><time>2026-04-11T10:50:48Z</time></trkpt><trkpt lat="45.06169009119819" lon="7.439135917567592"><ele>467.99999999999994</ele><time>2026-04-11T10:50:49Z</time></trkpt><trkpt lat="45.06162364911721" lon="7.43911851265129"><ele>467.99999999999994</ele><time>2026-04-11T10:50:50Z</time></trkpt><trkpt lat="45.06154693208854" lon="7.439101439037055"><ele>468.0</ele><time>2026-04-11T10:50:51Z</time></trkpt><trkpt lat="45.061453259275325" lon="7.439117689359476"><ele>468.0</ele><time>2026-04-11T10:50:52Z</time></trkpt><trkpt lat="45.061346658866164" lon="7.439168474780451"><ele>469.75</ele><time>2026-04-11T10:50:53Z</time></trkpt><trkpt lat="45.06123873239363" lon="7.439251152138858"><ele>471.5</ele><time>2026-04-11T10:50:54Z</time></trkpt><trkpt lat="45.06112642858732" lon="7.439315462317188"><ele>473.25</ele><time>2026-04-11T10:50:55Z</time></trkpt><trkpt lat="45.06102559735307" lon="7.439393559475124"><ele>475.0</ele><time>2026-04-11T10:50:56Z</time></trkpt><trkpt lat="45.06093079780646" lon="7.439473230115778"><ele>475.0</ele><time>2026-04-11T10:50:57Z</time></trkpt><trkpt lat="45.06083555683345" lon="7.439534899665965"><ele>475.0</ele><time>2026-04-11T10:50:58Z</time></trkpt><trkpt lat="45.06074760539364" lon="7.439615576791102"><ele>475.0</ele><time>2026-04-11T10:50:59Z</time></trkpt><trkpt lat="45.06066787795923" lon="7.4396771813733045"><ele>475.0</ele><time>2026-04-11T10:51:00Z</time></trkpt><trkpt lat="45.06059108905035" lon="7.43973455070914"><ele>475.0</ele><time>2026-04-11T10:51:01Z</time></trkpt><trkpt lat="45.060511505620866" lon="7.439793691788542"><ele>475.00000000000006</ele><time>2026-04-11T10:51:02Z</time></trkpt><trkpt lat="45.06045666173541" lon="7.439849287977475"><ele>475.0</ele><time>2026-04-11T10:51:03Z</time></trkpt><trkpt lat="45.060520506785835" lon="7.439807045899539"><ele>475.0</ele><time>2026-04-11T10:53:16Z</time></trkpt><trkpt lat="45.0605922798987" lon="7.439712524225713"><ele>475.0</ele><time>2026-04-11T10:53:18Z</time></trkpt><trkpt lat="45.06064971311133" lon="7.439655299850635"><ele>475.00000000000006</ele><time>2026-04-11T10:53:19Z</time></trkpt><trkpt lat="45.06071990235012" lon="7.439621551912298"><ele>475.0</ele><time>2026-04-11T10:53:20Z</time></trkpt><trkpt lat="45.06080905873606" lon="7.439606787916806"><ele>475.00000000000006</ele><time>2026-04-11T10:53:21Z</time></trkpt><trkpt lat="45.060866536155075" lon="7.439564187222987"><ele>475.0</ele><time>2026-04-11T10:53:22Z</time></trkpt><trkpt lat="45.060941459345095" lon="7.4395025843733915"><ele>475.0</ele><time>2026-04-11T10:53:23Z</time></trkpt><trkpt lat="45.06102324550917" lon="7.439436371326759"><ele>475.0</ele><time>2026-04-11T10:53:24Z</time></trkpt><trkpt lat="45.0610961832272" lon="7.439360684378455"><ele>475.00000000000006</ele><time>2026-04-11T10:53:25Z</time></trkpt><trkpt lat="45.061178593987506" lon="7.439321298980104"><ele>475.0</ele><time>2026-04-11T10:53:26Z</time></trkpt><trkpt lat="45.0612539563925" lon="7.439249197210623"><ele>475.0</ele><time>2026-04-11T10:53:27Z</time></trkpt><trkpt lat="45.061339522978535" lon="7.43919980690152"><ele>475.0</ele><time>2026-04-11T10:53:28Z</time></trkpt><trkpt lat="45.06142529578143" lon="7.439162184972529"><ele>475.0</ele><time>2026-04-11T10:53:29Z</time></trkpt><trkpt lat="45.06150640683129" lon="7.439135713996174"><ele>475.0</ele><time>2026-04-11T10:53:30Z</time></trkpt><trkpt lat="45.0615750960874" lon="7.439130279090109"><ele>475.0</ele><time>2026-04-11T10:53:31Z</time></trkpt><trkpt lat="45.06170614478653" lon="7.439150099825897"><ele>473.83333333333337</ele><time>2026-04-11T10:53:33Z</time></trkpt><trkpt lat="45.061771628650426" lon="7.4391808824244805"><ele>472.6666666666667</ele><time>2026-04-11T10:53:34Z</time></trkpt><trkpt lat="45.06187241308358" lon="7.4392271961820695"><ele>471.5</ele><time>2026-04-11T10:53:35Z</time></trkpt><trkpt lat="45.061960555815006" lon="7.439272407731218"><ele>470.33333333333337</ele><time>2026-04-11T10:53:36Z</time></trkpt><trkpt lat="45.06204658398652" lon="7.439282655721035"><ele>469.1666666666667</ele><time>2026-04-11T10:53:37Z</time></trkpt><trkpt lat="45.062118139802784" lon="7.439316259197114"><ele>468.0</ele><time>2026-04-11T10:53:38Z</time></trkpt><trkpt lat="45.062190562667645" lon="7.439334952848369"><ele>468.0</ele><time>2026-04-11T10:53:39Z</time></trkpt><trkpt lat="45.06226507564778" lon="7.439312090343729"><ele>467.99999999999994</ele><time>2026-04-11T10:53:41Z</time></trkpt><trkpt lat="45.062343810936476" lon="7.439334816216476"><ele>467.99999999999994</ele><time>2026-04-11T10:54:07Z</time></trkpt><trkpt lat="45.062407476377665" lon="7.439477575659254"><ele>468.0</ele><time>2026-04-11T10:54:09Z</time></trkpt><trkpt lat="45.06243453350263" lon="7.439564593630412"><ele>468.0</ele><time>2026-04-11T10:54:10Z</time></trkpt><trkpt lat="45.062507167992464" lon="7.4397137436587535"><ele>467.0</ele><time>2026-04-11T10:54:12Z</time></trkpt><trkpt lat="45.06255537691226" lon="7.43979937017894"><ele>466.0</ele><time>2026-04-11T10:54:13Z</time></trkpt><trkpt lat="45.06260734170252" lon="7.439876794681195"><ele>465.0</ele><time>2026-04-11T10:54:14Z</time></trkpt><trkpt lat="45.06266226722085" lon="7.4399573661402565"><ele>464.0</ele><time>2026-04-11T10:54:15Z</time></trkpt><trkpt lat="45.06272440989442" lon="7.440049187334146"><ele>463.0</ele><time>2026-04-11T10:54:16Z</time></trkpt><trkpt lat="45.06278509833731" lon="7.440153047536633"><ele>462.0</ele><time>2026-04-11T10:54:17Z</time></trkpt><trkpt lat="45.062836598689145" lon="7.44024227221075"><ele>462.0</ele><time>2026-04-11T10:54:18Z</time></trkpt><trkpt lat="45.0628873660747" lon="7.440320321625162"><ele>462.0</ele><time>2026-04-11T10:54:20Z</time></trkpt><trkpt lat="45.062951319640064" lon="7.4403437698738175"><ele>462.0</ele><time>2026-04-11T10:54:28Z</time></trkpt><trkpt lat="45.063005734502504" lon="7.440525125351882"><ele>462.0</ele><time>2026-04-11T10:54:30Z</time></trkpt><trkpt lat="45.06304403462888" lon="7.440631980351997"><ele>462.0</ele><time>2026-04-11T10:54:31Z</time></trkpt><trkpt lat="45.063079613715345" lon="7.440731934055793"><ele>462.0</ele><time>2026-04-11T10:54:32Z</time></trkpt><trkpt lat="45.06311222045889" lon="7.4408349616051455"><ele>461.6666666666667</ele><time>2026-04-11T10:54:33Z</time></trkpt><trkpt lat="45.06314467230453" lon="7.440932889804272"><ele>461.33333333333337</ele><time>2026-04-11T10:54:34Z</time></trkpt><trkpt lat="45.06320157023273" lon="7.441022379818949"><ele>461.0</ele><time>2026-04-11T10:54:35Z</time></trkpt><trkpt lat="45.06324910985703" lon="7.441113372929636"><ele>460.6666666666667</ele><time>2026-04-11T10:54:36Z</time></trkpt><trkpt lat="45.063295880796055" lon="7.441228497110756"><ele>460.33333333333337</ele><time>2026-04-11T10:54:38Z</time></trkpt><trkpt lat="45.06324560853875" lon="7.441117115698213"><ele>460.0</ele><time>2026-04-11T10:55:58Z</time></trkpt><trkpt lat="45.06318141622798" lon="7.4410047171752085"><ele>460.0</ele><time>2026-04-11T10:56:00Z</time></trkpt><trkpt lat="45.06310844110815" lon="7.440819712571713"><ele>460.0</ele><time>2026-04-11T10:56:01Z</time></trkpt><trkpt lat="45.06307991807546" lon="7.440698797313043"><ele>460.0</ele><time>2026-04-11T10:56:02Z</time></trkpt><trkpt lat="45.06304823480772" lon="7.440593645750492"><ele>460.0</ele><time>2026-04-11T10:56:03Z</time></trkpt><trkpt lat="45.06300831608765" lon="7.440505736936779"><ele>460.0</ele><time>2026-04-11T10:56:04Z</time></trkpt><trkpt lat="45.06296894689745" lon="7.440430477979077"><ele>460.4</ele><time>2026-04-11T10:56:05Z</time></trkpt><trkpt lat="45.06290772114121" lon="7.440344791315695"><ele>460.8</ele><time>2026-04-11T10:56:07Z</time></trkpt><trkpt lat="45.06293326495708" lon="7.440257134875316"><ele>461.20000000000005</ele><time>2026-04-11T10:56:16Z</time></trkpt><trkpt lat="45.06302519368109" lon="7.440139329794361"><ele>461.6</ele><time>2026-04-11T10:56:18Z</time></trkpt><trkpt lat="45.06304811320931" lon="7.439994374312052"><ele>462.0</ele><time>2026-04-11T10:56:20Z</time></trkpt><trkpt lat="45.0630752309748" lon="7.439856453985089"><ele>462.0</ele><time>2026-04-11T10:56:22Z</time></trkpt><trkpt lat="45.06310056947619" lon="7.439740127174673"><ele>462.00000000000006</ele><time>2026-04-11T10:56:24Z</time></trkpt><trkpt lat="45.0631333433024" lon="7.439589665649421"><ele>462.00000000000006</ele><time>2026-04-11T10:56:26Z</time></trkpt><trkpt lat="45.06316050023212" lon="7.439455258988772"><ele>462.0</ele><time>2026-04-11T10:56:28Z</time></trkpt><trkpt lat="45.063191940817" lon="7.439347110897028"><ele>462.0</ele><time>2026-04-11T10:56:30Z</time></trkpt><trkpt lat="45.0632400023423" lon="7.439262450598948"><ele>460.5</ele><time>2026-04-11T10:56:32Z</time></trkpt><trkpt lat="45.063329944382374" lon="7.439202099916185"><ele>459.0</ele><time>2026-04-11T10:56:34Z</time></trkpt><trkpt lat="45.06341043943427" lon="7.439163746710917"><ele>457.5</ele><time>2026-04-11T10:56:36Z</time></trkpt><trkpt lat="45.06348843125962" lon="7.439134481497182"><ele>456.0</ele><time>2026-04-11T10:56:38Z</time></trkpt><trkpt lat="45.06355287743086" lon="7.439159297558168"><ele>454.5</ele><time>2026-04-11T10:56:40Z</time></trkpt><trkpt lat="45.06364631063443" lon="7.439226309920661"><ele>453.0</ele><time>2026-04-11T10:56:42Z</time></trkpt><trkpt lat="45.06373443436776" lon="7.439346970666129"><ele>453.0</ele><time>2026-04-11T10:56:44Z</time></trkpt><trkpt lat="45.0638253831325" lon="7.43941456499923"><ele>453.0</ele><time>2026-04-11T10:56:46Z</time></trkpt><trkpt lat="45.06391858063875" lon="7.439403945968386"><ele>453.0</ele><time>2026-04-11T10:56:49Z</time></trkpt><trkpt lat="45.06399121571314" lon="7.439400452361241"><ele>453.0</ele><time>2026-04-11T10:56:50Z</time></trkpt><trkpt lat="45.06405925357007" lon="7.439358820567139"><ele>453.0</ele><time>2026-04-11T10:56:51Z</time></trkpt><trkpt lat="45.064122238427494" lon="7.4392946799662765"><ele>453.0</ele><time>2026-04-11T10:56:52Z</time></trkpt><trkpt lat="45.06423099304106" lon="7.439240775293372"><ele>452.4</ele><time>2026-04-11T10:56:54Z</time></trkpt><trkpt lat="45.06433943368883" lon="7.439196484390561"><ele>451.79999999999995</ele><time>2026-04-11T10:56:56Z</time></trkpt><trkpt lat="45.06444356106842" lon="7.439177400113658"><ele>451.2</ele><time>2026-04-11T10:56:58Z</time></trkpt><trkpt lat="45.06450289896996" lon="7.439136329562907"><ele>450.6</ele><time>2026-04-11T10:57:00Z</time></trkpt><trkpt lat="45.06456738163553" lon="7.439160641016801"><ele>450.0</ele><time>2026-04-11T10:57:04Z</time></trkpt><trkpt lat="45.064617636080726" lon="7.439324728971432"><ele>450.0</ele><time>2026-04-11T10:57:06Z</time></trkpt><trkpt lat="45.064631147345644" lon="7.43941759283712"><ele>450.0</ele><time>2026-04-11T10:57:07Z</time></trkpt><trkpt lat="45.06466987356316" lon="7.439555056539006"><ele>450.0</ele><time>2026-04-11T10:57:09Z</time></trkpt><trkpt lat="45.06470255587191" lon="7.439659178939939"><ele>450.0</ele><time>2026-04-11T10:57:11Z</time></trkpt><trkpt lat="45.06481185893075" lon="7.439638638615255"><ele>450.0</ele><time>2026-04-11T10:57:12Z</time></trkpt><trkpt lat="45.06493190175538" lon="7.439607016834965"><ele>448.4</ele><time>2026-04-11T10:57:14Z</time></trkpt><trkpt lat="45.0650080664796" lon="7.439576584228506"><ele>446.8</ele><time>2026-04-11T10:57:16Z</time></trkpt><trkpt lat="45.06507888578906" lon="7.439619212085994"><ele>445.20000000000005</ele><time>2026-04-11T10:57:19Z</time></trkpt><trkpt lat="45.0651218136876" lon="7.43978920542064"><ele>443.6</ele><time>2026-04-11T10:57:21Z</time></trkpt><trkpt lat="45.065152302602094" lon="7.439895155836513"><ele>442.0</ele><time>2026-04-11T10:57:22Z</time></trkpt><trkpt lat="45.06518981457946" lon="7.44000487387226"><ele>442.00000000000006</ele><time>2026-04-11T10:57:23Z</time></trkpt><trkpt lat="45.06523692602206" lon="7.440120107226379"><ele>442.0</ele><time>2026-04-11T10:57:24Z</time></trkpt><trkpt lat="45.06527662494205" lon="7.440221245902913"><ele>442.0</ele><time>2026-04-11T10:57:25Z</time></trkpt><trkpt lat="45.06530977229436" lon="7.440325148521219"><ele>442.0</ele><time>2026-04-11T10:57:26Z</time></trkpt><trkpt lat="45.06533143504656" lon="7.440446294967821"><ele>442.00000000000006</ele><time>2026-04-11T10:57:27Z</time></trkpt><trkpt lat="45.065340957767596" lon="7.440568426993398"><ele>442.0</ele><time>2026-04-11T10:57:28Z</time></trkpt><trkpt lat="45.06534636932143" lon="7.440694476334472"><ele>441.8</ele><time>2026-04-11T10:57:29Z</time></trkpt><trkpt lat="45.06535114547739" lon="7.440833299196742"><ele>441.6</ele><time>2026-04-11T10:57:30Z</time></trkpt><trkpt lat="45.06535583218005" lon="7.44097319256534"><ele>441.40000000000003</ele><time>2026-04-11T10:57:31Z</time></trkpt><trkpt lat="45.065362232104185" lon="7.44111054326853"><ele>441.20000000000005</ele><time>2026-04-11T10:57:32Z</time></trkpt><trkpt lat="45.06537070535806" lon="7.441250813843708"><ele>441.0</ele><time>2026-04-11T10:57:33Z</time></trkpt><trkpt lat="45.0653759147805" lon="7.441390816879778"><ele>440.20000000000005</ele><time>2026-04-11T10:57:34Z</time></trkpt><trkpt lat="45.06538045940769" lon="7.441530497994687"><ele>439.40000000000003</ele><time>2026-04-11T10:57:35Z</time></trkpt><trkpt lat="45.06537723140317" lon="7.441667522497153"><ele>438.6</ele><time>2026-04-11T10:57:36Z</time></trkpt><trkpt lat="45.065374060861664" lon="7.441812570198831"><ele>437.8</ele><time>2026-04-11T10:57:37Z</time></trkpt><trkpt lat="45.06536804657994" lon="7.441957371332534"><ele>437.0</ele><time>2026-04-11T10:57:38Z</time></trkpt><trkpt lat="45.0653670536859" lon="7.442098130170298"><ele>436.25</ele><time>2026-04-11T10:57:39Z</time></trkpt><trkpt lat="45.065352124491454" lon="7.442272805585517"><ele>435.5</ele><time>2026-04-11T10:57:40Z</time></trkpt><trkpt lat="45.06533706376983" lon="7.44246072648685"><ele>434.75</ele><time>2026-04-11T10:57:41Z</time></trkpt><trkpt lat="45.06531720607388" lon="7.442645101587575"><ele>434.0</ele><time>2026-04-11T10:57:42Z</time></trkpt><trkpt lat="45.06528374668683" lon="7.442816307400404"><ele>434.0</ele><time>2026-04-11T10:57:43Z</time></trkpt><trkpt lat="45.065256896040125" lon="7.442974091508692"><ele>434.0</ele><time>2026-04-11T10:57:44Z</time></trkpt><trkpt lat="45.0652517733238" lon="7.443144045548209"><ele>434.0</ele><time>2026-04-11T10:57:45Z</time></trkpt><trkpt lat="45.06527406725666" lon="7.443334722151876"><ele>434.0</ele><time>2026-04-11T10:57:46Z</time></trkpt><trkpt lat="45.06529342373839" lon="7.443542234879084"><ele>434.0</ele><time>2026-04-11T10:57:47Z</time></trkpt><trkpt lat="45.065288014150205" lon="7.443737855800343"><ele>434.0</ele><time>2026-04-11T10:57:48Z</time></trkpt><trkpt lat="45.06526781676036" lon="7.443909491612327"><ele>434.0</ele><time>2026-04-11T10:57:49Z</time></trkpt><trkpt lat="45.06523982772858" lon="7.444077105553866"><ele>434.0</ele><time>2026-04-11T10:57:50Z</time></trkpt><trkpt lat="45.065208122379914" lon="7.444257772281863"><ele>434.25</ele><time>2026-04-11T10:57:51Z</time></trkpt><trkpt lat="45.065160995192386" lon="7.444435179939875"><ele>434.5</ele><time>2026-04-11T10:57:52Z</time></trkpt><trkpt lat="45.065112388020594" lon="7.444610181270902"><ele>434.75</ele><time>2026-04-11T10:57:53Z</time></trkpt><trkpt lat="45.06505260822143" lon="7.444792209310818"><ele>435.0</ele><time>2026-04-11T10:57:54Z</time></trkpt><trkpt lat="45.064991066879955" lon="7.444962028397964"><ele>437.75</ele><time>2026-04-11T10:57:55Z</time></trkpt><trkpt lat="45.064931608698615" lon="7.4451277369711475"><ele>440.5</ele><time>2026-04-11T10:57:56Z</time></trkpt><trkpt lat="45.06487972638427" lon="7.445294953041977"><ele>443.25</ele><time>2026-04-11T10:57:57Z</time></trkpt><trkpt lat="45.064839806578036" lon="7.4454490327656675"><ele>446.0</ele><time>2026-04-11T10:57:58Z</time></trkpt><trkpt lat="45.064815673489214" lon="7.445575691983751"><ele>446.0</ele><time>2026-04-11T10:57:59Z</time></trkpt><trkpt lat="45.064807749474525" lon="7.44566996919715"><ele>446.0</ele><time>2026-04-11T10:58:00Z</time></trkpt><trkpt lat="45.064897769541034" lon="7.445859106928732"><ele>446.0</ele><time>2026-04-11T10:58:02Z</time></trkpt><trkpt lat="45.06496037954635" lon="7.445993301749734"><ele>446.0</ele><time>2026-04-11T10:58:03Z</time></trkpt><trkpt lat="45.064980064760505" lon="7.446150256270945"><ele>442.4</ele><time>2026-04-11T10:58:04Z</time></trkpt><trkpt lat="45.06501545947229" lon="7.44629917810047"><ele>438.8</ele><time>2026-04-11T10:58:05Z</time></trkpt><trkpt lat="45.065028051873774" lon="7.446458165481665"><ele>435.19999999999993</ele><time>2026-04-11T10:58:06Z</time></trkpt><trkpt lat="45.065038655158446" lon="7.446614898185943"><ele>431.59999999999997</ele><time>2026-04-11T10:58:07Z</time></trkpt><trkpt lat="45.06505148906922" lon="7.446766694198226"><ele>428.0</ele><time>2026-04-11T10:58:08Z</time></trkpt><trkpt lat="45.0650551025844" lon="7.4469226341323775"><ele>428.0</ele><time>2026-04-11T10:58:09Z</time></trkpt><trkpt lat="45.0650565452062" lon="7.4470778660833785"><ele>427.99999999999994</ele><time>2026-04-11T10:58:10Z</time></trkpt><trkpt lat="45.06505991210785" lon="7.44723794066275"><ele>427.99999999999994</ele><time>2026-04-11T10:58:11Z</time></trkpt><trkpt lat="45.065056287645724" lon="7.447389638015175"><ele>428.0</ele><time>2026-04-11T10:58:12Z</time></trkpt><trkpt lat="45.0650897054072" lon="7.447528299418385"><ele>428.0</ele><time>2026-04-11T10:58:13Z</time></trkpt><trkpt lat="45.065128885606235" lon="7.447661798066444"><ele>427.79999999999995</ele><time>2026-04-11T10:58:14Z</time></trkpt><trkpt lat="45.065184819437484" lon="7.4477848728236085"><ele>427.59999999999997</ele><time>2026-04-11T10:58:15Z</time></trkpt><trkpt lat="45.065237299289976" lon="7.447912331644181"><ele>427.40000000000003</ele><time>2026-04-11T10:58:16Z</time></trkpt><trkpt lat="45.065278981609254" lon="7.44806301240302"><ele>427.20000000000005</ele><time>2026-04-11T10:58:17Z</time></trkpt><trkpt lat="45.065321731889895" lon="7.448203210117499"><ele>427.0</ele><time>2026-04-11T10:58:18Z</time></trkpt><trkpt lat="45.065364196828156" lon="7.4483190111645055"><ele>426.8</ele><time>2026-04-11T10:58:19Z</time></trkpt><trkpt lat="45.06540492280446" lon="7.448435465486908"><ele>426.6</ele><time>2026-04-11T10:58:20Z</time></trkpt><trkpt lat="45.065495783541614" lon="7.4484985414271705"><ele>426.40000000000003</ele><time>2026-04-11T10:58:21Z</time></trkpt><trkpt lat="45.06557467776648" lon="7.448580622121863"><ele>426.20000000000005</ele><time>2026-04-11T10:58:22Z</time></trkpt><trkpt lat="45.06562362773369" lon="7.448697367068724"><ele>426.0</ele><time>2026-04-11T10:58:23Z</time></trkpt><trkpt lat="45.06567175119788" lon="7.448839039001663"><ele>425.6</ele><time>2026-04-11T10:58:24Z</time></trkpt><trkpt lat="45.06571684129868" lon="7.448979871519787"><ele>425.20000000000005</ele><time>2026-04-11T10:58:25Z</time></trkpt><trkpt lat="45.06578846672252" lon="7.4491020477966075"><ele>424.79999999999995</ele><time>2026-04-11T10:58:26Z</time></trkpt><trkpt lat="45.065857679262756" lon="7.449210899971591"><ele>424.4</ele><time>2026-04-11T10:58:27Z</time></trkpt><trkpt lat="45.0659240141927" lon="7.449312001622167"><ele>424.0</ele><time>2026-04-11T10:58:28Z</time></trkpt><trkpt lat="45.06597092306522" lon="7.4493983874848615"><ele>421.6</ele><time>2026-04-11T10:58:29Z</time></trkpt><trkpt lat="45.06601743430377" lon="7.449483283605952"><ele>419.2</ele><time>2026-04-11T10:58:31Z</time></trkpt><trkpt lat="45.06609699178905" lon="7.449536667076254"><ele>416.8</ele><time>2026-04-11T11:01:06Z</time></trkpt><trkpt lat="45.06621103344213" lon="7.4495848669728915"><ele>414.40000000000003</ele><time>2026-04-11T11:01:08Z</time></trkpt><trkpt lat="45.06628567271131" lon="7.449627502775806"><ele>412.0</ele><time>2026-04-11T11:01:09Z</time></trkpt><trkpt lat="45.066366173689644" lon="7.449672085660052"><ele>412.00000000000006</ele><time>2026-04-11T11:01:10Z</time></trkpt><trkpt lat="45.06645048236814" lon="7.449716363727945"><ele>412.0</ele><time>2026-04-11T11:01:11Z</time></trkpt><trkpt lat="45.06652600723836" lon="7.449782955534536"><ele>412.0</ele><time>2026-04-11T11:01:12Z</time></trkpt><trkpt lat="45.06660859926599" lon="7.449813138114232"><ele>412.0</ele><time>2026-04-11T11:01:13Z</time></trkpt><trkpt lat="45.06668306517368" lon="7.449856404191617"><ele>412.00000000000006</ele><time>2026-04-11T11:01:14Z</time></trkpt><trkpt lat="45.06674706267166" lon="7.449902764536485"><ele>412.0</ele><time>2026-04-11T11:01:15Z</time></trkpt><trkpt lat="45.06681116611864" lon="7.449948437267462"><ele>410.50000000000006</ele><time>2026-04-11T11:01:16Z</time></trkpt><trkpt lat="45.066878273349275" lon="7.449989103364988"><ele>409.0</ele><time>2026-04-11T11:01:17Z</time></trkpt><trkpt lat="45.06694827781266" lon="7.450026745912342"><ele>407.5</ele><time>2026-04-11T11:01:18Z</time></trkpt><trkpt lat="45.0670092575479" lon="7.450059020226135"><ele>406.0</ele><time>2026-04-11T11:01:19Z</time></trkpt><trkpt lat="45.06711627428919" lon="7.450122200193665"><ele>404.50000000000006</ele><time>2026-04-11T11:01:21Z</time></trkpt><trkpt lat="45.067200818703505" lon="7.450178535536817"><ele>403.0</ele><time>2026-04-11T11:01:23Z</time></trkpt><trkpt lat="45.06725846899954" lon="7.450240380736918"><ele>403.0</ele><time>2026-04-11T11:01:31Z</time></trkpt><trkpt lat="45.06724291958594" lon="7.450438129208273"><ele>403.0</ele><time>2026-04-11T11:01:33Z</time></trkpt><trkpt lat="45.06730901247106" lon="7.450531264866421"><ele>403.0</ele><time>2026-04-11T11:01:34Z</time></trkpt><trkpt lat="45.06732129504189" lon="7.450647308335101"><ele>403.0</ele><time>2026-04-11T11:01:35Z</time></trkpt><trkpt lat="45.06733268728852" lon="7.450778655143439"><ele>403.0</ele><time>2026-04-11T11:01:36Z</time></trkpt><trkpt lat="45.067342579666786" lon="7.450918848184162"><ele>403.0</ele><time>2026-04-11T11:01:37Z</time></trkpt><trkpt lat="45.06734890316215" lon="7.451057015392949"><ele>403.0</ele><time>2026-04-11T11:01:38Z</time></trkpt><trkpt lat="45.067355890863276" lon="7.451183317065073"><ele>403.0</ele><time>2026-04-11T11:01:39Z</time></trkpt><trkpt lat="45.06736149192866" lon="7.4513564557091385"><ele>403.0</ele><time>2026-04-11T11:01:40Z</time></trkpt><trkpt lat="45.06736428883536" lon="7.451506225244042"><ele>403.0</ele><time>2026-04-11T11:01:41Z</time></trkpt><trkpt lat="45.06736725870914" lon="7.4516536055702876"><ele>403.0</ele><time>2026-04-11T11:01:42Z</time></trkpt><trkpt lat="45.06737187352832" lon="7.451805289269224"><ele>403.0</ele><time>2026-04-11T11:01:43Z</time></trkpt><trkpt lat="45.06737632436433" lon="7.451965893421471"><ele>403.0</ele><time>2026-04-11T11:01:44Z</time></trkpt><trkpt lat="45.067377221303204" lon="7.4521260794374"><ele>403.0</ele><time>2026-04-11T11:01:45Z</time></trkpt><trkpt lat="45.06738257841089" lon="7.452283173315197"><ele>403.0</ele><time>2026-04-11T11:01:46Z</time></trkpt><trkpt lat="45.06738680903187" lon="7.45244228105073"><ele>403.0</ele><time>2026-04-11T11:01:47Z</time></trkpt><trkpt lat="45.06738776551798" lon="7.452603725097294"><ele>403.0</ele><time>2026-04-11T11:01:48Z</time></trkpt><trkpt lat="45.06738907545635" lon="7.452776141472684"><ele>403.0</ele><time>2026-04-11T11:01:49Z</time></trkpt><trkpt lat="45.067383502691044" lon="7.452982821399499"><ele>403.0</ele><time>2026-04-11T11:01:50Z</time></trkpt><trkpt lat="45.06735950747623" lon="7.453227088144797"><ele>404.33333333333337</ele><time>2026-04-11T11:01:51Z</time></trkpt><trkpt lat="45.067328472768786" lon="7.453466312206752"><ele>405.66666666666663</ele><time>2026-04-11T11:01:52Z</time></trkpt><trkpt lat="45.06730605102073" lon="7.453699132812645"><ele>407.0</ele><time>2026-04-11T11:01:53Z</time></trkpt><trkpt lat="45.06728738383381" lon="7.453907015358208"><ele>407.3333333333333</ele><time>2026-04-11T11:01:54Z</time></trkpt><trkpt lat="45.067303673082584" lon="7.454120537866919"><ele>407.66666666666663</ele><time>2026-04-11T11:01:55Z</time></trkpt><trkpt lat="45.0673559282062" lon="7.454350115927238"><ele>408.0</ele><time>2026-04-11T11:01:56Z</time></trkpt><trkpt lat="45.0674497633527" lon="7.454602446977205"><ele>402.5</ele><time>2026-04-11T11:01:57Z</time></trkpt><trkpt lat="45.067574854612516" lon="7.4548669319633944"><ele>397.0</ele><time>2026-04-11T11:01:58Z</time></trkpt><trkpt lat="45.06771027632215" lon="7.455137822888315"><ele>397.0</ele><time>2026-04-11T11:01:59Z</time></trkpt><trkpt lat="45.06784130930137" lon="7.455403010430596"><ele>397.0</ele><time>2026-04-11T11:02:00Z</time></trkpt><trkpt lat="45.06798517601925" lon="7.455691725031248"><ele>398.33333333333337</ele><time>2026-04-11T11:02:01Z</time></trkpt><trkpt lat="45.06808628712934" lon="7.455949276694359"><ele>399.66666666666663</ele><time>2026-04-11T11:02:02Z</time></trkpt><trkpt lat="45.06824032838571" lon="7.4561957572823"><ele>401.0</ele><time>2026-04-11T11:02:03Z</time></trkpt><trkpt lat="45.06835135729868" lon="7.456422009918749"><ele>398.3333333333333</ele><time>2026-04-11T11:02:04Z</time></trkpt><trkpt lat="45.06846400293921" lon="7.45661812132017"><ele>395.66666666666663</ele><time>2026-04-11T11:02:05Z</time></trkpt><trkpt lat="45.06858061334679" lon="7.456793555931133"><ele>393.0</ele><time>2026-04-11T11:02:06Z</time></trkpt><trkpt lat="45.06871446142273" lon="7.456959683959979"><ele>393.0</ele><time>2026-04-11T11:02:07Z</time></trkpt><trkpt lat="45.06887198220649" lon="7.45713069292182"><ele>393.0</ele><time>2026-04-11T11:02:08Z</time></trkpt><trkpt lat="45.069018780239446" lon="7.457269408912422"><ele>393.0</ele><time>2026-04-11T11:02:09Z</time></trkpt><trkpt lat="45.069139488711215" lon="7.457387204469851"><ele>393.0</ele><time>2026-04-11T11:02:10Z</time></trkpt><trkpt lat="45.06923208578876" lon="7.457506388882454"><ele>393.0</ele><time>2026-04-11T11:02:11Z</time></trkpt><trkpt lat="45.0693136725449" lon="7.457657419416189"><ele>393.0</ele><time>2026-04-11T11:02:12Z</time></trkpt><trkpt lat="45.06937726680223" lon="7.457839209320609"><ele>393.0</ele><time>2026-04-11T11:02:13Z</time></trkpt><trkpt lat="45.06943020383578" lon="7.458036526372152"><ele>393.75</ele><time>2026-04-11T11:02:14Z</time></trkpt><trkpt lat="45.0694735638963" lon="7.4582273684157725"><ele>394.5</ele><time>2026-04-11T11:02:15Z</time></trkpt><trkpt lat="45.06950148005326" lon="7.458396534392361"><ele>395.25</ele><time>2026-04-11T11:02:16Z</time></trkpt><trkpt lat="45.069539647766554" lon="7.458570821289641"><ele>396.0</ele><time>2026-04-11T11:02:17Z</time></trkpt><trkpt lat="45.06957122390193" lon="7.458745373888964"><ele>395.75</ele><time>2026-04-11T11:02:18Z</time></trkpt><trkpt lat="45.0696020235418" lon="7.458924378518552"><ele>395.5</ele><time>2026-04-11T11:02:19Z</time></trkpt><trkpt lat="45.069625206807494" lon="7.459096956326141"><ele>395.25</ele><time>2026-04-11T11:02:20Z</time></trkpt><trkpt lat="45.06964399067661" lon="7.459274181753656"><ele>395.0</ele><time>2026-04-11T11:02:21Z</time></trkpt><trkpt lat="45.06966075910429" lon="7.45946138915558"><ele>395.0</ele><time>2026-04-11T11:02:22Z</time></trkpt><trkpt lat="45.06967121040486" lon="7.459644583931508"><ele>395.0</ele><time>2026-04-11T11:02:23Z</time></trkpt><trkpt lat="45.06968066838304" lon="7.459811739690517"><ele>395.0</ele><time>2026-04-11T11:02:24Z</time></trkpt><trkpt lat="45.069690680173174" lon="7.459964051473786"><ele>395.0</ele><time>2026-04-11T11:02:25Z</time></trkpt><trkpt lat="45.06969865227082" lon="7.460103426078171"><ele>394.99999999999994</ele><time>2026-04-11T11:02:26Z</time></trkpt><trkpt lat="45.06971323876255" lon="7.46022960573822"><ele>395.0</ele><time>2026-04-11T11:02:27Z</time></trkpt><trkpt lat="45.069719986381294" lon="7.460328401498942"><ele>395.0</ele><time>2026-04-11T11:02:28Z</time></trkpt><trkpt lat="45.06973718821726" lon="7.460465008650896"><ele>395.0</ele><time>2026-04-11T11:02:58Z</time></trkpt><trkpt lat="45.069742421316164" lon="7.460557232227574"><ele>394.99999999999994</ele><time>2026-04-11T11:02:59Z</time></trkpt><trkpt lat="45.069699703221566" lon="7.4606856287317465"><ele>395.0</ele><time>2026-04-11T11:03:01Z</time></trkpt><trkpt lat="45.069638653851264" lon="7.460712200062994"><ele>395.66666666666663</ele><time>2026-04-11T11:03:02Z</time></trkpt><trkpt lat="45.06957422220793" lon="7.460722938038074"><ele>396.3333333333333</ele><time>2026-04-11T11:03:03Z</time></trkpt><trkpt lat="45.06947518446639" lon="7.460685424287746"><ele>397.0</ele><time>2026-04-11T11:03:04Z</time></trkpt><trkpt lat="45.069383553889566" lon="7.460656245448243"><ele>397.66666666666663</ele><time>2026-04-11T11:03:05Z</time></trkpt><trkpt lat="45.06929694004996" lon="7.460624363211767"><ele>398.3333333333333</ele><time>2026-04-11T11:03:06Z</time></trkpt><trkpt lat="45.06920094436533" lon="7.460600542136695"><ele>399.0</ele><time>2026-04-11T11:03:07Z</time></trkpt><trkpt lat="45.069111234835255" lon="7.460574407734791"><ele>400.0</ele><time>2026-04-11T11:03:08Z</time></trkpt><trkpt lat="45.0690452273355" lon="7.4605501170866795"><ele>401.0</ele><time>2026-04-11T11:03:09Z</time></trkpt><trkpt lat="45.068960290857845" lon="7.460613484345912"><ele>402.0</ele><time>2026-04-11T11:03:11Z</time></trkpt><trkpt lat="45.0689147309156" lon="7.460704233471782"><ele>403.0</ele><time>2026-04-11T11:03:12Z</time></trkpt><trkpt lat="45.0688653659091" lon="7.460807781311762"><ele>404.0</ele><time>2026-04-11T11:03:13Z</time></trkpt><trkpt lat="45.06880198342697" lon="7.460905872455615"><ele>405.0</ele><time>2026-04-11T11:03:14Z</time></trkpt><trkpt lat="45.06873127487197" lon="7.460992263894961"><ele>405.0</ele><time>2026-04-11T11:03:15Z</time></trkpt><trkpt lat="45.06866352268601" lon="7.4610808955823735"><ele>405.0</ele><time>2026-04-11T11:03:16Z</time></trkpt><trkpt lat="45.068600703553656" lon="7.461184485960908"><ele>405.0</ele><time>2026-04-11T11:03:17Z</time></trkpt><trkpt lat="45.06854508213546" lon="7.461299418589257"><ele>405.0</ele><time>2026-04-11T11:03:18Z</time></trkpt><trkpt lat="45.068482629631724" lon="7.461414175773989"><ele>405.0</ele><time>2026-04-11T11:03:19Z</time></trkpt><trkpt lat="45.068418930372644" lon="7.461519313329086"><ele>405.0</ele><time>2026-04-11T11:03:20Z</time></trkpt><trkpt lat="45.06836513824801" lon="7.461617840740297"><ele>405.0</ele><time>2026-04-11T11:03:21Z</time></trkpt><trkpt lat="45.068315254125146" lon="7.46171948838462"><ele>405.0</ele><time>2026-04-11T11:03:22Z</time></trkpt><trkpt lat="45.06827266074056" lon="7.46180954313293"><ele>405.0</ele><time>2026-04-11T11:03:23Z</time></trkpt><trkpt lat="45.06822923038847" lon="7.461902003177627"><ele>405.0</ele><time>2026-04-11T11:03:24Z</time></trkpt><trkpt lat="45.06819483505089" lon="7.461999973671309"><ele>405.0</ele><time>2026-04-11T11:03:25Z</time></trkpt><trkpt lat="45.0681734720861" lon="7.462100893561298"><ele>405.0</ele><time>2026-04-11T11:03:26Z</time></trkpt><trkpt lat="45.068174645585195" lon="7.462216758866987"><ele>405.0</ele><time>2026-04-11T11:03:27Z</time></trkpt><trkpt lat="45.06819168238078" lon="7.462330939291522"><ele>405.0</ele><time>2026-04-11T11:03:28Z</time></trkpt><trkpt lat="45.06821624402894" lon="7.462435229784237"><ele>405.0</ele><time>2026-04-11T11:03:29Z</time></trkpt><trkpt lat="45.06826743958331" lon="7.46251506056051"><ele>405.0</ele><time>2026-04-11T11:03:30Z</time></trkpt><trkpt lat="45.06830169632004" lon="7.462594758388245"><ele>405.0</ele><time>2026-04-11T11:03:31Z</time></trkpt><trkpt lat="45.06833135302367" lon="7.462746345978749"><ele>405.0</ele><time>2026-04-11T11:03:33Z</time></trkpt><trkpt lat="45.06832367076795" lon="7.462859449086331"><ele>405.0</ele><time>2026-04-11T11:03:35Z</time></trkpt><trkpt lat="45.06822644463751" lon="7.462948336429079"><ele>405.0</ele><time>2026-04-11T11:03:37Z</time></trkpt><trkpt lat="45.06816552148449" lon="7.463005601402448"><ele>405.0</ele><time>2026-04-11T11:03:38Z</time></trkpt><trkpt lat="45.06810400182711" lon="7.463059173086776"><ele>405.0</ele><time>2026-04-11T11:03:39Z</time></trkpt><trkpt lat="45.06804192356929" lon="7.463111571236958"><ele>405.0</ele><time>2026-04-11T11:03:40Z</time></trkpt><trkpt lat="45.06797664234158" lon="7.4631279343808785"><ele>405.71428571428567</ele><time>2026-04-11T11:03:41Z</time></trkpt><trkpt lat="45.06792033047413" lon="7.463087917944819"><ele>406.42857142857144</ele><time>2026-04-11T11:03:42Z</time></trkpt><trkpt lat="45.067873593036616" lon="7.463008611777957"><ele>407.1428571428571</ele><time>2026-04-11T11:03:43Z</time></trkpt><trkpt lat="45.06784692744381" lon="7.462900431051733"><ele>407.85714285714283</ele><time>2026-04-11T11:03:44Z</time></trkpt><trkpt lat="45.06779300408295" lon="7.462828154440687"><ele>408.57142857142856</ele><time>2026-04-11T11:03:45Z</time></trkpt><trkpt lat="45.0677520154608" lon="7.462742742804884"><ele>409.2857142857143</ele><time>2026-04-11T11:03:46Z</time></trkpt><trkpt lat="45.06770785476314" lon="7.462661878192389"><ele>410.0</ele><time>2026-04-11T11:03:47Z</time></trkpt><trkpt lat="45.06766000364367" lon="7.4625844992769474"><ele>410.0</ele><time>2026-04-11T11:03:48Z</time></trkpt><trkpt lat="45.06755352310513" lon="7.46251876617969"><ele>410.0</ele><time>2026-04-11T11:03:50Z</time></trkpt><trkpt lat="45.067483630026096" lon="7.462560358785676"><ele>410.0</ele><time>2026-04-11T11:03:51Z</time></trkpt><trkpt lat="45.06740612744186" lon="7.462621857082018"><ele>410.0</ele><time>2026-04-11T11:03:52Z</time></trkpt><trkpt lat="45.067330225094096" lon="7.462687490530433"><ele>410.0</ele><time>2026-04-11T11:03:53Z</time></trkpt><trkpt lat="45.067253222593294" lon="7.4627548261234615"><ele>410.8333333333333</ele><time>2026-04-11T11:03:54Z</time></trkpt><trkpt lat="45.067176842202926" lon="7.462826924428176"><ele>411.66666666666663</ele><time>2026-04-11T11:03:55Z</time></trkpt><trkpt lat="45.06710334544214" lon="7.46289343908679"><ele>412.5</ele><time>2026-04-11T11:03:56Z</time></trkpt><trkpt lat="45.067036577512056" lon="7.462953039537955"><ele>413.33333333333337</ele><time>2026-04-11T11:03:57Z</time></trkpt><trkpt lat="45.06697055621767" lon="7.46299685195885"><ele>414.1666666666667</ele><time>2026-04-11T11:03:58Z</time></trkpt><trkpt lat="45.06688770281317" lon="7.463017672519989"><ele>415.0</ele><time>2026-04-11T11:03:59Z</time></trkpt><trkpt lat="45.06679961828205" lon="7.463025493236024"><ele>415.0</ele><time>2026-04-11T11:04:00Z</time></trkpt><trkpt lat="45.06670199291378" lon="7.463030335153444"><ele>415.0</ele><time>2026-04-11T11:04:01Z</time></trkpt><trkpt lat="45.06659966327544" lon="7.463037723525944"><ele>415.0</ele><time>2026-04-11T11:04:02Z</time></trkpt><trkpt lat="45.066494076391706" lon="7.463063693315938"><ele>415.0</ele><time>2026-04-11T11:04:03Z</time></trkpt><trkpt lat="45.06639211397999" lon="7.463101650050845"><ele>415.0</ele><time>2026-04-11T11:04:04Z</time></trkpt><trkpt lat="45.066293774056554" lon="7.46313803609399"><ele>416.6</ele><time>2026-04-11T11:04:05Z</time></trkpt><trkpt lat="45.066200133446664" lon="7.463172298185272"><ele>418.2</ele><time>2026-04-11T11:04:06Z</time></trkpt><trkpt lat="45.06610664406948" lon="7.463192159016977"><ele>419.79999999999995</ele><time>2026-04-11T11:04:07Z</time></trkpt><trkpt lat="45.06601316519019" lon="7.463196724413515"><ele>421.4</ele><time>2026-04-11T11:04:08Z</time></trkpt><trkpt lat="45.06591574987164" lon="7.463198729476123"><ele>423.0</ele><time>2026-04-11T11:04:09Z</time></trkpt><trkpt lat="45.06581844594392" lon="7.463207458607373"><ele>425.0</ele><time>2026-04-11T11:04:10Z</time></trkpt><trkpt lat="45.06571911611139" lon="7.4632137451292015"><ele>427.0</ele><time>2026-04-11T11:04:11Z</time></trkpt><trkpt lat="45.06561382729218" lon="7.463221111445519"><ele>428.99999999999994</ele><time>2026-04-11T11:04:12Z</time></trkpt><trkpt lat="45.06552410746233" lon="7.463202239179631"><ele>431.0</ele><time>2026-04-11T11:04:13Z</time></trkpt><trkpt lat="45.065436505805195" lon="7.4631982144729285"><ele>433.0</ele><time>2026-04-11T11:04:14Z</time></trkpt><trkpt lat="45.065346560651705" lon="7.463196710524846"><ele>433.00000000000006</ele><time>2026-04-11T11:04:15Z</time></trkpt><trkpt lat="45.06525724482245" lon="7.4632012606892975"><ele>433.0</ele><time>2026-04-11T11:04:16Z</time></trkpt><trkpt lat="45.06517191609715" lon="7.463235706605777"><ele>433.0</ele><time>2026-04-11T11:04:17Z</time></trkpt><trkpt lat="45.065099801791234" lon="7.463249049972081"><ele>433.0</ele><time>2026-04-11T11:04:18Z</time></trkpt><trkpt lat="45.065012892862974" lon="7.463288653594331"><ele>433.00000000000006</ele><time>2026-04-11T11:04:20Z</time></trkpt><trkpt lat="45.06492891890064" lon="7.463382661786088"><ele>433.0</ele><time>2026-04-11T11:04:22Z</time></trkpt><trkpt lat="45.06487400888938" lon="7.463457327120449"><ele>433.6666666666667</ele><time>2026-04-11T11:04:23Z</time></trkpt><trkpt lat="45.064812376964674" lon="7.463541730090994"><ele>434.33333333333337</ele><time>2026-04-11T11:04:24Z</time></trkpt><trkpt lat="45.06475566059898" lon="7.4636190835398235"><ele>435.0</ele><time>2026-04-11T11:04:25Z</time></trkpt><trkpt lat="45.06469733535923" lon="7.463663168051568"><ele>435.66666666666663</ele><time>2026-04-11T11:04:26Z</time></trkpt><trkpt lat="45.06461572183046" lon="7.463742237495754"><ele>436.3333333333333</ele><time>2026-04-11T11:04:28Z</time></trkpt><trkpt lat="45.06455693753434" lon="7.463791110258656"><ele>437.0</ele><time>2026-04-11T11:04:29Z</time></trkpt><trkpt lat="45.064487132040064" lon="7.463843514113652"><ele>437.20000000000005</ele><time>2026-04-11T11:04:30Z</time></trkpt><trkpt lat="45.06441512241957" lon="7.463898979479146"><ele>437.40000000000003</ele><time>2026-04-11T11:04:31Z</time></trkpt><trkpt lat="45.06434421438741" lon="7.463956041560305"><ele>437.59999999999997</ele><time>2026-04-11T11:04:32Z</time></trkpt><trkpt lat="45.064272443340506" lon="7.46401280453527"><ele>437.79999999999995</ele><time>2026-04-11T11:04:33Z</time></trkpt><trkpt lat="45.06417169508289" lon="7.464095936996437"><ele>438.0</ele><time>2026-04-11T11:04:35Z</time></trkpt><trkpt lat="45.0640756719688" lon="7.464187367078083"><ele>439.5</ele><time>2026-04-11T11:04:37Z</time></trkpt><trkpt lat="45.064034631319096" lon="7.464259407808276"><ele>441.0</ele><time>2026-04-11T11:04:38Z</time></trkpt><trkpt lat="45.0640031524272" lon="7.464349120937682"><ele>442.5</ele><time>2026-04-11T11:04:39Z</time></trkpt><trkpt lat="45.063957496247546" lon="7.464418082414559"><ele>444.0</ele><time>2026-04-11T11:04:40Z</time></trkpt><trkpt lat="45.063898290402975" lon="7.464304109444513"><ele>445.5</ele><time>2026-04-11T11:04:44Z</time></trkpt><trkpt lat="45.06384430365574" lon="7.464139637934812"><ele>447.0</ele><time>2026-04-11T11:04:46Z</time></trkpt><trkpt lat="45.06381593984487" lon="7.464050040741162"><ele>446.99999999999994</ele><time>2026-04-11T11:04:47Z</time></trkpt><trkpt lat="45.06378496479721" lon="7.463953855101413"><ele>447.0</ele><time>2026-04-11T11:04:48Z</time></trkpt><trkpt lat="45.06375398548289" lon="7.463851349146539"><ele>447.0</ele><time>2026-04-11T11:04:49Z</time></trkpt><trkpt lat="45.06372565415064" lon="7.463756529739865"><ele>447.0</ele><time>2026-04-11T11:04:50Z</time></trkpt><trkpt lat="45.06369891748514" lon="7.463663205010661"><ele>447.0</ele><time>2026-04-11T11:04:51Z</time></trkpt><trkpt lat="45.063675717886774" lon="7.46357704889228"><ele>446.99999999999994</ele><time>2026-04-11T11:04:52Z</time></trkpt><trkpt lat="45.06365248800607" lon="7.463489665898654"><ele>447.0</ele><time>2026-04-11T11:04:53Z</time></trkpt><trkpt lat="45.06362899267129" lon="7.463401221229129"><ele>447.3333333333333</ele><time>2026-04-11T11:04:54Z</time></trkpt><trkpt lat="45.06360381341497" lon="7.463310037076825"><ele>447.66666666666663</ele><time>2026-04-11T11:04:55Z</time></trkpt><trkpt lat="45.06356589215277" lon="7.463172708871438"><ele>448.0</ele><time>2026-04-11T11:04:57Z</time></trkpt><trkpt lat="45.06349805619418" lon="7.463051362499867"><ele>448.3333333333333</ele><time>2026-04-11T11:04:59Z</time></trkpt><trkpt lat="45.06343003445015" lon="7.463053175447989"><ele>448.66666666666663</ele><time>2026-04-11T11:05:00Z</time></trkpt><trkpt lat="45.06336928392955" lon="7.463085352007784"><ele>449.0</ele><time>2026-04-11T11:05:01Z</time></trkpt><trkpt lat="45.06330446265341" lon="7.463113407265373"><ele>451.66666666666663</ele><time>2026-04-11T11:05:02Z</time></trkpt><trkpt lat="45.0632343513196" lon="7.4631453514779595"><ele>454.3333333333333</ele><time>2026-04-11T11:05:03Z</time></trkpt><trkpt lat="45.063162411123606" lon="7.463178855451963"><ele>457.0</ele><time>2026-04-11T11:05:04Z</time></trkpt><trkpt lat="45.063086842064166" lon="7.463214049439399"><ele>459.66666666666663</ele><time>2026-04-11T11:05:05Z</time></trkpt><trkpt lat="45.06300655248946" lon="7.46325144187051"><ele>462.3333333333333</ele><time>2026-04-11T11:05:06Z</time></trkpt><trkpt lat="45.06292578072957" lon="7.463289058861382"><ele>465.0</ele><time>2026-04-11T11:05:07Z</time></trkpt><trkpt lat="45.06284631324014" lon="7.4633260684006695"><ele>465.0</ele><time>2026-04-11T11:05:08Z</time></trkpt><trkpt lat="45.06277008415704" lon="7.463359242765697"><ele>465.0</ele><time>2026-04-11T11:05:09Z</time></trkpt><trkpt lat="45.06270321696042" lon="7.4633871446173385"><ele>465.0</ele><time>2026-04-11T11:05:10Z</time></trkpt><trkpt lat="45.062637485939575" lon="7.4634141455695495"><ele>465.0</ele><time>2026-04-11T11:05:11Z</time></trkpt><trkpt lat="45.06257584264531" lon="7.463439411811615"><ele>465.0</ele><time>2026-04-11T11:05:12Z</time></trkpt><trkpt lat="45.06250451006536" lon="7.463468818650271"><ele>465.0</ele><time>2026-04-11T11:05:13Z</time></trkpt><trkpt lat="45.062420629360574" lon="7.463505941802932"><ele>465.0</ele><time>2026-04-11T11:05:14Z</time></trkpt><trkpt lat="45.06233805942011" lon="7.463545997053157"><ele>466.6666666666667</ele><time>2026-04-11T11:05:15Z</time></trkpt><trkpt lat="45.06226622066918" lon="7.463603848392784"><ele>468.33333333333337</ele><time>2026-04-11T11:05:16Z</time></trkpt><trkpt lat="45.06219080856664" lon="7.463634977083889"><ele>470.0</ele><time>2026-04-11T11:05:17Z</time></trkpt><trkpt lat="45.06209391422473" lon="7.463680939718436"><ele>471.6666666666667</ele><time>2026-04-11T11:05:19Z</time></trkpt><trkpt lat="45.062014078140095" lon="7.4637611829280255"><ele>473.33333333333337</ele><time>2026-04-11T11:05:22Z</time></trkpt><trkpt lat="45.06196134254527" lon="7.4638281074031365"><ele>475.0</ele><time>2026-04-11T11:05:23Z</time></trkpt><trkpt lat="45.06190673936757" lon="7.463912310122629"><ele>475.00000000000006</ele><time>2026-04-11T11:05:24Z</time></trkpt><trkpt lat="45.06186022734824" lon="7.463984338133103"><ele>475.0</ele><time>2026-04-11T11:05:25Z</time></trkpt><trkpt lat="45.061773272099636" lon="7.464118237221319"><ele>475.0</ele><time>2026-04-11T11:05:27Z</time></trkpt><trkpt lat="45.061725841393695" lon="7.464190982876893"><ele>475.0</ele><time>2026-04-11T11:05:28Z</time></trkpt><trkpt lat="45.06166864125528" lon="7.464305505630711"><ele>475.00000000000006</ele><time>2026-04-11T11:05:29Z</time></trkpt><trkpt lat="45.061606405443186" lon="7.464367956686283"><ele>475.0</ele><time>2026-04-11T11:05:30Z</time></trkpt><trkpt lat="45.06153753136829" lon="7.46442580244025"><ele>474.6666666666667</ele><time>2026-04-11T11:05:31Z</time></trkpt><trkpt lat="45.0614596511262" lon="7.464479923951675"><ele>474.33333333333337</ele><time>2026-04-11T11:05:32Z</time></trkpt><trkpt lat="45.06137064289455" lon="7.4645333687399695"><ele>474.0</ele><time>2026-04-11T11:05:33Z</time></trkpt><trkpt lat="45.06130782193085" lon="7.464554888083847"><ele>473.66666666666663</ele><time>2026-04-11T11:05:34Z</time></trkpt><trkpt lat="45.06124908982611" lon="7.464594921670612"><ele>473.3333333333333</ele><time>2026-04-11T11:05:36Z</time></trkpt><trkpt lat="45.06119920855306" lon="7.464664412510774"><ele>473.0</ele><time>2026-04-11T11:05:40Z</time></trkpt><trkpt lat="45.061134457797806" lon="7.464749679266789"><ele>472.16666666666663</ele><time>2026-04-11T11:05:44Z</time></trkpt><trkpt lat="45.06106639216507" lon="7.4648036869294705"><ele>471.3333333333333</ele><time>2026-04-11T11:05:47Z</time></trkpt><trkpt lat="45.061002031808414" lon="7.464856832124625"><ele>470.5</ele><time>2026-04-11T11:08:29Z</time></trkpt><trkpt lat="45.0609289792618" lon="7.464912799300908"><ele>469.66666666666663</ele><time>2026-04-11T11:08:32Z</time></trkpt><trkpt lat="45.060863843531514" lon="7.4649700693834715"><ele>468.8333333333333</ele><time>2026-04-11T11:08:34Z</time></trkpt><trkpt lat="45.06078325770363" lon="7.465020172979213"><ele>468.0</ele><time>2026-04-11T11:08:37Z</time></trkpt><trkpt lat="45.060701362168224" lon="7.465028698429314"><ele>464.0</ele><time>2026-04-11T11:08:40Z</time></trkpt><trkpt lat="45.060648898960174" lon="7.465096496083508"><ele>464.0</ele><time>2026-04-11T11:08:43Z</time></trkpt><trkpt lat="45.06059521117861" lon="7.4651575036720965"><ele>464.0</ele><time>2026-04-11T11:09:02Z</time></trkpt><trkpt lat="45.06052614977778" lon="7.465189433256114"><ele>464.0</ele><time>2026-04-11T11:09:07Z</time></trkpt><trkpt lat="45.060576516838026" lon="7.465114568399668"><ele>464.0</ele><time>2026-04-11T11:10:13Z</time></trkpt></trkseg><trkseg><trkpt lat="45.06051936355187" lon="7.46521240855921"><ele>463.99999999999994</ele><time>2026-04-11T11:20:28Z</time></trkpt><trkpt lat="45.06046152505952" lon="7.4652983005065465"><ele>464.0</ele><time>2026-04-11T11:20:29Z</time></trkpt><trkpt lat="45.060407985492056" lon="7.465363134771877"><ele>464.0</ele><time>2026-04-11T11:20:30Z</time></trkpt><trkpt lat="45.06035316253913" lon="7.465444808595557"><ele>464.0</ele><time>2026-04-11T11:20:31Z</time></trkpt><trkpt lat="45.060301380870065" lon="7.465529838595658"><ele>463.99999999999994</ele><time>2026-04-11T11:20:32Z</time></trkpt><trkpt lat="45.0602546875196" lon="7.465610710391524"><ele>464.0</ele><time>2026-04-11T11:20:33Z</time></trkpt><trkpt lat="45.060213759826524" lon="7.46568858269306"><ele>464.6</ele><time>2026-04-11T11:20:34Z</time></trkpt><trkpt lat="45.06016564054349" lon="7.465777270037133"><ele>465.2</ele><time>2026-04-11T11:20:35Z</time></trkpt><trkpt lat="45.06012682743165" lon="7.465850792034054"><ele>465.80000000000007</ele><time>2026-04-11T11:20:36Z</time></trkpt><trkpt lat="45.06008749216291" lon="7.466025811868263"><ele>466.40000000000003</ele><time>2026-04-11T11:20:38Z</time></trkpt><trkpt lat="45.060059072745865" lon="7.466146009852136"><ele>467.0</ele><time>2026-04-11T11:20:39Z</time></trkpt><trkpt lat="45.060035442209184" lon="7.466271945125849"><ele>467.66666666666663</ele><time>2026-04-11T11:20:40Z</time></trkpt><trkpt lat="45.06001448225968" lon="7.466390070300737"><ele>468.3333333333333</ele><time>2026-04-11T11:20:41Z</time></trkpt><trkpt lat="45.05999848295111" lon="7.466490851604565"><ele>469.0</ele><time>2026-04-11T11:20:42Z</time></trkpt><trkpt lat="45.05998122326499" lon="7.466607146454488"><ele>469.66666666666663</ele><time>2026-04-11T11:20:44Z</time></trkpt><trkpt lat="45.059988823054866" lon="7.466709359809974"><ele>470.3333333333333</ele><time>2026-04-11T11:20:46Z</time></trkpt><trkpt lat="45.0599762369537" lon="7.4668433311454345"><ele>471.0</ele><time>2026-04-11T11:20:48Z</time></trkpt><trkpt lat="45.059965488926245" lon="7.467002925088833"><ele>471.20000000000005</ele><time>2026-04-11T11:20:50Z</time></trkpt><trkpt lat="45.05996128916102" lon="7.467170656236792"><ele>471.40000000000003</ele><time>2026-04-11T11:20:52Z</time></trkpt><trkpt lat="45.05995617386665" lon="7.4672597080287035"><ele>471.6</ele><time>2026-04-11T11:20:53Z</time></trkpt><trkpt lat="45.05996031985206" lon="7.467383979456965"><ele>471.8</ele><time>2026-04-11T11:20:55Z</time></trkpt><trkpt lat="45.05995483207518" lon="7.4675219361773735"><ele>472.0</ele><time>2026-04-11T11:20:57Z</time></trkpt><trkpt lat="45.05994223601783" lon="7.4676558362523435"><ele>473.0</ele><time>2026-04-11T11:20:59Z</time></trkpt><trkpt lat="45.0598437798674" lon="7.467718455532748"><ele>474.0</ele><time>2026-04-11T11:21:02Z</time></trkpt><trkpt lat="45.0597195280775" lon="7.46769950757754"><ele>475.0</ele><time>2026-04-11T11:21:04Z</time></trkpt><trkpt lat="45.05961100233311" lon="7.46766927108119"><ele>476.0</ele><time>2026-04-11T11:21:06Z</time></trkpt><trkpt lat="45.05949946701017" lon="7.467668044861211"><ele>476.0</ele><time>2026-04-11T11:21:08Z</time></trkpt><trkpt lat="45.05939428251485" lon="7.467677760782538"><ele>476.0</ele><time>2026-04-11T11:21:10Z</time></trkpt><trkpt lat="45.05930063106547" lon="7.467697428198075"><ele>476.0</ele><time>2026-04-11T11:21:12Z</time></trkpt><trkpt lat="45.05919174564833" lon="7.467734811061128"><ele>476.0</ele><time>2026-04-11T11:21:14Z</time></trkpt><trkpt lat="45.05909892670131" lon="7.4678093441058735"><ele>476.0</ele><time>2026-04-11T11:21:16Z</time></trkpt><trkpt lat="45.05902461620335" lon="7.4679039406413725"><ele>476.0</ele><time>2026-04-11T11:21:18Z</time></trkpt><trkpt lat="45.05891679879722" lon="7.467948630388563"><ele>476.0</ele><time>2026-04-11T11:21:20Z</time></trkpt><trkpt lat="45.058818428388015" lon="7.467991027297659"><ele>476.0</ele><time>2026-04-11T11:21:22Z</time></trkpt><trkpt lat="45.05872104513469" lon="7.4680206557441915"><ele>476.0</ele><time>2026-04-11T11:21:24Z</time></trkpt><trkpt lat="45.05865114932387" lon="7.468010655581465"><ele>476.0</ele><time>2026-04-11T11:21:25Z</time></trkpt><trkpt lat="45.05857753541531" lon="7.467975574918303"><ele>476.0</ele><time>2026-04-11T11:21:26Z</time></trkpt><trkpt lat="45.0584956552721" lon="7.46792747282742"><ele>476.0</ele><time>2026-04-11T11:21:27Z</time></trkpt><trkpt lat="45.05841362331626" lon="7.467866532348097"><ele>476.0</ele><time>2026-04-11T11:21:28Z</time></trkpt><trkpt lat="45.05831192822309" lon="7.467813281961228"><ele>476.0</ele><time>2026-04-11T11:21:29Z</time></trkpt><trkpt lat="45.058227672688844" lon="7.467779388651358"><ele>476.0</ele><time>2026-04-11T11:21:30Z</time></trkpt><trkpt lat="45.05811926619539" lon="7.467712578508567"><ele>475.6</ele><time>2026-04-11T11:21:32Z</time></trkpt><trkpt lat="45.057994701243885" lon="7.467743984993023"><ele>475.20000000000005</ele><time>2026-04-11T11:21:34Z</time></trkpt><trkpt lat="45.057928008414834" lon="7.467790036116208"><ele>474.79999999999995</ele><time>2026-04-11T11:21:35Z</time></trkpt><trkpt lat="45.05786210411948" lon="7.4678552301320975"><ele>474.4</ele><time>2026-04-11T11:21:36Z</time></trkpt><trkpt lat="45.057781262436094" lon="7.4679393269662775"><ele>474.0</ele><time>2026-04-11T11:21:37Z</time></trkpt><trkpt lat="45.05768550278721" lon="7.46806880984972"><ele>474.0</ele><time>2026-04-11T11:21:38Z</time></trkpt><trkpt lat="45.05757933068656" lon="7.468206079951928"><ele>474.0</ele><time>2026-04-11T11:21:39Z</time></trkpt><trkpt lat="45.05748831943659" lon="7.468304653645018"><ele>474.0</ele><time>2026-04-11T11:21:40Z</time></trkpt><trkpt lat="45.057415098790436" lon="7.468397618199888"><ele>474.0</ele><time>2026-04-11T11:21:41Z</time></trkpt><trkpt lat="45.057338727426156" lon="7.468483704881763"><ele>474.3333333333333</ele><time>2026-04-11T11:21:42Z</time></trkpt><trkpt lat="45.05726607725008" lon="7.468557169781859"><ele>474.66666666666663</ele><time>2026-04-11T11:21:43Z</time></trkpt><trkpt lat="45.057217148848885" lon="7.4686340808650895"><ele>475.0</ele><time>2026-04-11T11:21:44Z</time></trkpt><trkpt lat="45.05714782805899" lon="7.468682774789117"><ele>475.3333333333333</ele><time>2026-04-11T11:21:45Z</time></trkpt><trkpt lat="45.05708122627586" lon="7.46873849694903"><ele>475.66666666666663</ele><time>2026-04-11T11:21:46Z</time></trkpt><trkpt lat="45.05700703856217" lon="7.468790236120724"><ele>476.0</ele><time>2026-04-11T11:21:47Z</time></trkpt><trkpt lat="45.05693183321863" lon="7.468825280536124"><ele>474.20000000000005</ele><time>2026-04-11T11:21:48Z</time></trkpt><trkpt lat="45.0568750841005" lon="7.468869861378368"><ele>472.40000000000003</ele><time>2026-04-11T11:21:49Z</time></trkpt><trkpt lat="45.05681591036848" lon="7.468915785520681"><ele>470.6</ele><time>2026-04-11T11:21:50Z</time></trkpt><trkpt lat="45.05671361618946" lon="7.469015124118541"><ele>468.8</ele><time>2026-04-11T11:21:52Z</time></trkpt><trkpt lat="45.05662917968756" lon="7.4691269455734295"><ele>467.0</ele><time>2026-04-11T11:21:54Z</time></trkpt><trkpt lat="45.056629035603585" lon="7.469290654561462"><ele>466.99999999999994</ele><time>2026-04-11T11:21:56Z</time></trkpt><trkpt lat="45.056641654058666" lon="7.4693820890689056"><ele>467.0</ele><time>2026-04-11T11:21:57Z</time></trkpt><trkpt lat="45.05666111031236" lon="7.46948379126901"><ele>467.0</ele><time>2026-04-11T11:21:58Z</time></trkpt><trkpt lat="45.05668333125646" lon="7.469578531280585"><ele>467.0</ele><time>2026-04-11T11:21:59Z</time></trkpt><trkpt lat="45.05666690262349" lon="7.4697486197997724"><ele>466.99999999999994</ele><time>2026-04-11T11:22:01Z</time></trkpt><trkpt lat="45.05665180010073" lon="7.469844670012747"><ele>467.0</ele><time>2026-04-11T11:22:02Z</time></trkpt><trkpt lat="45.05660572408618" lon="7.4699682064575015"><ele>466.40000000000003</ele><time>2026-04-11T11:22:03Z</time></trkpt><trkpt lat="45.05653867802661" lon="7.470083394471412"><ele>465.80000000000007</ele><time>2026-04-11T11:22:04Z</time></trkpt><trkpt lat="45.056489739693575" lon="7.470189423291845"><ele>465.2</ele><time>2026-04-11T11:22:05Z</time></trkpt><trkpt lat="45.056439700027255" lon="7.470295946701891"><ele>464.6</ele><time>2026-04-11T11:22:06Z</time></trkpt><trkpt lat="45.0563847292395" lon="7.470413844807372"><ele>464.0</ele><time>2026-04-11T11:22:07Z</time></trkpt><trkpt lat="45.05634075073146" lon="7.470513614423563"><ele>464.0</ele><time>2026-04-11T11:22:08Z</time></trkpt><trkpt lat="45.056305861872026" lon="7.470609135170306"><ele>464.0</ele><time>2026-04-11T11:22:09Z</time></trkpt><trkpt lat="45.056273310114925" lon="7.470713651347392"><ele>464.0</ele><time>2026-04-11T11:22:10Z</time></trkpt><trkpt lat="45.05624747416592" lon="7.47083456220716"><ele>464.0</ele><time>2026-04-11T11:22:11Z</time></trkpt><trkpt lat="45.056220314289966" lon="7.470984581511046"><ele>464.0</ele><time>2026-04-11T11:22:12Z</time></trkpt><trkpt lat="45.05620445256156" lon="7.471143008285502"><ele>464.0</ele><time>2026-04-11T11:22:13Z</time></trkpt><trkpt lat="45.05617684872442" lon="7.471270839418349"><ele>464.0</ele><time>2026-04-11T11:22:14Z</time></trkpt><trkpt lat="45.05614400564038" lon="7.471400415896464"><ele>464.0</ele><time>2026-04-11T11:22:15Z</time></trkpt><trkpt lat="45.05610999859846" lon="7.471537228988529"><ele>464.0</ele><time>2026-04-11T11:22:16Z</time></trkpt><trkpt lat="45.056063941477866" lon="7.471672795914688"><ele>464.0</ele><time>2026-04-11T11:22:17Z</time></trkpt><trkpt lat="45.05604076773558" lon="7.47177866122777"><ele>462.49999999999994</ele><time>2026-04-11T11:22:18Z</time></trkpt><trkpt lat="45.05601861811166" lon="7.471867757327852"><ele>461.0</ele><time>2026-04-11T11:22:19Z</time></trkpt><trkpt lat="45.05600980838993" lon="7.471957871772055"><ele>459.5</ele><time>2026-04-11T11:22:20Z</time></trkpt><trkpt lat="45.0560257713291" lon="7.472054133830875"><ele>458.0</ele><time>2026-04-11T11:22:21Z</time></trkpt><trkpt lat="45.05606228222971" lon="7.47214486600177"><ele>456.49999999999994</ele><time>2026-04-11T11:22:22Z</time></trkpt><trkpt lat="45.05608896865165" lon="7.472302778495988"><ele>455.0</ele><time>2026-04-11T11:22:24Z</time></trkpt><trkpt lat="45.05607126428308" lon="7.472394549997807"><ele>452.8</ele><time>2026-04-11T11:22:25Z</time></trkpt><trkpt lat="45.05603127985155" lon="7.472488804741506"><ele>450.6</ele><time>2026-04-11T11:22:26Z</time></trkpt><trkpt lat="45.055964139394604" lon="7.47260501468276"><ele>448.4</ele><time>2026-04-11T11:22:27Z</time></trkpt><trkpt lat="45.0559065213812" lon="7.472709923437298"><ele>446.2</ele><time>2026-04-11T11:22:28Z</time></trkpt><trkpt lat="45.055864738772044" lon="7.472821344478869"><ele>444.0</ele><time>2026-04-11T11:22:29Z</time></trkpt><trkpt lat="45.05583554856123" lon="7.47293894306355"><ele>442.8333333333333</ele><time>2026-04-11T11:22:30Z</time></trkpt><trkpt lat="45.05582096614673" lon="7.473060163023031"><ele>441.66666666666663</ele><time>2026-04-11T11:22:31Z</time></trkpt><trkpt lat="45.05581238981523" lon="7.473174552315479"><ele>440.5</ele><time>2026-04-11T11:22:32Z</time></trkpt><trkpt lat="45.05581819435888" lon="7.473299636838657"><ele>439.3333333333333</ele><time>2026-04-11T11:22:33Z</time></trkpt><trkpt lat="45.05583218559124" lon="7.47341704780703"><ele>438.16666666666663</ele><time>2026-04-11T11:22:34Z</time></trkpt><trkpt lat="45.05585263630953" lon="7.473531088557598"><ele>437.0</ele><time>2026-04-11T11:22:35Z</time></trkpt><trkpt lat="45.05587060320759" lon="7.473651201714431"><ele>436.99999999999994</ele><time>2026-04-11T11:22:36Z</time></trkpt><trkpt lat="45.055885116822985" lon="7.473755564777049"><ele>437.0</ele><time>2026-04-11T11:22:37Z</time></trkpt><trkpt lat="45.05590179872092" lon="7.473849682038946"><ele>437.0</ele><time>2026-04-11T11:22:38Z</time></trkpt><trkpt lat="45.05592218923183" lon="7.473951897431607"><ele>437.0</ele><time>2026-04-11T11:22:39Z</time></trkpt><trkpt lat="45.055944745404766" lon="7.474042213827709"><ele>436.99999999999994</ele><time>2026-04-11T11:22:40Z</time></trkpt><trkpt lat="45.05596553708914" lon="7.474146300719934"><ele>437.0</ele><time>2026-04-11T11:22:41Z</time></trkpt><trkpt lat="45.055987277036586" lon="7.474266766832957"><ele>435.99999999999994</ele><time>2026-04-11T11:22:42Z</time></trkpt><trkpt lat="45.05600504660409" lon="7.4743769912700895"><ele>435.0</ele><time>2026-04-11T11:22:43Z</time></trkpt><trkpt lat="45.05602715417032" lon="7.474474850518559"><ele>434.0</ele><time>2026-04-11T11:22:44Z</time></trkpt><trkpt lat="45.056042059132004" lon="7.474644098507318"><ele>433.0</ele><time>2026-04-11T11:22:46Z</time></trkpt><trkpt lat="45.056031366951444" lon="7.474750721530853"><ele>431.99999999999994</ele><time>2026-04-11T11:22:47Z</time></trkpt><trkpt lat="45.056014345062685" lon="7.4748816767343875"><ele>431.0</ele><time>2026-04-11T11:22:48Z</time></trkpt><trkpt lat="45.05599672397179" lon="7.474998464986974"><ele>430.20000000000005</ele><time>2026-04-11T11:22:49Z</time></trkpt><trkpt lat="45.05596164678813" lon="7.4751813500909465"><ele>429.40000000000003</ele><time>2026-04-11T11:22:51Z</time></trkpt><trkpt lat="45.05592368122241" lon="7.47530910976036"><ele>428.6</ele><time>2026-04-11T11:22:52Z</time></trkpt><trkpt lat="45.0558720566539" lon="7.475438559995266"><ele>427.8</ele><time>2026-04-11T11:22:53Z</time></trkpt><trkpt lat="45.05581939307312" lon="7.475538183865286"><ele>427.0</ele><time>2026-04-11T11:22:54Z</time></trkpt><trkpt lat="45.055766232622176" lon="7.475626087084847"><ele>425.6666666666667</ele><time>2026-04-11T11:22:55Z</time></trkpt><trkpt lat="45.05571351619123" lon="7.475700468387403"><ele>424.33333333333337</ele><time>2026-04-11T11:22:56Z</time></trkpt><trkpt lat="45.055660078719434" lon="7.475770570608157"><ele>423.0</ele><time>2026-04-11T11:22:57Z</time></trkpt><trkpt lat="45.055610228439804" lon="7.4758371649962445"><ele>421.66666666666663</ele><time>2026-04-11T11:22:58Z</time></trkpt><trkpt lat="45.05553365192929" lon="7.475971368784626"><ele>420.3333333333333</ele><time>2026-04-11T11:23:00Z</time></trkpt><trkpt lat="45.05548821084129" lon="7.476044952794249"><ele>419.0</ele><time>2026-04-11T11:23:01Z</time></trkpt><trkpt lat="45.055435941119555" lon="7.476121371847858"><ele>418.99999999999994</ele><time>2026-04-11T11:23:02Z</time></trkpt><trkpt lat="45.055381167477954" lon="7.476190372957415"><ele>419.0</ele><time>2026-04-11T11:23:03Z</time></trkpt><trkpt lat="45.05532967850248" lon="7.476250433451554"><ele>419.0</ele><time>2026-04-11T11:23:04Z</time></trkpt><trkpt lat="45.055275491454196" lon="7.476302359315769"><ele>419.0</ele><time>2026-04-11T11:23:05Z</time></trkpt><trkpt lat="45.05521291348459" lon="7.47635775787764"><ele>419.0</ele><time>2026-04-11T11:23:06Z</time></trkpt><trkpt lat="45.05514896926913" lon="7.476413710179356"><ele>418.99999999999994</ele><time>2026-04-11T11:23:07Z</time></trkpt><trkpt lat="45.0550909986922" lon="7.4764658065599425"><ele>419.0</ele><time>2026-04-11T11:23:08Z</time></trkpt><trkpt lat="45.05498556156669" lon="7.476557246268099"><ele>418.1428571428571</ele><time>2026-04-11T11:23:10Z</time></trkpt><trkpt lat="45.05492789781034" lon="7.476602600353946"><ele>417.2857142857143</ele><time>2026-04-11T11:23:11Z</time></trkpt><trkpt lat="45.054871251679245" lon="7.47664934955751"><ele>416.42857142857144</ele><time>2026-04-11T11:23:12Z</time></trkpt><trkpt lat="45.054814745751514" lon="7.476702149355366"><ele>415.57142857142856</ele><time>2026-04-11T11:23:13Z</time></trkpt><trkpt lat="45.05475690081184" lon="7.476758187496754"><ele>414.7142857142857</ele><time>2026-04-11T11:23:14Z</time></trkpt><trkpt lat="45.05469765198637" lon="7.476813275391782"><ele>413.85714285714283</ele><time>2026-04-11T11:23:15Z</time></trkpt><trkpt lat="45.0546190916595" lon="7.47687345564938"><ele>413.0</ele><time>2026-04-11T11:23:16Z</time></trkpt><trkpt lat="45.05453548020836" lon="7.476944747246729"><ele>413.0</ele><time>2026-04-11T11:23:17Z</time></trkpt><trkpt lat="45.05443860586307" lon="7.47702306413486"><ele>413.0</ele><time>2026-04-11T11:23:18Z</time></trkpt><trkpt lat="45.05434888239145" lon="7.477089366303318"><ele>413.0</ele><time>2026-04-11T11:23:19Z</time></trkpt><trkpt lat="45.054263484980304" lon="7.477128423000543"><ele>413.0</ele><time>2026-04-11T11:23:20Z</time></trkpt><trkpt lat="45.05416251875557" lon="7.477160777656012"><ele>413.0</ele><time>2026-04-11T11:23:21Z</time></trkpt><trkpt lat="45.05404676310349" lon="7.4771780932091"><ele>411.0</ele><time>2026-04-11T11:23:22Z</time></trkpt><trkpt lat="45.05392294120166" lon="7.477133139311699"><ele>409.0</ele><time>2026-04-11T11:23:23Z</time></trkpt><trkpt lat="45.053799157352856" lon="7.47713333664433"><ele>407.0</ele><time>2026-04-11T11:23:24Z</time></trkpt><trkpt lat="45.05367494471103" lon="7.4771451946852565"><ele>405.0</ele><time>2026-04-11T11:23:25Z</time></trkpt><trkpt lat="45.053560453182726" lon="7.477201677115212"><ele>405.0</ele><time>2026-04-11T11:23:26Z</time></trkpt><trkpt lat="45.053456664894" lon="7.47726656141336"><ele>405.0</ele><time>2026-04-11T11:23:27Z</time></trkpt><trkpt lat="45.05336626812097" lon="7.477342829204596"><ele>405.0</ele><time>2026-04-11T11:23:28Z</time></trkpt><trkpt lat="45.05327478781268" lon="7.477414784595314"><ele>405.0</ele><time>2026-04-11T11:23:29Z</time></trkpt><trkpt lat="45.05318879968967" lon="7.477481010555061"><ele>405.0</ele><time>2026-04-11T11:23:30Z</time></trkpt><trkpt lat="45.05312430175575" lon="7.477548914200791"><ele>404.0</ele><time>2026-04-11T11:23:31Z</time></trkpt><trkpt lat="45.0530748962941" lon="7.477645481783863"><ele>403.0</ele><time>2026-04-11T11:23:32Z</time></trkpt><trkpt lat="45.053020540043875" lon="7.477787979258549"><ele>402.0</ele><time>2026-04-11T11:23:33Z</time></trkpt><trkpt lat="45.05294605395705" lon="7.4779710572667115"><ele>401.0</ele><time>2026-04-11T11:23:34Z</time></trkpt><trkpt lat="45.05284012325558" lon="7.478135347674269"><ele>400.0</ele><time>2026-04-11T11:23:35Z</time></trkpt><trkpt lat="45.05275476683779" lon="7.478307404945322"><ele>399.0</ele><time>2026-04-11T11:23:36Z</time></trkpt><trkpt lat="45.052665659969705" lon="7.47845071392571"><ele>398.0</ele><time>2026-04-11T11:23:37Z</time></trkpt><trkpt lat="45.05257286332535" lon="7.478593797198377"><ele>397.0</ele><time>2026-04-11T11:23:38Z</time></trkpt><trkpt lat="45.05248838655565" lon="7.47873239096511"><ele>395.75</ele><time>2026-04-11T11:23:39Z</time></trkpt><trkpt lat="45.05240989712435" lon="7.478873884038186"><ele>394.5</ele><time>2026-04-11T11:23:40Z</time></trkpt><trkpt lat="45.05232147609167" lon="7.4790035427271"><ele>393.25</ele><time>2026-04-11T11:23:41Z</time></trkpt><trkpt lat="45.05222029289374" lon="7.479132781733917"><ele>392.0</ele><time>2026-04-11T11:23:42Z</time></trkpt><trkpt lat="45.05211432015322" lon="7.479257014970449"><ele>392.0</ele><time>2026-04-11T11:23:43Z</time></trkpt><trkpt lat="45.05200793650566" lon="7.479386318694367"><ele>392.0</ele><time>2026-04-11T11:23:44Z</time></trkpt><trkpt lat="45.05191465672522" lon="7.479513086683765"><ele>392.0</ele><time>2026-04-11T11:23:45Z</time></trkpt><trkpt lat="45.05182600434832" lon="7.479629309675764"><ele>392.0</ele><time>2026-04-11T11:23:46Z</time></trkpt><trkpt lat="45.05174339494325" lon="7.479718359811104"><ele>391.8</ele><time>2026-04-11T11:23:47Z</time></trkpt><trkpt lat="45.051663992649594" lon="7.479788687921563"><ele>391.6</ele><time>2026-04-11T11:23:48Z</time></trkpt><trkpt lat="45.05158280934743" lon="7.47983304555065"><ele>391.40000000000003</ele><time>2026-04-11T11:23:49Z</time></trkpt><trkpt lat="45.05147308731587" lon="7.479811630059117"><ele>391.20000000000005</ele><time>2026-04-11T11:23:50Z</time></trkpt><trkpt lat="45.05136411837748" lon="7.479840813704889"><ele>391.0</ele><time>2026-04-11T11:23:51Z</time></trkpt><trkpt lat="45.05127295470306" lon="7.479915659510431"><ele>390.20000000000005</ele><time>2026-04-11T11:23:52Z</time></trkpt><trkpt lat="45.05117131830069" lon="7.480004983614525"><ele>389.40000000000003</ele><time>2026-04-11T11:23:53Z</time></trkpt><trkpt lat="45.05108004027006" lon="7.480128539052065"><ele>388.6</ele><time>2026-04-11T11:23:54Z</time></trkpt><trkpt lat="45.0510076561978" lon="7.480232791607877"><ele>387.8</ele><time>2026-04-11T11:23:55Z</time></trkpt><trkpt lat="45.05094474422238" lon="7.480338824499138"><ele>387.0</ele><time>2026-04-11T11:23:56Z</time></trkpt><trkpt lat="45.05089605012638" lon="7.4804933142558365"><ele>386.5</ele><time>2026-04-11T11:23:57Z</time></trkpt><trkpt lat="45.050857906365415" lon="7.480676987774222"><ele>386.0</ele><time>2026-04-11T11:23:58Z</time></trkpt><trkpt lat="45.05082130443993" lon="7.480885881619811"><ele>385.5</ele><time>2026-04-11T11:23:59Z</time></trkpt><trkpt lat="45.050782678451306" lon="7.481065906833915"><ele>385.0</ele><time>2026-04-11T11:24:00Z</time></trkpt><trkpt lat="45.050732983025476" lon="7.481213895990424"><ele>385.8</ele><time>2026-04-11T11:24:01Z</time></trkpt><trkpt lat="45.05064029936198" lon="7.4813164817652025"><ele>386.6</ele><time>2026-04-11T11:24:02Z</time></trkpt><trkpt lat="45.05057336852649" lon="7.481446952610065"><ele>387.4</ele><time>2026-04-11T11:24:03Z</time></trkpt><trkpt lat="45.05051002011899" lon="7.481558896230866"><ele>388.2</ele><time>2026-04-11T11:24:04Z</time></trkpt><trkpt lat="45.050466321381535" lon="7.481685262532737"><ele>389.0</ele><time>2026-04-11T11:24:05Z</time></trkpt><trkpt lat="45.050436023584815" lon="7.481839308618188"><ele>389.0</ele><time>2026-04-11T11:24:06Z</time></trkpt><trkpt lat="45.050424165727215" lon="7.482023429151825"><ele>389.0</ele><time>2026-04-11T11:24:07Z</time></trkpt><trkpt lat="45.050413320770446" lon="7.4822206796564865"><ele>389.0</ele><time>2026-04-11T11:24:08Z</time></trkpt><trkpt lat="45.05037786647063" lon="7.482373966711764"><ele>389.0</ele><time>2026-04-11T11:24:09Z</time></trkpt><trkpt lat="45.05035426948459" lon="7.482509955130364"><ele>388.0</ele><time>2026-04-11T11:24:10Z</time></trkpt><trkpt lat="45.05032362205177" lon="7.482619789722965"><ele>387.0</ele><time>2026-04-11T11:24:11Z</time></trkpt><trkpt lat="45.050275808553174" lon="7.4826947457694235"><ele>386.0</ele><time>2026-04-11T11:24:12Z</time></trkpt><trkpt lat="45.05017634337947" lon="7.4827063597556585"><ele>385.0</ele><time>2026-04-11T11:24:13Z</time></trkpt><trkpt lat="45.05007526520933" lon="7.48272878213206"><ele>384.0</ele><time>2026-04-11T11:24:14Z</time></trkpt><trkpt lat="45.04996178959742" lon="7.482810823055503"><ele>383.25</ele><time>2026-04-11T11:24:15Z</time></trkpt><trkpt lat="45.04985641517354" lon="7.482903181252864"><ele>382.5</ele><time>2026-04-11T11:24:16Z</time></trkpt><trkpt lat="45.049753987261866" lon="7.483022910158402"><ele>381.75</ele><time>2026-04-11T11:24:17Z</time></trkpt><trkpt lat="45.049642451255224" lon="7.483119325771909"><ele>381.0</ele><time>2026-04-11T11:24:18Z</time></trkpt><trkpt lat="45.049548802763766" lon="7.483224446698311"><ele>380.1666666666667</ele><time>2026-04-11T11:24:19Z</time></trkpt><trkpt lat="45.04946212354179" lon="7.483313694167994"><ele>379.3333333333333</ele><time>2026-04-11T11:24:20Z</time></trkpt><trkpt lat="45.04939459523041" lon="7.483386812078222"><ele>378.5</ele><time>2026-04-11T11:24:21Z</time></trkpt><trkpt lat="45.04933410900711" lon="7.483443202665742"><ele>377.66666666666663</ele><time>2026-04-11T11:24:22Z</time></trkpt><trkpt lat="45.04927893909961" lon="7.4835040774722525"><ele>376.8333333333333</ele><time>2026-04-11T11:24:24Z</time></trkpt><trkpt lat="45.049333113637424" lon="7.483574733895847"><ele>376.0</ele><time>2026-04-11T11:24:27Z</time></trkpt><trkpt lat="45.049441277227125" lon="7.483609787761235"><ele>376.0</ele><time>2026-04-11T11:24:29Z</time></trkpt><trkpt lat="45.04951846100789" lon="7.483647967869925"><ele>376.0</ele><time>2026-04-11T11:24:30Z</time></trkpt><trkpt lat="45.049584670054045" lon="7.483682360631639"><ele>376.0</ele><time>2026-04-11T11:24:31Z</time></trkpt><trkpt lat="45.04969022630596" lon="7.483705724093374"><ele>376.0</ele><time>2026-04-11T11:24:33Z</time></trkpt><trkpt lat="45.0496156112402" lon="7.483690587681816"><ele>376.0</ele><time>2026-04-11T11:25:04Z</time></trkpt><trkpt lat="45.04953448868978" lon="7.483653887083332"><ele>376.0</ele><time>2026-04-11T11:25:06Z</time></trkpt><trkpt lat="45.049465191882454" lon="7.483622987295137"><ele>376.0</ele><time>2026-04-11T11:25:08Z</time></trkpt><trkpt lat="45.0494005645337" lon="7.483586956534587"><ele>376.0</ele><time>2026-04-11T11:25:10Z</time></trkpt><trkpt lat="45.04932716296953" lon="7.483556588265293"><ele>376.0</ele><time>2026-04-11T11:25:13Z</time></trkpt><trkpt lat="45.049143688327796" lon="7.483561287967332"><ele>376.0</ele><time>2026-04-11T11:25:16Z</time></trkpt><trkpt lat="45.04906576631635" lon="7.483612536991747"><ele>376.0</ele><time>2026-04-11T11:25:17Z</time></trkpt><trkpt lat="45.04899478625181" lon="7.4837075097586325"><ele>375.0</ele><time>2026-04-11T11:25:18Z</time></trkpt><trkpt lat="45.04891738915248" lon="7.483789634434501"><ele>374.0</ele><time>2026-04-11T11:25:19Z</time></trkpt><trkpt lat="45.048839749906385" lon="7.483863317513707"><ele>373.0</ele><time>2026-04-11T11:25:20Z</time></trkpt><trkpt lat="45.0487715306783" lon="7.483937150976065"><ele>372.0</ele><time>2026-04-11T11:25:21Z</time></trkpt><trkpt lat="45.048701821857094" lon="7.483978351134721"><ele>371.0</ele><time>2026-04-11T11:25:22Z</time></trkpt><trkpt lat="45.04864960952612" lon="7.484064996981665"><ele>370.0</ele><time>2026-04-11T11:25:23Z</time></trkpt><trkpt lat="45.04857691703872" lon="7.484145734011007"><ele>370.0</ele><time>2026-04-11T11:25:24Z</time></trkpt><trkpt lat="45.04851210061041" lon="7.484237647921025"><ele>370.0</ele><time>2026-04-11T11:25:25Z</time></trkpt><trkpt lat="45.04845345194316" lon="7.484336379378631"><ele>370.0</ele><time>2026-04-11T11:25:26Z</time></trkpt><trkpt lat="45.0484046316023" lon="7.484440214242812"><ele>370.0</ele><time>2026-04-11T11:25:27Z</time></trkpt><trkpt lat="45.048360534929174" lon="7.4845188017074"><ele>370.0</ele><time>2026-04-11T11:25:28Z</time></trkpt><trkpt lat="45.04831622200364" lon="7.48462169283611"><ele>370.0</ele><time>2026-04-11T11:25:29Z</time></trkpt><trkpt lat="45.048283324192504" lon="7.4847414291906755"><ele>369.0</ele><time>2026-04-11T11:25:30Z</time></trkpt><trkpt lat="45.04826039126594" lon="7.484870268403438"><ele>368.0</ele><time>2026-04-11T11:25:31Z</time></trkpt><trkpt lat="45.04823348388214" lon="7.484993307817086"><ele>367.0</ele><time>2026-04-11T11:25:32Z</time></trkpt><trkpt lat="45.04818906223079" lon="7.485096440239116"><ele>366.0</ele><time>2026-04-11T11:25:33Z</time></trkpt><trkpt lat="45.04813368315433" lon="7.485176463423511"><ele>365.0</ele><time>2026-04-11T11:25:34Z</time></trkpt><trkpt lat="45.04805843444223" lon="7.485238718558136"><ele>364.0</ele><time>2026-04-11T11:25:35Z</time></trkpt><trkpt lat="45.04794072896684" lon="7.485243835668574"><ele>364.0</ele><time>2026-04-11T11:25:36Z</time></trkpt><trkpt lat="45.047815014703865" lon="7.48529867618192"><ele>364.0</ele><time>2026-04-11T11:25:37Z</time></trkpt><trkpt lat="45.04769272341569" lon="7.485372420868247"><ele>364.0</ele><time>2026-04-11T11:25:38Z</time></trkpt><trkpt lat="45.04757430390618" lon="7.485425175609966"><ele>364.0</ele><time>2026-04-11T11:25:39Z</time></trkpt><trkpt lat="45.04747312482192" lon="7.485474638436968"><ele>363.4</ele><time>2026-04-11T11:25:40Z</time></trkpt><trkpt lat="45.04738052855794" lon="7.4855212391196995"><ele>362.79999999999995</ele><time>2026-04-11T11:25:41Z</time></trkpt><trkpt lat="45.04728065537549" lon="7.485574155770824"><ele>362.20000000000005</ele><time>2026-04-11T11:25:42Z</time></trkpt><trkpt lat="45.04718516158226" lon="7.485618198946956"><ele>361.6</ele><time>2026-04-11T11:25:43Z</time></trkpt><trkpt lat="45.047085152393024" lon="7.48567179335358"><ele>361.0</ele><time>2026-04-11T11:25:44Z</time></trkpt><trkpt lat="45.046986885210366" lon="7.485722034063113"><ele>361.0</ele><time>2026-04-11T11:25:45Z</time></trkpt><trkpt lat="45.0469003343315" lon="7.4857591902146385"><ele>361.0</ele><time>2026-04-11T11:25:46Z</time></trkpt><trkpt lat="45.0468287099742" lon="7.48578805990667"><ele>361.0</ele><time>2026-04-11T11:25:47Z</time></trkpt><trkpt lat="45.04676862577095" lon="7.485826902048226"><ele>361.0</ele><time>2026-04-11T11:25:48Z</time></trkpt><trkpt lat="45.04669892178512" lon="7.485867069932452"><ele>361.0</ele><time>2026-04-11T11:25:50Z</time></trkpt><trkpt lat="45.04674131654191" lon="7.4860486934074615"><ele>361.0</ele><time>2026-04-11T11:25:51Z</time></trkpt><trkpt lat="45.04678068406851" lon="7.48615644765951"><ele>360.75</ele><time>2026-04-11T11:25:52Z</time></trkpt><trkpt lat="45.04683425052448" lon="7.4862939013060785"><ele>360.5</ele><time>2026-04-11T11:25:53Z</time></trkpt><trkpt lat="45.0468872137337" lon="7.486447546962799"><ele>360.25</ele><time>2026-04-11T11:25:54Z</time></trkpt><trkpt lat="45.04693689261677" lon="7.4866109167677255"><ele>360.0</ele><time>2026-04-11T11:25:55Z</time></trkpt><trkpt lat="45.04699052197577" lon="7.4867817324837524"><ele>360.0</ele><time>2026-04-11T11:25:56Z</time></trkpt><trkpt lat="45.0470471058243" lon="7.486957340658616"><ele>360.0</ele><time>2026-04-11T11:25:57Z</time></trkpt><trkpt lat="45.04710443649713" lon="7.4871303552419315"><ele>360.0</ele><time>2026-04-11T11:25:58Z</time></trkpt><trkpt lat="45.04715518203792" lon="7.487290881292256"><ele>360.0</ele><time>2026-04-11T11:25:59Z</time></trkpt><trkpt lat="45.04720257242882" lon="7.48744473160435"><ele>360.0</ele><time>2026-04-11T11:26:00Z</time></trkpt><trkpt lat="45.04725055307567" lon="7.487591417025635"><ele>360.0</ele><time>2026-04-11T11:26:01Z</time></trkpt><trkpt lat="45.04729825345498" lon="7.487738568342727"><ele>360.0</ele><time>2026-04-11T11:26:02Z</time></trkpt><trkpt lat="45.0473416625186" lon="7.487883155589713"><ele>360.0</ele><time>2026-04-11T11:26:03Z</time></trkpt><trkpt lat="45.04738090575508" lon="7.488008231189847"><ele>360.0</ele><time>2026-04-11T11:26:04Z</time></trkpt><trkpt lat="45.04742384946678" lon="7.488117111844584"><ele>359.8333333333333</ele><time>2026-04-11T11:26:05Z</time></trkpt><trkpt lat="45.04746982553115" lon="7.48820384249824"><ele>359.6666666666667</ele><time>2026-04-11T11:26:06Z</time></trkpt><trkpt lat="45.04752552263376" lon="7.488269254508228"><ele>359.5</ele><time>2026-04-11T11:26:07Z</time></trkpt><trkpt lat="45.04758878758082" lon="7.488359604580307"><ele>359.33333333333337</ele><time>2026-04-11T11:26:09Z</time></trkpt><trkpt lat="45.04750792288694" lon="7.488460673226624"><ele>359.1666666666667</ele><time>2026-04-11T11:26:11Z</time></trkpt><trkpt lat="45.04743947791634" lon="7.488475717071379"><ele>359.0</ele><time>2026-04-11T11:26:12Z</time></trkpt><trkpt lat="45.04739311436819" lon="7.488614858107869"><ele>359.0</ele><time>2026-04-11T11:26:14Z</time></trkpt><trkpt lat="45.047497113403466" lon="7.488770242837107"><ele>359.0</ele><time>2026-04-11T11:26:16Z</time></trkpt><trkpt lat="45.047588117562675" lon="7.488912395536948"><ele>359.0</ele><time>2026-04-11T11:26:17Z</time></trkpt><trkpt lat="45.04765433707314" lon="7.489073588247294"><ele>359.0</ele><time>2026-04-11T11:26:18Z</time></trkpt><trkpt lat="45.04771167830354" lon="7.489279495693867"><ele>359.0</ele><time>2026-04-11T11:26:19Z</time></trkpt><trkpt lat="45.04776799000274" lon="7.489487019790636"><ele>359.0</ele><time>2026-04-11T11:26:20Z</time></trkpt><trkpt lat="45.04784344630699" lon="7.489737876382551"><ele>359.0</ele><time>2026-04-11T11:26:21Z</time></trkpt><trkpt lat="45.047921976755205" lon="7.489964800514639"><ele>358.75</ele><time>2026-04-11T11:26:22Z</time></trkpt><trkpt lat="45.04795395864147" lon="7.490105764435613"><ele>358.5</ele><time>2026-04-11T11:26:23Z</time></trkpt><trkpt lat="45.04797942862145" lon="7.490233822655898"><ele>358.25</ele><time>2026-04-11T11:26:24Z</time></trkpt><trkpt lat="45.04799572608728" lon="7.4903298192072425"><ele>358.0</ele><time>2026-04-11T11:26:25Z</time></trkpt><trkpt lat="45.048134711890135" lon="7.490669550262501"><ele>357.59999999999997</ele><time>2026-04-11T11:26:26Z</time></trkpt><trkpt lat="45.04817998885812" lon="7.490800731128201"><ele>357.2</ele><time>2026-04-11T11:26:27Z</time></trkpt><trkpt lat="45.04821889226242" lon="7.490920802701622"><ele>356.8</ele><time>2026-04-11T11:26:28Z</time></trkpt><trkpt lat="45.048252808016116" lon="7.491034347529869"><ele>356.4</ele><time>2026-04-11T11:26:29Z</time></trkpt><trkpt lat="45.04828995647145" lon="7.4911611539316345"><ele>356.0</ele><time>2026-04-11T11:26:30Z</time></trkpt><trkpt lat="45.04832961727377" lon="7.491282052064029"><ele>355.8</ele><time>2026-04-11T11:26:31Z</time></trkpt><trkpt lat="45.04837007925051" lon="7.491412019868108"><ele>355.6</ele><time>2026-04-11T11:26:32Z</time></trkpt><trkpt lat="45.0484091549693" lon="7.491542488930819"><ele>355.4</ele><time>2026-04-11T11:26:33Z</time></trkpt><trkpt lat="45.0484463972295" lon="7.491669832458929"><ele>355.2</ele><time>2026-04-11T11:26:34Z</time></trkpt><trkpt lat="45.04848350301136" lon="7.491798008037494"><ele>355.0</ele><time>2026-04-11T11:26:35Z</time></trkpt><trkpt lat="45.048521407487335" lon="7.491930165482878"><ele>355.0</ele><time>2026-04-11T11:26:36Z</time></trkpt><trkpt lat="45.04855891803739" lon="7.49206507480493"><ele>355.0</ele><time>2026-04-11T11:26:37Z</time></trkpt><trkpt lat="45.048603903206285" lon="7.492211928519322"><ele>355.0</ele><time>2026-04-11T11:26:38Z</time></trkpt><trkpt lat="45.04864280863909" lon="7.4923464977702565"><ele>355.0</ele><time>2026-04-11T11:26:39Z</time></trkpt><trkpt lat="45.048686225595915" lon="7.492481312709467"><ele>355.0</ele><time>2026-04-11T11:26:40Z</time></trkpt><trkpt lat="45.048729545562104" lon="7.492611033058946"><ele>355.0</ele><time>2026-04-11T11:26:41Z</time></trkpt><trkpt lat="45.04877106230869" lon="7.492735848331404"><ele>355.0</ele><time>2026-04-11T11:26:42Z</time></trkpt><trkpt lat="45.048807980569485" lon="7.492856646088214"><ele>355.0</ele><time>2026-04-11T11:26:43Z</time></trkpt><trkpt lat="45.04884874963464" lon="7.492979429316965"><ele>355.0</ele><time>2026-04-11T11:26:44Z</time></trkpt><trkpt lat="45.04888615318115" lon="7.493110740209102"><ele>355.0</ele><time>2026-04-11T11:26:45Z</time></trkpt><trkpt lat="45.04892582167929" lon="7.493241097231913"><ele>354.8</ele><time>2026-04-11T11:26:46Z</time></trkpt><trkpt lat="45.048969081801204" lon="7.493368086740469"><ele>354.6</ele><time>2026-04-11T11:26:47Z</time></trkpt><trkpt lat="45.04901938478602" lon="7.493489962902022"><ele>354.4</ele><time>2026-04-11T11:26:48Z</time></trkpt><trkpt lat="45.049071809670345" lon="7.493607636135793"><ele>354.2</ele><time>2026-04-11T11:26:49Z</time></trkpt><trkpt lat="45.0491340807071" lon="7.493713662702283"><ele>354.0</ele><time>2026-04-11T11:26:50Z</time></trkpt><trkpt lat="45.04921194429923" lon="7.493818804449722"><ele>353.0</ele><time>2026-04-11T11:26:51Z</time></trkpt><trkpt lat="45.04929261305971" lon="7.493924829056466"><ele>352.0</ele><time>2026-04-11T11:26:52Z</time></trkpt><trkpt lat="45.04937012338044" lon="7.494020608314374"><ele>351.0</ele><time>2026-04-11T11:26:53Z</time></trkpt><trkpt lat="45.049453499254575" lon="7.494112319371771"><ele>350.0</ele><time>2026-04-11T11:26:54Z</time></trkpt><trkpt lat="45.04953735186691" lon="7.494209726006074"><ele>349.0</ele><time>2026-04-11T11:26:55Z</time></trkpt><trkpt lat="45.049616884632194" lon="7.494307431584825"><ele>349.0</ele><time>2026-04-11T11:26:56Z</time></trkpt><trkpt lat="45.04970286041939" lon="7.494399580439591"><ele>349.0</ele><time>2026-04-11T11:26:57Z</time></trkpt><trkpt lat="45.04980059444096" lon="7.494502818927397"><ele>349.0</ele><time>2026-04-11T11:26:58Z</time></trkpt><trkpt lat="45.04988534489754" lon="7.4946058178903066"><ele>349.0</ele><time>2026-04-11T11:26:59Z</time></trkpt><trkpt lat="45.04997237008134" lon="7.494703155617953"><ele>348.79999999999995</ele><time>2026-04-11T11:27:00Z</time></trkpt><trkpt lat="45.05005802369769" lon="7.494799459175536"><ele>348.59999999999997</ele><time>2026-04-11T11:27:01Z</time></trkpt><trkpt lat="45.05013903755019" lon="7.494891836649948"><ele>348.4</ele><time>2026-04-11T11:27:02Z</time></trkpt><trkpt lat="45.05021871297301" lon="7.494985543295437"><ele>348.2</ele><time>2026-04-11T11:27:03Z</time></trkpt><trkpt lat="45.0502970288503" lon="7.4950734800675045"><ele>348.0</ele><time>2026-04-11T11:27:04Z</time></trkpt><trkpt lat="45.05037914993703" lon="7.49516562760245"><ele>348.0</ele><time>2026-04-11T11:27:05Z</time></trkpt><trkpt lat="45.05046363999504" lon="7.495266032290736"><ele>348.0</ele><time>2026-04-11T11:27:06Z</time></trkpt><trkpt lat="45.05054544076192" lon="7.495360131083276"><ele>348.0</ele><time>2026-04-11T11:27:07Z</time></trkpt><trkpt lat="45.05063730023763" lon="7.495450892475068"><ele>348.0</ele><time>2026-04-11T11:27:08Z</time></trkpt><trkpt lat="45.05071980537591" lon="7.495541406128195"><ele>348.0</ele><time>2026-04-11T11:27:09Z</time></trkpt><trkpt lat="45.050803228804824" lon="7.495635493549861"><ele>348.4</ele><time>2026-04-11T11:27:10Z</time></trkpt><trkpt lat="45.05089187299103" lon="7.495732365075761"><ele>348.79999999999995</ele><time>2026-04-11T11:27:11Z</time></trkpt><trkpt lat="45.05098139937248" lon="7.495827146823804"><ele>349.2</ele><time>2026-04-11T11:27:12Z</time></trkpt><trkpt lat="45.051071019296764" lon="7.495927213488125"><ele>349.6</ele><time>2026-04-11T11:27:13Z</time></trkpt><trkpt lat="45.051147130516" lon="7.496020091373696"><ele>350.0</ele><time>2026-04-11T11:27:14Z</time></trkpt><trkpt lat="45.05122694287742" lon="7.496113034745875"><ele>350.0</ele><time>2026-04-11T11:27:15Z</time></trkpt><trkpt lat="45.05131782195314" lon="7.4962057676750415"><ele>350.0</ele><time>2026-04-11T11:27:16Z</time></trkpt><trkpt lat="45.05140674099524" lon="7.4963024539824215"><ele>350.0</ele><time>2026-04-11T11:27:17Z</time></trkpt><trkpt lat="45.05149527912498" lon="7.4964012742280275"><ele>350.0</ele><time>2026-04-11T11:27:18Z</time></trkpt><trkpt lat="45.051583354408905" lon="7.496497831452229"><ele>350.0</ele><time>2026-04-11T11:27:19Z</time></trkpt><trkpt lat="45.05166971460344" lon="7.496593006801466"><ele>350.6</ele><time>2026-04-11T11:27:20Z</time></trkpt><trkpt lat="45.051745514344994" lon="7.496694525657765"><ele>351.2</ele><time>2026-04-11T11:27:21Z</time></trkpt><trkpt lat="45.051826291554256" lon="7.49679172646425"><ele>351.79999999999995</ele><time>2026-04-11T11:27:22Z</time></trkpt><trkpt lat="45.05191264320917" lon="7.496890455651712"><ele>352.4</ele><time>2026-04-11T11:27:23Z</time></trkpt><trkpt lat="45.05199101865522" lon="7.4969987434764525"><ele>353.0</ele><time>2026-04-11T11:27:24Z</time></trkpt><trkpt lat="45.052062315649984" lon="7.497127740245988"><ele>353.0</ele><time>2026-04-11T11:27:25Z</time></trkpt><trkpt lat="45.052126318416605" lon="7.497264108226614"><ele>353.0</ele><time>2026-04-11T11:27:26Z</time></trkpt><trkpt lat="45.05218645980424" lon="7.497406699600058"><ele>353.0</ele><time>2026-04-11T11:27:27Z</time></trkpt><trkpt lat="45.05224169830703" lon="7.497549125870834"><ele>353.0</ele><time>2026-04-11T11:27:28Z</time></trkpt><trkpt lat="45.05230169887751" lon="7.497696247795605"><ele>353.0</ele><time>2026-04-11T11:27:29Z</time></trkpt><trkpt lat="45.05235512584992" lon="7.4978327972507595"><ele>353.0</ele><time>2026-04-11T11:27:30Z</time></trkpt><trkpt lat="45.052411097409504" lon="7.497983720904325"><ele>353.0</ele><time>2026-04-11T11:27:31Z</time></trkpt><trkpt lat="45.052466703740386" lon="7.498136892080918"><ele>353.0</ele><time>2026-04-11T11:27:32Z</time></trkpt><trkpt lat="45.05252604700847" lon="7.498285761248846"><ele>353.0</ele><time>2026-04-11T11:27:33Z</time></trkpt><trkpt lat="45.05257756549112" lon="7.498432444015526"><ele>353.0</ele><time>2026-04-11T11:27:34Z</time></trkpt><trkpt lat="45.05263138999793" lon="7.4985952464458"><ele>353.0</ele><time>2026-04-11T11:27:35Z</time></trkpt><trkpt lat="45.05272735747874" lon="7.4988291441077175"><ele>353.0</ele><time>2026-04-11T11:27:36Z</time></trkpt><trkpt lat="45.05281779079637" lon="7.499082202154106"><ele>353.33333333333337</ele><time>2026-04-11T11:27:37Z</time></trkpt><trkpt lat="45.05285757531103" lon="7.499325690052522"><ele>353.6666666666667</ele><time>2026-04-11T11:27:38Z</time></trkpt><trkpt lat="45.05288463732944" lon="7.499582905251697"><ele>354.0</ele><time>2026-04-11T11:27:39Z</time></trkpt><trkpt lat="45.0528730546522" lon="7.4998502585769895"><ele>353.3333333333333</ele><time>2026-04-11T11:27:40Z</time></trkpt><trkpt lat="45.05286619397761" lon="7.500132217156668"><ele>352.66666666666663</ele><time>2026-04-11T11:27:41Z</time></trkpt><trkpt lat="45.05282067066716" lon="7.50036955356406"><ele>352.0</ele><time>2026-04-11T11:27:42Z</time></trkpt><trkpt lat="45.05278605686748" lon="7.500588846222363"><ele>351.75</ele><time>2026-04-11T11:27:43Z</time></trkpt><trkpt lat="45.05276367160921" lon="7.500775794076755"><ele>351.5</ele><time>2026-04-11T11:27:44Z</time></trkpt><trkpt lat="45.05274224802877" lon="7.500944820971291"><ele>351.25</ele><time>2026-04-11T11:27:45Z</time></trkpt><trkpt lat="45.05271603654992" lon="7.501117430159143"><ele>351.0</ele><time>2026-04-11T11:27:46Z</time></trkpt><trkpt lat="45.05269070753669" lon="7.501292947331432"><ele>350.3333333333333</ele><time>2026-04-11T11:27:47Z</time></trkpt><trkpt lat="45.052664060008" lon="7.5014821031676"><ele>349.66666666666663</ele><time>2026-04-11T11:27:48Z</time></trkpt><trkpt lat="45.05263246510069" lon="7.501704377664324"><ele>349.0</ele><time>2026-04-11T11:27:49Z</time></trkpt><trkpt lat="45.05259157208931" lon="7.501967650299887"><ele>348.66666666666663</ele><time>2026-04-11T11:27:50Z</time></trkpt><trkpt lat="45.05254452161504" lon="7.502249087822882"><ele>348.3333333333333</ele><time>2026-04-11T11:27:51Z</time></trkpt><trkpt lat="45.052496952903645" lon="7.5025146535199285"><ele>348.0</ele><time>2026-04-11T11:27:52Z</time></trkpt><trkpt lat="45.05245797226166" lon="7.502763298298516"><ele>346.3333333333333</ele><time>2026-04-11T11:27:53Z</time></trkpt><trkpt lat="45.0524222596404" lon="7.50298605199823"><ele>344.66666666666663</ele><time>2026-04-11T11:27:54Z</time></trkpt><trkpt lat="45.05238585533846" lon="7.503205558037249"><ele>343.0</ele><time>2026-04-11T11:27:55Z</time></trkpt><trkpt lat="45.052358195852186" lon="7.503416222553487"><ele>343.0</ele><time>2026-04-11T11:27:56Z</time></trkpt><trkpt lat="45.05234535749168" lon="7.503624491442158"><ele>343.0</ele><time>2026-04-11T11:27:57Z</time></trkpt><trkpt lat="45.0523559506787" lon="7.503842366302562"><ele>343.0</ele><time>2026-04-11T11:27:58Z</time></trkpt><trkpt lat="45.05240315163513" lon="7.504058724747713"><ele>343.3333333333333</ele><time>2026-04-11T11:27:59Z</time></trkpt><trkpt lat="45.052478208789495" lon="7.504259717325527"><ele>343.6666666666667</ele><time>2026-04-11T11:28:00Z</time></trkpt><trkpt lat="45.052579382180284" lon="7.504448397334879"><ele>344.0</ele><time>2026-04-11T11:28:01Z</time></trkpt><trkpt lat="45.05270942008034" lon="7.504634958123976"><ele>344.0</ele><time>2026-04-11T11:28:02Z</time></trkpt><trkpt lat="45.052862471175715" lon="7.504838119811052"><ele>344.0</ele><time>2026-04-11T11:28:03Z</time></trkpt><trkpt lat="45.053032376945175" lon="7.505056047136237"><ele>344.0</ele><time>2026-04-11T11:28:04Z</time></trkpt><trkpt lat="45.0532106178225" lon="7.505286289529206"><ele>344.0</ele><time>2026-04-11T11:28:05Z</time></trkpt><trkpt lat="45.053401815849305" lon="7.505534209956424"><ele>344.0</ele><time>2026-04-11T11:28:06Z</time></trkpt><trkpt lat="45.05360318921185" lon="7.505792162986645"><ele>344.0</ele><time>2026-04-11T11:28:07Z</time></trkpt><trkpt lat="45.05380211398974" lon="7.506050861203201"><ele>344.0</ele><time>2026-04-11T11:28:08Z</time></trkpt><trkpt lat="45.05400747274116" lon="7.506320564839613"><ele>345.5</ele><time>2026-04-11T11:28:09Z</time></trkpt><trkpt lat="45.05421398306754" lon="7.50659403056319"><ele>347.0</ele><time>2026-04-11T11:28:10Z</time></trkpt><trkpt lat="45.0544322769675" lon="7.5068823892992045"><ele>346.0</ele><time>2026-04-11T11:28:11Z</time></trkpt><trkpt lat="45.054642681361486" lon="7.507161834790745"><ele>345.0</ele><time>2026-04-11T11:28:12Z</time></trkpt><trkpt lat="45.05486050522983" lon="7.5074438724741634"><ele>347.5</ele><time>2026-04-11T11:28:13Z</time></trkpt><trkpt lat="45.05507603541891" lon="7.5077271134659"><ele>350.0</ele><time>2026-04-11T11:28:14Z</time></trkpt><trkpt lat="45.05528992567924" lon="7.508011028319038"><ele>350.0</ele><time>2026-04-11T11:28:15Z</time></trkpt><trkpt lat="45.05549550597353" lon="7.50828175441188"><ele>350.0</ele><time>2026-04-11T11:28:16Z</time></trkpt><trkpt lat="45.05569326324385" lon="7.508538918368921"><ele>352.0</ele><time>2026-04-11T11:28:17Z</time></trkpt><trkpt lat="45.05587827116449" lon="7.508776958301162"><ele>354.0</ele><time>2026-04-11T11:28:18Z</time></trkpt><trkpt lat="45.056054428066304" lon="7.508999851826713"><ele>354.0</ele><time>2026-04-11T11:28:19Z</time></trkpt><trkpt lat="45.05622656158014" lon="7.5092196930294355"><ele>354.0</ele><time>2026-04-11T11:28:20Z</time></trkpt><trkpt lat="45.05639265126125" lon="7.509436368498216"><ele>354.3333333333333</ele><time>2026-04-11T11:28:21Z</time></trkpt><trkpt lat="45.056557598456266" lon="7.509646337140002"><ele>354.66666666666663</ele><time>2026-04-11T11:28:22Z</time></trkpt><trkpt lat="45.0567111537867" lon="7.509838889595468"><ele>355.0</ele><time>2026-04-11T11:28:23Z</time></trkpt><trkpt lat="45.05686777019384" lon="7.510032910746788"><ele>357.66666666666663</ele><time>2026-04-11T11:28:24Z</time></trkpt><trkpt lat="45.057037232223074" lon="7.510225759090066"><ele>360.3333333333333</ele><time>2026-04-11T11:28:25Z</time></trkpt><trkpt lat="45.05721974848787" lon="7.510413862783126"><ele>363.0</ele><time>2026-04-11T11:28:26Z</time></trkpt><trkpt lat="45.0573956982877" lon="7.510587116105951"><ele>363.3333333333333</ele><time>2026-04-11T11:28:27Z</time></trkpt><trkpt lat="45.057565342297345" lon="7.510749931628777"><ele>363.66666666666663</ele><time>2026-04-11T11:28:28Z</time></trkpt><trkpt lat="45.05773543327119" lon="7.510912426312243"><ele>364.0</ele><time>2026-04-11T11:28:29Z</time></trkpt><trkpt lat="45.057905841333245" lon="7.511073733794481"><ele>364.0</ele><time>2026-04-11T11:28:30Z</time></trkpt><trkpt lat="45.058080007912565" lon="7.511229908786863"><ele>364.0</ele><time>2026-04-11T11:28:31Z</time></trkpt><trkpt lat="45.05827184804453" lon="7.5114006964221"><ele>364.0</ele><time>2026-04-11T11:28:32Z</time></trkpt><trkpt lat="45.05847775393801" lon="7.511588149530286"><ele>360.5</ele><time>2026-04-11T11:28:33Z</time></trkpt><trkpt lat="45.05867990769001" lon="7.511776811416081"><ele>357.0</ele><time>2026-04-11T11:28:34Z</time></trkpt><trkpt lat="45.058876140258704" lon="7.5119633667703924"><ele>356.6666666666667</ele><time>2026-04-11T11:28:35Z</time></trkpt><trkpt lat="45.059058800023024" lon="7.512139426337802"><ele>356.33333333333337</ele><time>2026-04-11T11:28:36Z</time></trkpt><trkpt lat="45.05922588763795" lon="7.512304496789855"><ele>356.0</ele><time>2026-04-11T11:28:37Z</time></trkpt><trkpt lat="45.05938480092203" lon="7.512469218581429"><ele>355.6666666666667</ele><time>2026-04-11T11:28:38Z</time></trkpt><trkpt lat="45.05953267500976" lon="7.512649872429787"><ele>355.3333333333333</ele><time>2026-04-11T11:28:39Z</time></trkpt><trkpt lat="45.059668729915245" lon="7.512846845261777"><ele>355.0</ele><time>2026-04-11T11:28:40Z</time></trkpt><trkpt lat="45.059778039085074" lon="7.513030226963242"><ele>355.75</ele><time>2026-04-11T11:28:41Z</time></trkpt><trkpt lat="45.0598722277866" lon="7.513205941517824"><ele>356.5</ele><time>2026-04-11T11:28:42Z</time></trkpt><trkpt lat="45.0599502324922" lon="7.513370095967888"><ele>357.25</ele><time>2026-04-11T11:28:43Z</time></trkpt><trkpt lat="45.060011869597936" lon="7.513526652442381"><ele>358.0</ele><time>2026-04-11T11:28:44Z</time></trkpt><trkpt lat="45.06006334966571" lon="7.51368920973944"><ele>356.75</ele><time>2026-04-11T11:28:45Z</time></trkpt><trkpt lat="45.060106183853534" lon="7.5138468726511825"><ele>355.5</ele><time>2026-04-11T11:28:46Z</time></trkpt><trkpt lat="45.060135881622664" lon="7.513999971193792"><ele>354.25</ele><time>2026-04-11T11:28:47Z</time></trkpt><trkpt lat="45.060148742094846" lon="7.514174547981273"><ele>353.0</ele><time>2026-04-11T11:28:48Z</time></trkpt><trkpt lat="45.06014176151146" lon="7.514385396165904"><ele>352.33333333333337</ele><time>2026-04-11T11:28:49Z</time></trkpt><trkpt lat="45.06015707064693" lon="7.5146110865088325"><ele>351.6666666666667</ele><time>2026-04-11T11:28:50Z</time></trkpt><trkpt lat="45.060191281895875" lon="7.514851753342492"><ele>351.0</ele><time>2026-04-11T11:28:51Z</time></trkpt><trkpt lat="45.0602051593557" lon="7.515118864306582"><ele>350.0</ele><time>2026-04-11T11:28:52Z</time></trkpt><trkpt lat="45.06018705216712" lon="7.515412484490557"><ele>349.0</ele><time>2026-04-11T11:28:53Z</time></trkpt><trkpt lat="45.06015314067316" lon="7.515721324677128"><ele>348.0</ele><time>2026-04-11T11:28:54Z</time></trkpt><trkpt lat="45.06011488082228" lon="7.5160237020148895"><ele>348.0</ele><time>2026-04-11T11:28:55Z</time></trkpt><trkpt lat="45.060086543045166" lon="7.516321016363151"><ele>348.0</ele><time>2026-04-11T11:28:56Z</time></trkpt><trkpt lat="45.060070313684385" lon="7.516612021884813"><ele>348.0</ele><time>2026-04-11T11:28:57Z</time></trkpt><trkpt lat="45.06006434119274" lon="7.5169027028446"><ele>348.0</ele><time>2026-04-11T11:28:58Z</time></trkpt><trkpt lat="45.060072610465504" lon="7.517213258415177"><ele>348.0</ele><time>2026-04-11T11:28:59Z</time></trkpt><trkpt lat="45.06009050521849" lon="7.517516314783981"><ele>348.0</ele><time>2026-04-11T11:29:00Z</time></trkpt><trkpt lat="45.06011672642167" lon="7.517775658437278"><ele>347.75</ele><time>2026-04-11T11:29:01Z</time></trkpt><trkpt lat="45.06014575708602" lon="7.517987468870071"><ele>347.5</ele><time>2026-04-11T11:29:02Z</time></trkpt><trkpt lat="45.060173085902" lon="7.518159406886442"><ele>347.25</ele><time>2026-04-11T11:29:03Z</time></trkpt><trkpt lat="45.0601901106011" lon="7.51830956183381"><ele>347.0</ele><time>2026-04-11T11:29:04Z</time></trkpt><trkpt lat="45.06019343789746" lon="7.518418532643161"><ele>347.0</ele><time>2026-04-11T11:29:05Z</time></trkpt><trkpt lat="45.06018949248294" lon="7.5185079651392"><ele>347.0</ele><time>2026-04-11T11:29:06Z</time></trkpt><trkpt lat="45.060182590038124" lon="7.5186088013062955"><ele>347.0</ele><time>2026-04-11T11:29:07Z</time></trkpt><trkpt lat="45.0601789190396" lon="7.518735559959812"><ele>347.0</ele><time>2026-04-11T11:29:08Z</time></trkpt><trkpt lat="45.06022137870919" lon="7.518893022030437"><ele>347.0</ele><time>2026-04-11T11:29:09Z</time></trkpt><trkpt lat="45.0602534248301" lon="7.519049826270033"><ele>347.0</ele><time>2026-04-11T11:29:10Z</time></trkpt><trkpt lat="45.06029273624051" lon="7.51921084443894"><ele>347.0</ele><time>2026-04-11T11:29:11Z</time></trkpt><trkpt lat="45.06031625200796" lon="7.519370812881088"><ele>347.0</ele><time>2026-04-11T11:29:12Z</time></trkpt><trkpt lat="45.06033111010089" lon="7.519521812147621"><ele>347.0</ele><time>2026-04-11T11:29:13Z</time></trkpt><trkpt lat="45.06035074329275" lon="7.519696077489727"><ele>347.0</ele><time>2026-04-11T11:29:14Z</time></trkpt><trkpt lat="45.06037803942762" lon="7.519924612492479"><ele>347.0</ele><time>2026-04-11T11:29:15Z</time></trkpt><trkpt lat="45.06040324758477" lon="7.520182796377616"><ele>347.0</ele><time>2026-04-11T11:29:16Z</time></trkpt><trkpt lat="45.06042612405051" lon="7.520427079434465"><ele>347.0</ele><time>2026-04-11T11:29:17Z</time></trkpt><trkpt lat="45.06045066107616" lon="7.520647502293084"><ele>347.0</ele><time>2026-04-11T11:29:18Z</time></trkpt><trkpt lat="45.060470999239755" lon="7.520844645635564"><ele>347.0</ele><time>2026-04-11T11:29:19Z</time></trkpt><trkpt lat="45.06048913438458" lon="7.5210144667228604"><ele>347.0</ele><time>2026-04-11T11:29:20Z</time></trkpt><trkpt lat="45.06050769311148" lon="7.521171802311327"><ele>347.5</ele><time>2026-04-11T11:29:21Z</time></trkpt><trkpt lat="45.06052652607459" lon="7.521322327480453"><ele>348.0</ele><time>2026-04-11T11:29:22Z</time></trkpt><trkpt lat="45.06054651505427" lon="7.521492349081355"><ele>348.5</ele><time>2026-04-11T11:29:23Z</time></trkpt><trkpt lat="45.060562185184544" lon="7.521666681403883"><ele>349.0</ele><time>2026-04-11T11:29:24Z</time></trkpt><trkpt lat="45.06057998741761" lon="7.521845839309233"><ele>349.0</ele><time>2026-04-11T11:29:25Z</time></trkpt><trkpt lat="45.06059838965761" lon="7.522030009095951"><ele>349.0</ele><time>2026-04-11T11:29:26Z</time></trkpt><trkpt lat="45.06061770015587" lon="7.522217626790674"><ele>349.0</ele><time>2026-04-11T11:29:27Z</time></trkpt><trkpt lat="45.06063538862912" lon="7.522410699823278"><ele>349.0</ele><time>2026-04-11T11:29:28Z</time></trkpt><trkpt lat="45.06065364039731" lon="7.522604665022348"><ele>348.25</ele><time>2026-04-11T11:29:29Z</time></trkpt><trkpt lat="45.06067599177426" lon="7.5228007358978175"><ele>347.5</ele><time>2026-04-11T11:29:30Z</time></trkpt><trkpt lat="45.0606983622575" lon="7.522998662994453"><ele>346.75</ele><time>2026-04-11T11:29:31Z</time></trkpt><trkpt lat="45.0607198783598" lon="7.52320763683122"><ele>346.0</ele><time>2026-04-11T11:29:32Z</time></trkpt><trkpt lat="45.06074877219717" lon="7.523451638163857"><ele>343.5</ele><time>2026-04-11T11:29:33Z</time></trkpt><trkpt lat="45.06077694833239" lon="7.523698606171927"><ele>341.0</ele><time>2026-04-11T11:29:34Z</time></trkpt><trkpt lat="45.060830050402494" lon="7.52414600017492"><ele>340.6666666666667</ele><time>2026-04-11T11:29:36Z</time></trkpt><trkpt lat="45.06085507863808" lon="7.524360062164701"><ele>340.3333333333333</ele><time>2026-04-11T11:29:37Z</time></trkpt><trkpt lat="45.06087819410784" lon="7.524575343135621"><ele>340.0</ele><time>2026-04-11T11:29:38Z</time></trkpt><trkpt lat="45.06089823150208" lon="7.524791246065243"><ele>339.3333333333333</ele><time>2026-04-11T11:29:39Z</time></trkpt><trkpt lat="45.06092191773097" lon="7.525003732148113"><ele>338.6666666666667</ele><time>2026-04-11T11:29:40Z</time></trkpt><trkpt lat="45.0609502175594" lon="7.525226512871927"><ele>338.0</ele><time>2026-04-11T11:29:41Z</time></trkpt><trkpt lat="45.06097920641391" lon="7.5254407803349705"><ele>337.75</ele><time>2026-04-11T11:29:42Z</time></trkpt><trkpt lat="45.06100825511564" lon="7.52563846833016"><ele>337.5</ele><time>2026-04-11T11:29:43Z</time></trkpt><trkpt lat="45.06104680597003" lon="7.525829117990252"><ele>337.25</ele><time>2026-04-11T11:29:44Z</time></trkpt><trkpt lat="45.06107894734468" lon="7.525994363253986"><ele>337.0</ele><time>2026-04-11T11:29:45Z</time></trkpt><trkpt lat="45.061112944132496" lon="7.52614325997404"><ele>336.66666666666663</ele><time>2026-04-11T11:29:46Z</time></trkpt><trkpt lat="45.06115121679318" lon="7.526285762906099"><ele>336.3333333333333</ele><time>2026-04-11T11:29:47Z</time></trkpt><trkpt lat="45.06126511291866" lon="7.526643801489083"><ele>336.0</ele><time>2026-04-11T11:29:48Z</time></trkpt><trkpt lat="45.06132994465301" lon="7.526834364481764"><ele>336.0</ele><time>2026-04-11T11:29:49Z</time></trkpt><trkpt lat="45.061405185514246" lon="7.527028037791444"><ele>336.0</ele><time>2026-04-11T11:29:50Z</time></trkpt><trkpt lat="45.061493764180845" lon="7.527212646242946"><ele>336.0</ele><time>2026-04-11T11:29:51Z</time></trkpt><trkpt lat="45.06158519598247" lon="7.527404455006601"><ele>336.3333333333333</ele><time>2026-04-11T11:29:52Z</time></trkpt><trkpt lat="45.06167939423651" lon="7.5275948131477985"><ele>336.66666666666663</ele><time>2026-04-11T11:29:53Z</time></trkpt><trkpt lat="45.06177806488538" lon="7.527787844144422"><ele>337.0</ele><time>2026-04-11T11:29:54Z</time></trkpt><trkpt lat="45.06188666691454" lon="7.527968041518832"><ele>336.3333333333333</ele><time>2026-04-11T11:29:55Z</time></trkpt><trkpt lat="45.062003223382874" lon="7.528140677273886"><ele>335.6666666666667</ele><time>2026-04-11T11:29:56Z</time></trkpt><trkpt lat="45.06212452093857" lon="7.528310172526918"><ele>335.0</ele><time>2026-04-11T11:29:57Z</time></trkpt><trkpt lat="45.06225442503611" lon="7.528471844868472"><ele>335.0</ele><time>2026-04-11T11:29:58Z</time></trkpt><trkpt lat="45.06239436269201" lon="7.528614877099983"><ele>335.0</ele><time>2026-04-11T11:29:59Z</time></trkpt><trkpt lat="45.06254300246864" lon="7.528743377763336"><ele>335.0</ele><time>2026-04-11T11:30:00Z</time></trkpt><trkpt lat="45.06269501656923" lon="7.528870706868366"><ele>334.6666666666667</ele><time>2026-04-11T11:30:01Z</time></trkpt><trkpt lat="45.06284674037282" lon="7.52899606977335"><ele>334.3333333333333</ele><time>2026-04-11T11:30:02Z</time></trkpt><trkpt lat="45.06300549510258" lon="7.529122001472033"><ele>334.0</ele><time>2026-04-11T11:30:03Z</time></trkpt><trkpt lat="45.063167690362626" lon="7.529242321271526"><ele>333.3333333333333</ele><time>2026-04-11T11:30:04Z</time></trkpt><trkpt lat="45.063327681123596" lon="7.529358254256091"><ele>332.6666666666667</ele><time>2026-04-11T11:30:05Z</time></trkpt><trkpt lat="45.063493768567085" lon="7.5294742151683565"><ele>332.0</ele><time>2026-04-11T11:30:06Z</time></trkpt><trkpt lat="45.063661142043806" lon="7.529592706065658"><ele>332.0</ele><time>2026-04-11T11:30:07Z</time></trkpt><trkpt lat="45.063823863924036" lon="7.5297110559588925"><ele>332.0</ele><time>2026-04-11T11:30:08Z</time></trkpt><trkpt lat="45.063984267646696" lon="7.529829123487226"><ele>332.0</ele><time>2026-04-11T11:30:09Z</time></trkpt><trkpt lat="45.06414435260427" lon="7.529939698139236"><ele>332.6666666666667</ele><time>2026-04-11T11:30:10Z</time></trkpt><trkpt lat="45.06429896828222" lon="7.530059340058961"><ele>333.3333333333333</ele><time>2026-04-11T11:30:11Z</time></trkpt><trkpt lat="45.06446626442079" lon="7.530183961502483"><ele>334.0</ele><time>2026-04-11T11:30:12Z</time></trkpt><trkpt lat="45.064658167950775" lon="7.530313865172493"><ele>333.5</ele><time>2026-04-11T11:30:13Z</time></trkpt><trkpt lat="45.06485323900205" lon="7.530482420643296"><ele>333.0</ele><time>2026-04-11T11:30:14Z</time></trkpt><trkpt lat="45.06506909018666" lon="7.530642588315024"><ele>333.0</ele><time>2026-04-11T11:30:15Z</time></trkpt><trkpt lat="45.065259500881346" lon="7.530783878362777"><ele>333.0</ele><time>2026-04-11T11:30:16Z</time></trkpt><trkpt lat="45.06543680917292" lon="7.530898558508152"><ele>333.0</ele><time>2026-04-11T11:30:17Z</time></trkpt><trkpt lat="45.06559599157187" lon="7.531021309932876"><ele>333.0</ele><time>2026-04-11T11:30:18Z</time></trkpt><trkpt lat="45.06575083903199" lon="7.531138699508629"><ele>333.0</ele><time>2026-04-11T11:30:19Z</time></trkpt><trkpt lat="45.06590321208386" lon="7.531258392658328"><ele>333.0</ele><time>2026-04-11T11:30:20Z</time></trkpt><trkpt lat="45.06604107303057" lon="7.5313834773457335"><ele>333.3333333333333</ele><time>2026-04-11T11:30:21Z</time></trkpt><trkpt lat="45.06616673914565" lon="7.531520663061093"><ele>333.66666666666663</ele><time>2026-04-11T11:30:22Z</time></trkpt><trkpt lat="45.06627280770722" lon="7.531666552532951"><ele>334.0</ele><time>2026-04-11T11:30:23Z</time></trkpt><trkpt lat="45.06637071693667" lon="7.531821076708206"><ele>334.0</ele><time>2026-04-11T11:30:24Z</time></trkpt><trkpt lat="45.066462860058984" lon="7.531980570908936"><ele>334.0</ele><time>2026-04-11T11:30:25Z</time></trkpt><trkpt lat="45.06654366818038" lon="7.5321348446902725"><ele>334.0</ele><time>2026-04-11T11:30:26Z</time></trkpt><trkpt lat="45.066612547658444" lon="7.532283379205132"><ele>334.0</ele><time>2026-04-11T11:30:27Z</time></trkpt><trkpt lat="45.0666719214874" lon="7.532426822180946"><ele>333.4</ele><time>2026-04-11T11:30:28Z</time></trkpt><trkpt lat="45.066714756258044" lon="7.532542249816154"><ele>332.79999999999995</ele><time>2026-04-11T11:30:29Z</time></trkpt><trkpt lat="45.06674673424197" lon="7.532627741358039"><ele>332.20000000000005</ele><time>2026-04-11T11:30:30Z</time></trkpt><trkpt lat="45.06680529031652" lon="7.532767373654223"><ele>331.6</ele><time>2026-04-11T11:30:32Z</time></trkpt><trkpt lat="45.06683679811794" lon="7.532873143727816"><ele>331.0</ele><time>2026-04-11T11:30:33Z</time></trkpt><trkpt lat="45.066845566017044" lon="7.5330261465678054"><ele>331.0</ele><time>2026-04-11T11:30:34Z</time></trkpt><trkpt lat="45.066879978656104" lon="7.533112208092847"><ele>331.0</ele><time>2026-04-11T11:30:35Z</time></trkpt><trkpt lat="45.06689033457397" lon="7.533200683181216"><ele>331.0</ele><time>2026-04-11T11:30:36Z</time></trkpt><trkpt lat="45.066907054337506" lon="7.533326103348569"><ele>331.0</ele><time>2026-04-11T11:30:37Z</time></trkpt><trkpt lat="45.06692300607614" lon="7.533480813903219"><ele>331.0</ele><time>2026-04-11T11:30:38Z</time></trkpt><trkpt lat="45.06693507827682" lon="7.533650302160752"><ele>331.25</ele><time>2026-04-11T11:30:39Z</time></trkpt><trkpt lat="45.066940934670285" lon="7.533825865009432"><ele>331.5</ele><time>2026-04-11T11:30:40Z</time></trkpt><trkpt lat="45.06694181531816" lon="7.53400704010329"><ele>331.75</ele><time>2026-04-11T11:30:41Z</time></trkpt><trkpt lat="45.06693432183575" lon="7.534186951111703"><ele>332.0</ele><time>2026-04-11T11:30:42Z</time></trkpt><trkpt lat="45.06692285631943" lon="7.534367780991424"><ele>332.0</ele><time>2026-04-11T11:30:43Z</time></trkpt><trkpt lat="45.06690418840789" lon="7.534540390783631"><ele>332.0</ele><time>2026-04-11T11:30:44Z</time></trkpt><trkpt lat="45.066875103140845" lon="7.534700946401236"><ele>332.0</ele><time>2026-04-11T11:30:45Z</time></trkpt><trkpt lat="45.06684565681954" lon="7.534849132355142"><ele>332.0</ele><time>2026-04-11T11:30:46Z</time></trkpt><trkpt lat="45.06682122575395" lon="7.534975416024647"><ele>332.0</ele><time>2026-04-11T11:30:47Z</time></trkpt><trkpt lat="45.06679794075465" lon="7.535086304235427"><ele>332.0</ele><time>2026-04-11T11:30:48Z</time></trkpt><trkpt lat="45.066775820712934" lon="7.535193022439849"><ele>332.0</ele><time>2026-04-11T11:30:49Z</time></trkpt><trkpt lat="45.06675791237501" lon="7.535287792882657"><ele>332.0</ele><time>2026-04-11T11:30:50Z</time></trkpt><trkpt lat="45.06673966366201" lon="7.535382749049542"><ele>332.0</ele><time>2026-04-11T11:30:51Z</time></trkpt><trkpt lat="45.06669372835772" lon="7.535635291484668"><ele>332.0</ele><time>2026-04-11T11:30:53Z</time></trkpt><trkpt lat="45.06666776910537" lon="7.535792861852071"><ele>332.0</ele><time>2026-04-11T11:30:54Z</time></trkpt><trkpt lat="45.06664216772928" lon="7.535925721500062"><ele>332.0</ele><time>2026-04-11T11:30:55Z</time></trkpt><trkpt lat="45.06661708855423" lon="7.536044089180789"><ele>332.0</ele><time>2026-04-11T11:30:56Z</time></trkpt><trkpt lat="45.06659509231696" lon="7.536153513368082"><ele>332.0</ele><time>2026-04-11T11:30:57Z</time></trkpt><trkpt lat="45.06657500046318" lon="7.5362495861031045"><ele>332.0</ele><time>2026-04-11T11:30:58Z</time></trkpt><trkpt lat="45.066550846149894" lon="7.536389336101125"><ele>332.0</ele><time>2026-04-11T11:31:00Z</time></trkpt><trkpt lat="45.06653408382442" lon="7.536506440492301"><ele>331.6666666666667</ele><time>2026-04-11T11:31:02Z</time></trkpt><trkpt lat="45.066546681336106" lon="7.5366005565278815"><ele>331.33333333333337</ele><time>2026-04-11T11:31:04Z</time></trkpt><trkpt lat="45.06656916075948" lon="7.536691642679756"><ele>331.0</ele><time>2026-04-11T11:31:06Z</time></trkpt><trkpt lat="45.066590445408984" lon="7.536800874622274"><ele>330.6666666666667</ele><time>2026-04-11T11:31:08Z</time></trkpt><trkpt lat="45.06655356111733" lon="7.536984027532697"><ele>330.3333333333333</ele><time>2026-04-11T11:31:10Z</time></trkpt><trkpt lat="45.06651664194614" lon="7.53710737058233"><ele>330.0</ele><time>2026-04-11T11:31:11Z</time></trkpt><trkpt lat="45.066491899121964" lon="7.537205536188113"><ele>329.5</ele><time>2026-04-11T11:31:12Z</time></trkpt><trkpt lat="45.06645934680047" lon="7.537287271192585"><ele>329.0</ele><time>2026-04-11T11:31:13Z</time></trkpt><trkpt lat="45.06641827371857" lon="7.537354866262187"><ele>328.5</ele><time>2026-04-11T11:31:14Z</time></trkpt><trkpt lat="45.06633535129191" lon="7.537482645256134"><ele>328.0</ele><time>2026-04-11T11:31:16Z</time></trkpt><trkpt lat="45.06630616868826" lon="7.537562255339426"><ele>327.5</ele><time>2026-04-11T11:31:17Z</time></trkpt><trkpt lat="45.066281850740914" lon="7.537652161185093"><ele>327.0</ele><time>2026-04-11T11:31:18Z</time></trkpt><trkpt lat="45.06625512778208" lon="7.537755679592227"><ele>326.6</ele><time>2026-04-11T11:31:19Z</time></trkpt><trkpt lat="45.0662261690252" lon="7.537888112318642"><ele>326.20000000000005</ele><time>2026-04-11T11:31:20Z</time></trkpt><trkpt lat="45.066192066167716" lon="7.538016557499415"><ele>325.8</ele><time>2026-04-11T11:31:21Z</time></trkpt><trkpt lat="45.066153495891655" lon="7.538142175362562"><ele>325.4</ele><time>2026-04-11T11:31:22Z</time></trkpt><trkpt lat="45.06611767604743" lon="7.538263542872792"><ele>325.0</ele><time>2026-04-11T11:31:23Z</time></trkpt><trkpt lat="45.06608128747663" lon="7.538387995025905"><ele>325.0</ele><time>2026-04-11T11:31:24Z</time></trkpt><trkpt lat="45.066039778670074" lon="7.538514358846101"><ele>325.0</ele><time>2026-04-11T11:31:25Z</time></trkpt><trkpt lat="45.06599581404222" lon="7.538640414273953"><ele>325.0</ele><time>2026-04-11T11:31:26Z</time></trkpt></trkseg></trk></gpx>